[[{"header":{"parameterUnit":"m.s-1","parameterCategory":1,"la1":31.0,"la2":29.5877,"lo1":-88.7671,"lo2":-86.6584,"dy":0.0162,"dx":0.0185,"nx":115,"ny":88,"refTime":"2023-07-25T18:00:00:Z","depth":0,"parameterNumber":2,"parameterNumberName":"U-component_of_WINDS"},"data":[0.0,0.0,0.0,0.0,0.0,0.0,0.0,0.0,0.0,0.0,0.0,0.0,0.0,0.0,0.0,0.0,0.0,0.0,0.0,0.0,0.0,0.0,0.0,0.0,0.0,0.0,0.0,0.0,0.0,0.0,0.0,0.0,0.0,0.0,0.0,0.0,0.0,0.0,0.0,0.0,0.0,0.0,0.0,0.0,0.0,0.0,0.0,0.0,0.0,0.0,0.0,0.0,0.0,0.0,0.0,0.0,0.0,0.0,0.0,0.0,0.0,0.0,0.0,0.0,0.0,0.0,0.0,0.0,0.0,0.0,0.0,0.0,0.0,0.0,0.0,0.0,0.0,0.0,0.0,0.0,0.0,0.0,0.0,0.0,0.0,0.0,0.0,0.0,0.0,0.0,0.0,0.0,0.0,0.0,0.0,0.0,0.0,0.0,0.0,0.0,0.0,0.0,0.0,0.0,0.0,0.0,0.0,0.0,0.0,0.0,0.0,0.0,0.0,0.0,0.0,0.0,0.0,0.0,0.0,0.0,0.0,0.0,0.0,0.0,0.0,0.0,0.0,0.0,0.0,0.0,0.0,0.0,0.0,0.0,0.0,0.0,0.0,0.0,0.0,0.0,0.0,0.0,0.0,0.0,0.0,0.0,0.0,0.0,0.0,0.0,0.0,0.0,0.0,0.0,0.0,0.0,0.0,0.0,0.0,0.0,0.0,0.0,0.0,0.0,0.0,0.0,0.0,0.0,0.0,0.0,0.0,0.0,0.0,0.0,0.0,0.0,0.0,0.0,0.0,0.0,0.0,0.0,0.0,0.0,0.0,0.0,0.0,0.0,0.0,0.0,0.0,0.0,0.0,0.0,0.0,0.0,0.0,0.0,0.0,0.0,0.0,0.0,0.0,0.0,0.0,0.0,0.0,0.0,0.0,0.0,0.0,0.0,0.0,0.0,0.0,0.0,0.0,0.0,0.0,0.0,0.0,0.0,0.0,0.0,0.0,0.0,0.0,0.0,0.0,0.0,0.0,0.0,0.0,0.0,0.0,0.0,0.0,0.0,0.0,0.0,0.0,0.0,0.0,0.0,0.0,0.0,0.0,0.0,0.0,0.0,0.0,0.0,0.0,0.0,0.0,0.0,0.0,0.0,0.0,0.0,0.0,0.0,0.0,0.0,0.0,0.0,0.0,0.0,0.0,0.0,0.0,0.0,0.0,0.0,0.0,0.0,0.0,0.0,0.0,0.0,0.0,0.0,0.0,0.0,0.0,0.0,0.0,0.0,0.0,0.0,0.0,0.0,0.0,0.0,0.0,0.0,0.0,0.0,0.0,0.0,0.0,0.0,0.0,0.0,0.0,0.0,0.0,0.0,0.0,0.0,0.0,0.0,0.0,0.0,0.0,0.0,0.0,0.0,0.0,0.0,0.0,0.0,0.0,0.0,0.0,0.0,0.0,0.0,0.0,0.0,0.0,0.0,0.0,0.0,0.0,0.0,0.0,0.0,0.0,0.0,0.0,0.0,0.0,0.0,0.0,0.0,0.0,0.0,0.0,0.0,0.0,0.0,0.0,0.0,0.0,0.0,0.0,0.0,0.0,0.0,0.0,0.0,0.0,0.0,0.0,0.0,0.0,0.0,0.0,0.0,0.0,0.0,0.0,0.0,0.0,0.0,0.0,0.0,0.0,0.0,0.0,0.0,0.0,0.0,0.0,0.0,0.0,0.0,0.0,0.0,0.0,0.0,0.0,0.0,0.0,0.0,0.0,0.0,0.0,0.0,0.0,0.0,0.0,0.0,0.0,0.0,0.0,0.0,0.0,0.0,0.0,0.0,0.0,0.0,0.0,0.0,0.0,0.0,0.0,0.0,0.0,0.0,0.0,0.0,0.0,0.0,0.0,0.0,0.0,0.0,0.0,0.0,0.0,0.0,0.0,0.0,0.0,0.0,0.0,0.0,0.0,0.0,0.0,0.0,0.0,0.0,0.0,0.0,0.0,0.0,0.0,0.0,0.0,0.0,0.0,0.0,0.0,0.0,0.0,0.0,0.0,0.0,0.0,0.0,0.0,0.0,0.0,0.0,0.0,0.0,0.0,0.0,0.0,0.0,0.0,0.0,0.0,0.0,0.0,0.0,0.0,0.0,0.0,0.0,0.0,0.0,0.0,0.0,0.0,0.0,0.0,0.0,0.0,0.0,0.0,0.0,0.0,0.0,0.0,0.0,0.0,0.0,0.0,0.0,0.0,0.0,0.0,0.0,0.0,0.0,0.0,0.0,0.0,0.0,0.0,0.0,0.0,0.0,0.0,0.0,0.0,0.0,0.0,0.0,0.0,0.0,0.0,0.0,0.0,0.0,0.0,0.0,0.0,0.0,0.0,0.0,0.0,0.0,0.0,0.0,0.0,0.0,0.0,0.0,0.0,0.0,0.0,0.0,0.0,0.0,0.0,0.0,0.0,0.0,0.0,0.0,0.0,0.0,0.0,0.0,0.0,0.0,0.0,0.0,0.0,0.0,0.0,0.0,0.0,0.0,0.0,0.0,0.0,0.0,0.0,0.0,0.0,0.0,0.0,0.0,0.0,0.0,0.0,0.0,0.0,0.0,0.0,0.0,0.0,0.0,0.0,0.0,0.0,0.0,0.0,0.0,0.0,0.0,0.0,0.0,0.0,0.0,0.0,0.0,0.0,0.0,0.0,0.0,0.0,0.0,0.0,0.0,0.0,0.0,0.0,0.0,0.0,0.0,0.0,0.0,0.0,0.0,0.0,0.0,0.0,0.0,0.0,0.0,0.0,0.0,0.0,0.0,0.0,0.0,0.0,0.0,0.0,0.0,0.0,0.0,0.0,0.0,0.0,0.0,0.0,0.0,0.0,0.0,0.0,0.0,0.0,0.0,0.0,0.0,0.0,0.0,0.0,0.0,0.0,0.0,0.0,0.0,0.0,0.0,0.0,0.0,0.0,0.0,0.0,0.0,0.0,0.0,0.0,0.0,0.0,0.0,0.0,0.0,0.0,0.0,0.0,0.0,0.0,0.0,0.0,0.0,0.0,0.0,0.0,0.0,0.0,0.0,0.0,0.0,0.0,0.0,0.0,0.0,0.0,0.0,0.0,0.0,0.0,0.0,0.0,0.0,0.0,0.0,0.0,0.0,0.0,0.0,0.0,0.0,0.0,0.0,0.0,0.0,0.0,0.0,0.0,0.0,0.0,0.0,0.0,0.0,0.0,0.0,0.0,0.0,0.0,0.0,0.0,0.0,0.0,0.0,0.0,0.0,0.0,0.0,0.0,0.0,0.0,0.0,0.0,0.0,0.0,0.0,0.0,0.0,0.0,0.0,0.0,0.0,0.0,0.0,0.0,0.0,0.0,0.0,0.0,0.0,0.0,0.0,0.0,0.0,0.0,0.0,0.0,0.0,0.0,0.0,0.0,0.0,0.0,0.0,0.0,0.0,0.0,0.0,0.0,0.0,0.0,0.0,0.0,0.0,0.0,0.0,0.0,0.0,0.0,0.0,0.0,0.0,0.0,0.0,0.0,0.0,0.0,0.0,0.0,0.0,0.0,0.0,0.0,0.0,0.0,0.0,0.0,0.0,0.0,0.0,0.0,0.0,0.0,0.0,0.0,0.0,0.0,0.0,0.0,0.0,0.0,0.0,0.0,0.0,0.0,0.0,0.0,0.0,0.0,0.0,0.0,0.0,0.0,0.0,0.0,0.0,0.0,0.0,0.0,0.0,0.0,0.0,0.0,0.0,0.0,0.0,0.0,0.0,0.0,0.0,0.0,0.0,0.0,0.0,0.0,0.0,0.0,0.0,0.0,0.0,0.0,0.0,0.0,0.0,0.0,0.0,0.0,0.0,0.0,0.0,0.0,0.0,0.0,0.0,0.0,0.0,0.0,0.0,0.0,0.0,0.0,0.0,0.0,0.0,0.0,0.0,0.0,0.0,0.0,0.0,0.0,0.0,0.0,0.0,0.0,0.0,0.0,0.0,0.0,0.0,0.0,0.0,0.0,0.0,0.0,0.0,0.0,0.0,0.0,0.0,0.0,0.0,0.0,0.0,0.0,0.0,0.0,0.0,0.0,0.0,0.0,0.0,0.0,0.0,0.0,0.0,0.0,0.0,0.0,0.0,0.0,0.0,0.0,0.0,0.0,0.0,0.0,0.0,0.0,0.0,0.0,0.0,0.0,0.0,0.0,0.0,0.0,0.0,0.0,0.0,0.0,0.0,0.0,0.0,0.0,0.0,0.0,0.0,0.0,0.0,0.0,0.0,0.0,0.0,-0.5011,0.0,0.0,0.0,0.0,0.0,0.0,0.0,0.0,0.0,0.0,0.0,0.0,0.0,0.0,0.0,0.0,0.0,0.0,0.0,0.0,0.0,0.0,0.0,0.0,0.0,0.0,0.0,0.0,0.0,0.0,0.0,0.0,0.0,0.0,0.0,0.0,0.0,0.0,0.0,0.0,0.0,0.0,0.0,0.0,0.0,0.0,0.0,0.0,0.0,0.0,0.0,0.0,0.0,0.0,0.0,0.0,0.0,0.0,0.0,0.0,0.0,0.0,0.0,0.0,0.0,0.0,0.0,0.0,0.0,0.0,0.0,0.0,0.0,0.0,0.0,0.0,0.0,0.0,0.0,0.0,0.0,0.0,0.0,0.0,0.0,0.0,0.0,0.0,0.0,0.0,0.0,0.0,0.0,0.0,0.0,0.0,0.0,0.0,0.0,0.0,0.0,0.0,0.0,0.0,0.0,0.0,0.0,0.0,0.0,0.0,-1.0919,-1.0614,-1.0032,-0.9363,-0.8653,0.0,0.0,0.0,0.0,0.0,0.0,0.0,0.0,0.0,0.0,0.0,0.0,0.0,0.0,0.0,0.0,0.0,0.0,0.0,0.0,0.0,0.0,0.0,0.0,0.0,0.0,0.0,0.0,0.0,0.0,0.0,0.0,0.0,0.0,0.0,0.0,0.0,0.0,0.0,0.0,0.0,0.0,0.0,0.0,0.0,0.0,0.0,0.0,0.0,0.0,0.0,0.0,0.0,0.0,0.0,0.0,0.0,0.0,0.0,0.0,0.0,0.0,0.0,0.0,0.0,0.0,0.0,0.0,0.0,0.0,0.0,0.0,0.0,0.0,0.0,0.0,0.0,0.0,0.0,0.0,0.0,0.0,0.0,0.0,0.0,0.0,0.0,0.0,0.0,0.0,0.0,0.0,0.0,0.0,0.0,0.0,0.0,0.0,0.0,0.0,0.0,0.0,0.0,0.0,0.0,0.0,0.0,0.0,0.0,0.0,0.0,0.0,-1.3512,-1.2939,-1.1995,0.0,0.0,0.0,0.0,0.0,0.0,0.0,0.0,0.0,0.0,0.0,0.0,0.0,0.0,0.0,0.0,0.0,0.0,0.0,0.0,0.0,0.0,0.0,0.0,0.0,0.0,0.0,0.0,0.0,0.0,0.0,0.0,0.0,0.0,0.0,0.0,0.0,0.0,0.0,0.0,0.0,0.0,0.0,0.0,0.0,0.0,0.0,0.0,0.0,0.0,0.0,0.0,0.0,0.0,0.0,0.0,0.0,0.0,0.0,0.0,0.0,0.0,0.0,0.0,0.0,0.0,0.0,0.0,0.0,0.0,0.0,0.0,0.0,0.0,0.0,0.0,0.0,0.0,0.0,0.0,0.0,0.0,0.0,0.0,0.0,0.0,0.0,0.0,0.0,0.0,0.0,0.0,0.0,0.0,0.0,0.0,0.0,0.0,0.0,0.0,0.0,0.0,0.0,0.0,0.0,0.0,0.0,0.0,0.0,0.0,-1.6643,-1.6889,-1.6798,0.0,-1.4654,0.0,0.0,0.0,0.0,0.0,0.0,0.0,0.0,0.0,0.0,0.0,0.0,0.0,0.0,0.0,0.0,0.0,0.0,0.0,0.0,0.0,0.0,0.0,0.0,0.0,0.0,0.0,0.0,0.0,0.0,0.0,0.0,0.0,0.0,0.0,0.0,0.0,0.0,0.0,0.0,0.0,0.0,0.0,0.0,0.0,0.0,0.0,0.0,0.0,0.0,0.0,0.0,0.0,0.0,0.0,0.0,0.0,0.0,0.0,0.0,0.0,0.0,0.0,0.0,0.0,0.0,0.0,0.0,0.0,0.0,0.0,0.0,0.0,0.0,0.0,0.0,0.0,0.0,0.0,0.0,0.0,0.0,0.0,0.0,0.0,0.0,0.0,0.0,0.0,0.0,0.0,0.0,0.0,0.0,0.0,0.0,0.0,0.0,0.0,0.0,0.0,0.0,0.0,0.0,0.0,0.0,0.0,0.0,0.0,0.0,-1.876,-1.9296,-1.9467,-1.9061,0.0,0.0,0.0,0.0,0.0,0.0,0.0,0.0,0.0,0.0,0.0,0.0,0.0,0.0,0.0,0.0,0.0,0.0,0.0,0.0,0.0,0.0,0.0,0.0,0.0,0.0,0.0,0.0,0.0,0.0,0.0,0.0,0.0,0.0,0.0,0.0,0.0,0.0,0.0,0.0,0.0,0.0,0.0,0.0,0.0,0.0,0.0,0.0,0.0,0.0,0.0,0.0,0.0,0.0,0.0,0.0,0.0,0.0,0.0,0.0,0.0,0.0,0.0,0.0,0.0,0.0,0.0,0.0,0.0,0.0,0.0,0.0,0.0,0.0,0.0,0.0,0.0,0.0,0.0,0.0,0.0,0.0,0.0,0.0,0.0,0.0,0.0,0.0,0.0,0.0,0.0,0.0,0.0,0.0,0.0,0.0,0.0,0.0,0.0,0.0,0.0,0.0,0.0,0.0,0.0,0.0,0.0,0.0,0.0,0.0,-1.9597,-2.056,-2.1444,-2.1763,-2.1627,-2.1179,0.0,0.0,0.0,0.0,0.0,0.0,0.0,0.0,0.0,0.0,0.0,0.0,0.0,0.0,0.0,0.0,0.0,0.0,0.0,0.0,0.0,0.0,0.0,0.0,0.0,0.0,0.0,0.0,0.0,0.0,0.0,0.0,0.0,0.0,0.0,0.0,0.0,0.0,0.0,0.0,0.0,0.0,0.0,0.0,0.0,0.0,0.0,0.0,0.0,0.0,0.0,0.0,0.0,0.0,0.0,0.0,0.0,0.0,0.0,0.0,0.0,0.0,0.0,0.0,0.0,0.0,0.0,0.0,0.0,0.0,0.0,0.0,0.0,0.0,0.0,0.0,0.0,0.0,0.0,0.0,0.0,0.0,0.0,0.0,0.0,0.0,0.0,0.0,0.0,0.0,0.0,0.0,0.0,0.0,0.0,0.0,0.0,0.0,0.0,0.0,0.0,0.0,0.0,0.0,0.0,0.0,0.0,0.0,-1.9453,-2.0687,-2.2017,-2.3397,-2.3657,-2.3694,0.0,0.0,0.0,0.0,0.0,0.0,0.0,0.0,0.0,0.0,0.0,0.0,0.0,0.0,0.0,0.0,0.0,0.0,0.0,0.0,0.0,0.0,0.0,0.0,0.0,0.0,0.0,0.0,0.0,0.0,0.0,0.0,0.0,0.0,0.0,0.0,0.0,0.0,0.0,0.0,0.0,0.0,0.0,0.0,0.0,0.0,0.0,0.0,0.0,0.0,0.0,0.0,0.0,0.0,0.0,0.0,0.0,0.0,0.0,0.0,0.0,0.0,0.0,0.0,0.0,0.0,0.0,0.0,0.0,0.0,0.0,0.0,0.0,0.0,0.0,0.0,0.0,0.0,0.0,0.0,0.0,0.0,0.0,0.0,0.0,0.0,0.0,0.0,0.0,0.0,0.0,0.0,0.0,0.0,0.0,0.0,0.0,0.0,0.0,0.0,0.0,0.0,0.0,0.0,0.0,0.0,0.0,0.0,0.0,-1.997,-2.1907,-2.3391,-2.4327,-2.4605,-2.4711,0.0,0.0,0.0,0.0,0.0,0.0,0.0,0.0,0.0,0.0,0.0,0.0,0.0,0.0,0.0,0.0,0.0,0.0,0.0,0.0,0.0,0.0,0.0,0.0,0.0,0.0,0.0,0.0,0.0,0.0,0.0,0.0,0.0,0.0,0.0,0.0,0.0,0.0,0.0,0.0,0.0,0.0,0.0,0.0,0.0,0.0,0.0,0.0,0.0,0.0,0.0,0.0,0.0,0.0,0.0,0.0,0.0,0.0,0.0,0.0,0.0,0.0,0.0,0.0,0.0,0.0,0.0,0.0,0.0,0.0,0.0,0.0,0.0,0.0,0.0,0.0,0.0,0.0,0.0,0.0,0.0,0.0,0.0,0.0,0.0,0.0,0.0,0.0,0.0,0.0,0.0,0.0,0.0,0.0,0.0,0.0,0.0,0.0,0.0,0.0,0.0,0.0,0.0,0.0,0.0,0.0,0.0,0.0,0.0,-2.1081,0.0,-2.4308,-2.4897,-2.5162,-2.5273,0.0,0.0,0.0,0.0,0.0,0.0,0.0,0.0,0.0,0.0,0.0,0.0,0.0,0.0,0.0,0.0,0.0,0.0,0.0,0.0,0.0,0.0,0.0,0.0,0.0,0.0,0.0,0.0,0.0,0.0,0.0,0.0,0.0,0.0,0.0,0.0,0.0,0.0,0.0,0.0,0.0,0.0,0.0,0.0,0.0,0.0,0.0,0.0,0.0,0.0,0.0,0.0,0.0,0.0,0.0,0.0,0.0,0.0,0.0,0.0,0.0,0.0,0.0,0.0,0.0,0.0,0.0,0.0,0.0,0.0,0.0,0.0,0.0,0.0,0.0,0.0,0.0,0.0,0.0,0.0,0.0,0.0,0.0,0.0,0.0,0.0,0.0,0.0,0.0,0.0,0.0,0.0,0.0,0.0,0.0,0.0,0.0,0.0,0.0,0.0,0.0,0.0,0.0,0.0,0.0,0.0,0.0,0.0,-2.0289,-2.2803,-2.3902,-2.4707,-2.5204,-2.5369,-2.5403,0.0,0.0,0.0,0.0,0.0,0.0,0.0,0.0,0.0,0.0,0.0,0.0,0.0,0.0,0.0,0.0,0.0,0.0,0.0,0.0,0.0,0.0,0.0,0.0,0.0,0.0,0.0,0.0,0.0,0.0,0.0,0.0,0.0,0.0,0.0,0.0,0.0,0.0,0.0,0.0,0.0,0.0,0.0,0.0,0.0,0.0,0.0,0.0,0.0,0.0,0.0,0.0,0.0,0.0,0.0,0.0,0.0,0.0,0.0,0.0,0.0,0.0,0.0,0.0,0.0,0.0,0.0,0.0,0.0,0.0,0.0,0.0,0.0,0.0,0.0,0.0,0.0,0.0,0.0,0.0,0.0,0.0,0.0,0.0,0.0,0.0,0.0,0.0,0.0,0.0,0.0,0.0,0.0,0.0,0.0,0.0,0.0,0.0,0.0,0.0,0.0,0.0,0.0,0.0,0.0,0.0,0.0,0.0,0.0,-2.4007,-2.4965,-2.5624,-2.6003,-2.6037,-2.5735,0.0,0.0,0.0,0.0,0.0,0.0,0.0,0.0,0.0,0.0,0.0,0.0,0.0,0.0,0.0,0.0,0.0,0.0,0.0,0.0,0.0,0.0,0.0,0.0,0.0,0.0,0.0,0.0,0.0,0.0,0.0,0.0,0.0,0.0,0.0,0.0,0.0,0.0,0.0,0.0,0.0,0.0,0.0,0.0,0.0,0.0,0.0,0.0,0.0,0.0,0.0,0.0,0.0,0.0,0.0,0.0,0.0,0.0,0.0,0.0,0.0,0.0,0.0,0.0,0.0,0.0,0.0,0.0,0.0,0.0,0.0,0.0,0.0,0.0,0.0,0.0,0.0,0.0,0.0,0.0,0.0,0.0,0.0,0.0,0.0,0.0,0.0,0.0,0.0,0.0,0.0,0.0,0.0,0.0,0.0,0.0,0.0,0.0,0.0,0.0,0.0,0.0,0.0,0.0,0.0,0.0,0.0,0.0,0.0,-2.4869,-2.5557,-2.6149,-2.6664,-2.6228,-2.5748,-2.5156,0.0,0.0,0.0,0.0,0.0,0.0,0.0,0.0,0.0,0.0,0.0,0.0,0.0,0.0,0.0,0.0,0.0,0.0,0.0,0.0,0.0,0.0,0.0,0.0,0.0,0.0,0.0,0.0,0.0,0.0,0.0,0.0,0.0,0.0,0.0,0.0,0.0,0.0,0.0,0.0,0.0,0.0,0.0,0.0,0.0,0.0,0.0,0.0,0.0,0.0,0.0,0.0,0.0,0.0,0.0,0.0,0.0,0.0,0.0,0.0,0.0,0.0,0.0,0.0,0.0,0.0,0.0,0.0,0.0,0.0,0.0,0.0,0.0,0.0,0.0,0.0,0.0,0.0,0.0,0.0,0.0,0.0,0.0,0.0,0.0,0.0,0.0,0.0,0.0,0.0,0.0,0.0,0.0,0.0,0.0,0.0,0.0,0.0,0.0,0.0,0.0,0.0,0.0,0.0,0.0,0.0,0.0,0.0,-2.5498,-2.5759,-2.6223,-2.6949,-2.604,-2.543,0.0,0.0,0.0,0.0,0.0,0.0,0.0,0.0,0.0,0.0,0.0,0.0,0.0,0.0,0.0,0.0,0.0,0.0,0.0,0.0,0.0,0.0,0.0,0.0,0.0,0.0,0.0,0.0,0.0,0.0,0.0,0.0,0.0,0.0,0.0,0.0,0.0,0.0,0.0,0.0,0.0,0.0,0.0,0.0,0.0,0.0,0.0,0.0,0.0,0.0,0.0,0.0,0.0,0.0,0.0,0.0,0.0,0.0,0.0,0.0,0.0,0.0,0.0,0.0,0.0,0.0,0.0,0.0,0.0,0.0,0.0,0.0,0.0,0.0,0.0,0.0,0.0,0.0,0.0,0.0,0.0,0.0,0.0,0.0,0.0,0.0,0.0,0.0,0.0,0.0,0.0,0.0,0.0,0.0,0.0,0.0,0.0,0.0,0.0,0.0,0.0,0.0,0.0,0.0,0.0,0.0,0.0,0.0,0.0,-2.5639,-2.5736,-2.5819,-2.5919,-2.5772,-2.5153,0.0,0.0,0.0,0.0,0.0,0.0,0.0,0.0,0.0,0.0,0.0,0.0,0.0,0.0,0.0,0.0,0.0,0.0,0.0,0.0,0.0,0.0,0.0,0.0,0.0,0.0,0.0,0.0,0.0,0.0,0.0,0.0,0.0,0.0,0.0,0.0,0.0,0.0,0.0,0.0,0.0,0.0,0.0,0.0,0.0,0.0,0.0,0.0,0.0,0.0,0.0,0.0,0.0,0.0,0.0,0.0,0.0,0.0,0.0,0.0,0.0,0.0,0.0,0.0,0.0,0.0,0.0,0.0,0.0,0.0,0.0,0.0,0.0,0.0,0.0,0.0,0.0,0.0,0.0,0.0,0.0,0.0,0.0,0.0,0.0,0.0,0.0,0.0,0.0,0.0,0.0,0.0,0.0,0.0,0.0,0.0,0.0,0.0,0.0,0.0,0.0,0.0,0.0,0.0,0.0,0.0,0.0,0.0,-2.4359,-2.5364,-2.5588,-2.5385,-2.4727,-2.49,-2.4554,0.0,0.0,0.0,0.0,0.0,0.0,0.0,0.0,0.0,0.0,0.0,0.0,0.0,0.0,0.0,0.0,0.0,0.0,0.0,0.0,0.0,0.0,0.0,0.0,0.0,0.0,0.0,0.0,0.0,0.0,0.0,0.0,0.0,0.0,0.0,0.0,0.0,0.0,0.0,0.0,0.0,0.0,0.0,0.0,0.0,0.0,0.0,0.0,0.0,0.0,0.0,0.0,0.0,0.0,0.0,0.0,0.0,0.0,0.0,0.0,0.0,0.0,0.0,0.0,0.0,0.0,0.0,0.0,0.0,0.0,0.0,0.0,0.0,0.0,0.0,0.0,0.0,0.0,0.0,0.0,0.0,0.0,0.0,0.0,0.0,0.0,0.0,0.0,0.0,0.0,0.0,0.0,0.0,0.0,0.0,0.0,0.0,0.0,0.0,0.0,0.0,0.0,0.0,0.0,0.0,0.0,0.0,0.0,-2.4319,-2.4667,-2.5243,-2.4869,-2.3512,-2.3716,-2.3801,0.0,0.0,0.0,0.0,0.0,0.0,0.0,0.0,0.0,0.0,0.0,0.0,0.0,0.0,0.0,0.0,0.0,0.0,0.0,0.0,0.0,0.0,0.0,0.0,0.0,0.0,0.0,0.0,0.0,0.0,0.0,0.0,0.0,0.0,0.0,0.0,0.0,0.0,0.0,0.0,0.0,0.0,0.0,0.0,0.0,0.0,0.0,0.0,0.0,0.0,0.0,0.0,0.0,0.0,0.0,0.0,0.0,0.0,0.0,0.0,0.0,0.0,0.0,0.0,0.0,0.0,0.0,0.0,0.0,0.0,0.0,0.0,0.0,0.0,0.0,0.0,0.0,0.0,0.0,0.0,0.0,0.0,0.0,0.0,0.0,0.0,0.0,0.0,0.0,0.0,0.0,0.0,0.0,0.0,0.0,0.0,0.0,0.0,0.0,0.0,0.0,0.0,0.0,0.0,0.0,0.0,0.0,0.0,-2.4186,-2.3882,-2.439,-2.3973,-2.2472,-2.3232,-2.3255,0.0,0.0,0.0,0.0,0.0,0.0,0.0,0.0,0.0,0.0,0.0,0.0,0.0,0.0,0.0,0.0,0.0,0.0,0.0,0.0,0.0,0.0,0.0,0.0,0.0,0.0,0.0,0.0,0.0,0.0,0.0,0.0,0.0,0.0,0.0,0.0,0.0,0.0,0.0,0.0,0.0,0.0,0.0,0.0,0.0,0.0,0.0,0.0,-2.7739,0.0,0.0,0.0,0.0,0.0,0.0,0.0,0.0,0.0,0.0,0.0,0.0,0.0,0.0,0.0,0.0,0.0,0.0,0.0,0.0,0.0,0.0,0.0,0.0,0.0,0.0,0.0,0.0,0.0,0.0,0.0,0.0,0.0,0.0,0.0,0.0,0.0,0.0,0.0,0.0,0.0,0.0,0.0,0.0,0.0,0.0,0.0,0.0,0.0,0.0,0.0,0.0,0.0,0.0,0.0,0.0,0.0,0.0,0.0,-2.3566,-2.3072,-2.316,-2.285,-2.2096,-2.2203,-2.213,0.0,0.0,0.0,0.0,0.0,0.0,0.0,0.0,0.0,0.0,0.0,0.0,0.0,0.0,0.0,0.0,0.0,0.0,0.0,0.0,0.0,0.0,0.0,0.0,0.0,0.0,0.0,0.0,0.0,0.0,0.0,0.0,0.0,0.0,0.0,0.0,0.0,0.0,0.0,0.0,0.0,0.0,0.0,0.0,0.0,0.0,0.0,0.0,0.0,0.0,0.0,0.0,0.0,0.0,0.0,0.0,0.0,0.0,0.0,0.0,0.0,0.0,0.0,0.0,0.0,0.0,0.0,0.0,0.0,0.0,0.0,0.0,0.0,0.0,0.0,0.0,0.0,0.0,0.0,0.0,0.0,0.0,0.0,0.0,0.0,0.0,0.0,0.0,0.0,0.0,0.0,0.0,0.0,0.0,0.0,0.0,0.0,0.0,0.0,0.0,0.0,0.0,0.0,0.0,0.0,0.0,0.0,-2.2797,-2.2885,-2.224,-2.1991,-2.1858,-2.1795,-2.1139,-2.1059,-2.1615,0.0,0.0,0.0,0.0,0.0,0.0,0.0,0.0,0.0,0.0,0.0,0.0,0.0,0.0,0.0,0.0,0.0,0.0,0.0,0.0,0.0,0.0,0.0,0.0,0.0,0.0,0.0,0.0,0.0,0.0,0.0,0.0,0.0,0.0,0.0,0.0,0.0,0.0,-2.4012,-2.6097,0.0,0.0,0.0,0.0,0.0,0.0,0.0,0.0,-3.1969,0.0,0.0,0.0,0.0,0.0,0.0,0.0,0.0,0.0,0.0,0.0,0.0,0.0,0.0,0.0,0.0,0.0,0.0,0.0,0.0,0.0,0.0,0.0,0.0,0.0,0.0,0.0,0.0,0.0,0.0,0.0,0.0,0.0,0.0,0.0,0.0,0.0,0.0,0.0,0.0,0.0,0.0,0.0,0.0,0.0,0.0,0.0,0.0,0.0,0.0,0.0,0.0,0.0,0.0,0.0,0.0,-2.2088,-2.2867,-2.2683,-2.143,-2.1664,-2.1521,-2.0859,-2.0755,-2.0933,-2.1323,0.0,0.0,0.0,0.0,0.0,0.0,0.0,0.0,0.0,0.0,0.0,0.0,0.0,0.0,0.0,0.0,0.0,0.0,0.0,0.0,0.0,0.0,0.0,0.0,0.0,0.0,0.0,0.0,0.0,0.0,0.0,0.0,0.0,0.0,0.0,0.0,0.0,0.0,0.0,-2.873,-3.0586,0.0,0.0,0.0,0.0,0.0,0.0,0.0,0.0,-3.275,0.0,0.0,0.0,0.0,0.0,0.0,0.0,0.0,0.0,0.0,0.0,0.0,0.0,0.0,0.0,0.0,0.0,0.0,0.0,0.0,0.0,0.0,0.0,0.0,0.0,0.0,0.0,0.0,0.0,0.0,0.0,0.0,0.0,0.0,0.0,0.0,0.0,0.0,0.0,0.0,0.0,0.0,0.0,0.0,0.0,0.0,0.0,0.0,0.0,0.0,0.0,0.0,0.0,0.0,0.0,-2.153,-2.2267,-2.1983,-2.0642,-2.0595,-2.0652,-2.0682,-2.044,-2.0677,0.0,0.0,0.0,0.0,0.0,0.0,0.0,0.0,0.0,0.0,0.0,0.0,0.0,0.0,0.0,0.0,0.0,0.0,0.0,0.0,0.0,0.0,0.0,0.0,0.0,0.0,0.0,0.0,0.0,0.0,0.0,0.0,0.0,0.0,0.0,0.0,0.0,0.0,0.0,0.0,-3.013,-3.2,-3.3299,0.0,0.0,0.0,0.0,0.0,0.0,-3.4735,-3.4831,0.0,0.0,0.0,0.0,0.0,0.0,0.0,0.0,0.0,0.0,0.0,0.0,0.0,0.0,0.0,0.0,0.0,0.0,0.0,0.0,0.0,0.0,0.0,0.0,0.0,0.0,0.0,0.0,0.0,0.0,0.0,0.0,0.0,0.0,0.0,0.0,0.0,0.0,0.0,0.0,0.0,0.0,0.0,0.0,0.0,0.0,0.0,0.0,0.0,0.0,0.0,0.0,0.0,0.0,0.0,-2.0988,-2.1718,-2.1439,-2.0091,-1.9704,-1.997,-2.0838,-2.0344,-2.0617,0.0,0.0,0.0,0.0,0.0,0.0,0.0,0.0,0.0,0.0,0.0,0.0,0.0,0.0,0.0,0.0,0.0,0.0,0.0,0.0,0.0,0.0,0.0,0.0,0.0,0.0,0.0,0.0,0.0,0.0,0.0,0.0,0.0,0.0,0.0,0.0,0.0,0.0,0.0,0.0,0.0,-3.3064,-3.4526,-3.4876,0.0,0.0,0.0,0.0,-3.5283,-3.6203,0.0,0.0,0.0,0.0,0.0,0.0,0.0,0.0,0.0,0.0,0.0,0.0,0.0,0.0,0.0,0.0,0.0,0.0,0.0,0.0,0.0,0.0,0.0,0.0,0.0,0.0,0.0,0.0,0.0,0.0,0.0,0.0,0.0,0.0,0.0,0.0,0.0,0.0,0.0,0.0,0.0,0.0,0.0,0.0,0.0,0.0,0.0,0.0,0.0,0.0,0.0,0.0,0.0,0.0,0.0,0.0,-2.1134,-2.1806,-2.15,-2.0162,-1.9813,-2.0172,-2.1205,-2.0774,-2.1094,0.0,0.0,0.0,0.0,0.0,0.0,0.0,0.0,0.0,0.0,0.0,0.0,0.0,0.0,0.0,0.0,0.0,0.0,0.0,0.0,0.0,0.0,0.0,0.0,0.0,0.0,0.0,0.0,0.0,0.0,0.0,0.0,0.0,0.0,0.0,0.0,0.0,0.0,0.0,0.0,0.0,-3.4318,-3.6226,-3.7155,-3.7588,0.0,0.0,-3.7106,-3.6873,-3.6199,0.0,0.0,0.0,0.0,0.0,0.0,0.0,0.0,0.0,0.0,0.0,0.0,0.0,0.0,0.0,0.0,0.0,0.0,0.0,0.0,0.0,0.0,0.0,0.0,0.0,0.0,0.0,0.0,0.0,0.0,0.0,0.0,0.0,0.0,0.0,0.0,0.0,0.0,0.0,0.0,0.0,0.0,0.0,0.0,0.0,0.0,0.0,0.0,0.0,0.0,0.0,0.0,0.0,0.0,0.0,-2.1476,-2.1342,-2.153,-2.1161,-2.0236,-1.9998,-2.0441,-2.1662,-2.1279,-2.1633,0.0,0.0,0.0,0.0,0.0,0.0,0.0,0.0,0.0,0.0,0.0,0.0,0.0,0.0,0.0,0.0,0.0,0.0,0.0,0.0,0.0,0.0,0.0,0.0,0.0,0.0,0.0,0.0,0.0,0.0,0.0,0.0,0.0,0.0,0.0,0.0,0.0,0.0,0.0,0.0,0.0,0.0,-3.7323,-3.8273,0.0,0.0,0.0,-3.7901,-3.7604,0.0,0.0,0.0,0.0,0.0,0.0,0.0,0.0,0.0,0.0,0.0,0.0,0.0,0.0,0.0,0.0,0.0,0.0,0.0,0.0,0.0,0.0,0.0,0.0,0.0,0.0,0.0,0.0,0.0,0.0,0.0,0.0,0.0,0.0,0.0,0.0,0.0,0.0,0.0,0.0,0.0,0.0,0.0,0.0,0.0,0.0,0.0,0.0,0.0,0.0,0.0,0.0,0.0,0.0,0.0,0.0,0.0,-2.1572,-2.133,-2.0935,-2.035,-2.0363,-2.0948,-2.2077,-2.198,0.0,0.0,0.0,0.0,0.0,0.0,0.0,0.0,0.0,0.0,0.0,0.0,0.0,0.0,0.0,0.0,0.0,0.0,0.0,0.0,0.0,0.0,0.0,0.0,0.0,0.0,0.0,-2.508,0.0,0.0,0.0,0.0,0.0,0.0,0.0,0.0,0.0,0.0,0.0,0.0,0.0,0.0,-3.6446,-3.828,-3.9146,-3.9502,0.0,0.0,-3.8525,-3.817,-3.7429,-3.6503,0.0,0.0,0.0,0.0,0.0,0.0,0.0,0.0,0.0,0.0,0.0,0.0,0.0,0.0,0.0,0.0,0.0,0.0,0.0,0.0,0.0,0.0,0.0,0.0,0.0,0.0,0.0,0.0,0.0,0.0,0.0,0.0,0.0,0.0,0.0,0.0,0.0,0.0,0.0,0.0,0.0,0.0,0.0,0.0,0.0,0.0,0.0,0.0,0.0,0.0,0.0,0.0,0.0,0.0,0.0,-2.1788,-2.1451,-2.1,-2.0438,-2.1118,-2.1813,-2.2437,-2.2999,-2.3417,0.0,0.0,0.0,0.0,0.0,0.0,0.0,0.0,0.0,0.0,0.0,0.0,0.0,0.0,0.0,0.0,0.0,0.0,0.0,0.0,0.0,0.0,0.0,0.0,0.0,0.0,0.0,0.0,0.0,0.0,0.0,0.0,0.0,0.0,0.0,0.0,0.0,0.0,0.0,0.0,0.0,-3.7441,-3.9175,-3.9994,-4.0292,0.0,0.0,-3.9238,-3.8726,-3.6947,-3.539,-3.4638,0.0,0.0,0.0,0.0,0.0,0.0,0.0,0.0,0.0,0.0,0.0,0.0,0.0,0.0,0.0,0.0,0.0,0.0,0.0,0.0,0.0,0.0,0.0,0.0,0.0,0.0,0.0,0.0,0.0,0.0,0.0,0.0,0.0,0.0,0.0,0.0,0.0,0.0,0.0,0.0,0.0,0.0,0.0,0.0,0.0,0.0,0.0,0.0,0.0,0.0,0.0,0.0,0.0,-2.233,-2.2054,-2.1668,-2.1136,-2.0526,-2.1294,-2.2032,-2.2732,-2.325,-2.338,0.0,0.0,0.0,0.0,0.0,0.0,0.0,0.0,0.0,0.0,0.0,0.0,0.0,0.0,0.0,0.0,0.0,0.0,0.0,0.0,0.0,0.0,0.0,0.0,0.0,0.0,0.0,0.0,-2.5485,-2.5558,-2.5613,0.0,0.0,0.0,0.0,0.0,0.0,0.0,0.0,0.0,0.0,-3.7357,-3.8474,-3.9618,0.0,0.0,-3.9402,-3.8924,-3.8355,-3.6458,-3.4818,-3.4112,-3.2815,0.0,0.0,0.0,0.0,0.0,0.0,0.0,0.0,0.0,0.0,0.0,0.0,0.0,0.0,0.0,0.0,0.0,0.0,0.0,0.0,0.0,0.0,0.0,0.0,0.0,0.0,0.0,0.0,0.0,0.0,0.0,0.0,0.0,0.0,0.0,0.0,0.0,0.0,0.0,0.0,0.0,0.0,0.0,0.0,0.0,0.0,0.0,0.0,0.0,0.0,0.0,0.0,-2.2782,-2.2318,-2.1862,-2.126,-2.0507,-2.134,-2.2042,-2.253,-2.3015,-2.2899,0.0,0.0,0.0,0.0,0.0,0.0,0.0,0.0,0.0,0.0,0.0,0.0,0.0,0.0,0.0,0.0,0.0,0.0,0.0,0.0,0.0,0.0,0.0,0.0,0.0,0.0,0.0,0.0,-2.5799,-2.5984,-2.5998,0.0,0.0,0.0,0.0,0.0,0.0,0.0,0.0,0.0,0.0,-3.7222,-3.7962,-3.9089,-3.9719,-3.9274,-3.8995,-3.8633,-3.7995,-3.6239,-3.4673,-3.4011,0.0,0.0,0.0,0.0,0.0,0.0,0.0,0.0,0.0,0.0,0.0,0.0,0.0,0.0,0.0,0.0,0.0,0.0,0.0,0.0,0.0,0.0,0.0,0.0,0.0,0.0,0.0,0.0,0.0,0.0,0.0,0.0,0.0,0.0,0.0,0.0,0.0,0.0,0.0,0.0,0.0,0.0,0.0,0.0,0.0,0.0,0.0,0.0,0.0,0.0,0.0,0.0,0.0,-2.3198,-2.2594,-2.2039,-2.1308,-2.056,-2.1346,-2.1774,-2.1757,-2.2191,-2.2017,-2.1094,0.0,0.0,0.0,0.0,0.0,0.0,0.0,0.0,0.0,0.0,0.0,0.0,0.0,0.0,0.0,0.0,0.0,0.0,0.0,0.0,0.0,0.0,0.0,0.0,0.0,0.0,-2.5625,-2.6359,-2.6851,0.0,0.0,0.0,0.0,0.0,0.0,0.0,0.0,0.0,0.0,-3.643,-3.7153,-3.7789,-3.8433,-3.8641,-3.8141,-3.8396,-3.8449,-3.7756,-3.633,-3.5036,0.0,0.0,0.0,0.0,0.0,0.0,0.0,0.0,0.0,0.0,0.0,0.0,0.0,0.0,0.0,0.0,0.0,0.0,0.0,0.0,0.0,0.0,0.0,0.0,0.0,0.0,0.0,-2.9485,-2.8878,0.0,0.0,0.0,0.0,0.0,0.0,0.0,0.0,0.0,0.0,0.0,-2.9123,-2.8894,0.0,0.0,0.0,0.0,0.0,0.0,0.0,0.0,0.0,0.0,0.0,0.0,-2.4033,-2.2854,-2.2634,-2.1918,-2.0639,-2.1367,-2.1762,-2.1699,-2.1987,-2.093,-1.8373,0.0,0.0,0.0,0.0,0.0,0.0,0.0,0.0,0.0,0.0,0.0,0.0,0.0,0.0,0.0,0.0,0.0,0.0,0.0,0.0,0.0,0.0,0.0,0.0,0.0,-2.5765,0.0,0.0,0.0,0.0,0.0,0.0,0.0,0.0,0.0,0.0,0.0,-3.5597,-3.6363,-3.7073,-3.7332,-3.6845,-3.728,-3.7679,0.0,0.0,0.0,0.0,0.0,0.0,0.0,0.0,0.0,0.0,0.0,0.0,0.0,0.0,-3.4286,-3.4328,-3.3675,-3.2942,-3.2508,0.0,0.0,0.0,0.0,0.0,0.0,0.0,0.0,0.0,0.0,0.0,0.0,0.0,0.0,0.0,0.0,-2.9818,0.0,0.0,0.0,0.0,0.0,0.0,0.0,0.0,-2.9854,-2.9841,-2.958,-2.9287,-2.9159,0.0,-2.8739,-2.8495,0.0,0.0,0.0,0.0,0.0,0.0,0.0,0.0,-2.4521,-2.3008,-2.2997,-2.2246,-2.0699,-2.1094,-2.129,-2.1167,-2.0589,-1.896,-1.6187,-1.4653,-1.3705,0.0,0.0,0.0,0.0,0.0,0.0,0.0,0.0,0.0,0.0,0.0,0.0,0.0,0.0,0.0,0.0,0.0,0.0,0.0,0.0,0.0,0.0,0.0,-2.6087,0.0,0.0,0.0,0.0,0.0,0.0,0.0,0.0,0.0,-3.5612,-3.5924,-3.6222,-3.6679,-3.706,-3.6886,-3.578,0.0,0.0,0.0,0.0,0.0,0.0,0.0,-3.3863,-3.2595,-3.2418,-3.245,-3.2254,-3.2819,-3.3366,-3.3471,0.0,0.0,-3.39,-3.3236,-3.2482,-3.196,-3.1675,-3.1471,-3.142,-3.1573,-3.165,0.0,0.0,0.0,0.0,0.0,0.0,0.0,0.0,-3.3106,-3.3118,0.0,-3.2249,0.0,0.0,0.0,0.0,0.0,0.0,0.0,0.0,-2.9813,-2.9473,-2.9124,-2.8737,-2.8646,-2.8724,-2.8864,-2.9045,-2.9194,-2.8172,0.0,0.0,0.0,0.0,0.0,0.0,-2.467,-2.3054,-2.3078,-2.2281,-2.0664,-2.0545,-2.0394,-2.0127,-1.8127,-1.6265,-1.4628,-1.3353,-1.2366,-1.1651,-1.1395,0.0,0.0,0.0,0.0,0.0,0.0,0.0,0.0,0.0,0.0,0.0,0.0,0.0,0.0,0.0,0.0,0.0,0.0,0.0,0.0,-2.6125,0.0,0.0,0.0,0.0,0.0,0.0,0.0,0.0,0.0,0.0,-3.5502,-3.6226,-3.6664,-3.6584,0.0,0.0,0.0,0.0,-3.5266,-3.4783,-3.5123,-3.5184,-3.4469,-3.3774,-3.3033,-3.2158,0.0,0.0,-3.2103,-3.2321,-3.2478,-3.2524,-3.2462,-3.2741,-3.33,-3.3212,-3.2876,-3.2268,-3.1921,-3.1804,-3.169,-3.1663,-3.1579,-3.4367,0.0,0.0,0.0,0.0,-3.3322,-3.3667,-3.3762,-3.3851,-3.3566,-3.3026,-3.2264,0.0,0.0,0.0,0.0,0.0,0.0,-3.0086,-3.01,-2.9115,-2.8445,-2.8092,-2.7245,-2.6838,-2.6796,-2.7014,-2.724,-2.7468,-2.7351,-2.7287,-2.7306,0.0,0.0,0.0,0.0,-2.4672,-2.3116,-2.3001,-2.2222,-2.0561,-2.051,-2.0028,-1.907,-1.7357,-1.5551,-1.3663,-1.2564,-1.1384,-1.015,-1.0092,0.0,0.0,0.0,0.0,0.0,0.0,0.0,0.0,0.0,0.0,0.0,0.0,0.0,0.0,0.0,0.0,0.0,0.0,0.0,-2.5876,-2.6619,-2.7314,0.0,0.0,0.0,0.0,0.0,0.0,0.0,0.0,0.0,-3.5829,-3.622,-3.6372,0.0,0.0,-3.5465,-3.4391,-3.4234,-3.4238,-3.4253,0.0,0.0,0.0,-3.3141,-3.2552,-3.1248,-3.0887,-3.0698,-3.067,-3.0685,-3.0723,-3.0723,-3.0739,-3.0777,-3.0785,-3.1518,-3.1764,-3.1027,-3.0936,-3.091,-3.0381,-3.0508,-3.0608,-3.3728,-3.3082,-3.3537,-3.3535,-3.328,-3.392,-3.408,-3.3869,-3.4007,-3.3654,-3.2906,-3.2143,-3.1526,-3.1009,-3.0723,0.0,0.0,0.0,-2.9941,-2.9368,-2.8464,-2.7703,-2.7077,-2.6321,-2.5953,-2.5953,-2.611,-2.6299,-2.6557,-2.6488,-2.6568,-2.675,0.0,0.0,-2.5297,-2.5331,-2.4558,-2.3002,-2.2955,-2.2154,-2.0543,-2.0288,-1.9611,-1.8419,-1.677,-1.4929,-1.2922,-1.1701,-1.0356,-0.8897,-0.8726,-0.8429,0.0,0.0,0.0,0.0,0.0,0.0,0.0,0.0,0.0,0.0,0.0,-2.2962,0.0,0.0,0.0,0.0,-2.6115,-2.6034,-2.6396,-2.7159,0.0,0.0,0.0,0.0,0.0,0.0,0.0,-3.4037,-3.4471,-3.4942,-3.5327,-3.5428,-3.5545,-3.588,-3.5739,-3.5181,-3.4083,0.0,-3.3042,-3.2991,-3.2453,-3.1847,-3.1319,-3.1053,-3.0658,-2.9846,-2.9456,-2.9346,-2.9433,-2.9411,-2.9426,-2.9358,-2.9358,-2.932,-2.9068,-2.9863,-3.0345,-2.9706,-2.9682,-2.9668,-2.9189,-2.949,-2.9637,-3.2529,-3.2679,-3.358,-3.4022,-3.4199,-3.4395,-3.4089,-3.3506,-3.3699,-3.3383,-3.2628,-3.1903,-3.1526,-3.1337,-3.0552,0.0,0.0,-2.9851,-2.9223,-2.8252,-2.7805,-2.7061,-2.6113,-2.5714,-2.5547,-2.5579,-2.5727,-2.5894,-2.6041,-2.5603,-2.5354,-2.5373,-2.5721,-2.5615,-2.508,-2.506,-2.4301,-2.2808,-2.2774,-2.2045,-2.0526,-1.995,-1.9151,-1.8056,-1.6257,-1.4339,-1.2291,-1.0765,-0.9281,-0.7835,-0.7372,-0.6961,-0.6475,0.0,0.0,0.0,0.0,0.0,0.0,0.0,0.0,0.0,0.0,0.0,0.0,0.0,0.0,0.0,-2.6916,0.0,-2.6954,-2.7734,0.0,0.0,0.0,-3.1595,-3.3177,-3.3426,-3.3708,-3.4373,0.0,0.0,-3.4106,0.0,-3.4247,-3.5212,-3.5231,-3.4755,-3.3625,-3.2591,-3.1775,-3.1267,-3.0328,-2.9506,-2.9107,-2.8522,-2.8146,-2.814,-2.7871,-2.7836,-2.8195,-2.8293,-2.8271,-2.8107,-2.8114,-2.8047,-2.7942,-2.81,-2.8376,-2.8233,-2.8367,-2.8397,-2.8225,-2.8477,-2.8521,-3.1703,-3.1721,-3.1955,-3.2151,-3.2252,-3.2471,-3.2491,-3.2409,-3.2708,-3.2076,-3.0772,-3.0676,-2.9932,-2.8722,-2.8449,-2.8293,-2.8166,-2.7949,-2.7681,-2.7286,-2.6393,-2.5743,-2.5266,-2.4436,-2.3963,-2.3892,-2.3963,-2.4057,-2.4167,-2.4133,-2.413,-2.4114,-2.3675,-2.3835,-2.4576,-2.4138,-2.3436,-2.2514,-2.2057,-2.134,-2.0371,-1.9716,-1.8805,-1.7587,-1.5568,-1.3503,-1.1389,-0.9682,-0.8089,-0.6619,-0.6167,-0.576,-0.5336,-0.5496,0.0,0.0,0.0,0.0,0.0,0.0,0.0,0.0,0.0,-2.2627,-2.4646,0.0,-2.6454,0.0,-2.7191,-2.7281,-2.7309,-2.8547,0.0,0.0,-3.1262,-3.2354,-3.2882,-3.3013,-3.3111,-3.3202,-3.2701,-3.227,-3.2175,-3.2004,-3.1983,-3.2243,-3.269,-3.2657,-3.1645,-3.1029,-3.0521,-3.0101,-2.9523,-2.9104,-2.8473,-2.7778,-2.7008,-2.6719,-2.6441,-2.6314,-2.6288,-2.6221,-2.6158,-2.6109,-2.5977,-2.583,-2.5625,-2.5561,-2.5457,-2.5379,-2.68,-2.7954,-2.6997,-2.7093,-2.7091,-3.0118,-2.9751,-2.9402,-2.9301,-2.9484,-3.1125,-3.1421,-3.0818,-3.1147,-3.0389,-2.8908,-2.9044,-2.8574,-2.7675,-2.7559,-2.7457,-2.732,-2.718,-2.6632,-2.58,-2.5114,-2.4312,-2.3376,-2.2747,-2.2353,-2.2246,-2.2228,-2.2268,-2.2336,-2.2414,-2.2479,-2.2422,-2.2013,-2.2159,-2.2811,-2.2763,-2.236,-2.1696,-2.1168,-2.0623,-2.0035,-1.9301,-1.8232,-1.6792,-1.4599,-1.2463,-1.035,-0.8511,-0.6913,-0.5589,-0.5055,-0.4725,-0.4515,-0.4952,-0.5601,0.0,0.0,0.0,0.0,0.0,0.0,0.0,0.0,0.0,0.0,0.0,-2.6678,0.0,-2.752,0.0,-2.76,-2.8504,-2.9268,-2.9753,-3.0727,-3.1532,-3.195,-3.2095,-3.2102,-3.207,-3.1641,-3.1341,-3.129,-3.1109,-3.073,-3.0015,-3.0125,-3.0399,-3.0445,-2.9703,-2.8858,-2.8489,-2.7589,-2.6722,-2.6114,-2.5353,-2.4808,-2.4704,-2.4519,-2.4283,-2.4253,-2.4296,-2.4351,-2.4305,-2.4338,-2.4418,-2.4404,-2.4276,-2.4075,-2.4105,-2.4947,-2.5725,-2.5497,-2.5689,-2.5719,-2.8301,-2.7585,-2.6906,-2.6612,-2.6854,-2.9787,-3.0265,-2.8994,-2.9325,-2.8609,-2.7224,-2.7148,-2.7058,-2.7005,-2.676,-2.6575,-2.6478,-2.6393,-2.5485,-2.4007,-2.3823,-2.2919,-2.1383,-2.1164,-2.1015,-2.0872,-2.0785,-2.0785,-2.085,-2.0855,-2.0837,-2.0837,-2.0666,-2.0556,-2.0473,-2.086,-2.0915,-2.0625,-2.0191,-1.9848,-1.9564,-1.8663,-1.7406,-1.5716,-1.3431,-1.1228,-0.9139,-0.7209,-0.5651,-0.4625,-0.4095,-0.3846,-0.391,-0.4618,-0.5437,0.0,-0.7966,0.0,0.0,0.0,0.0,0.0,0.0,0.0,0.0,-2.5793,-2.6804,-2.7519,-2.7689,-2.7783,-2.7794,-2.8078,-2.8546,-2.9251,-2.9629,-3.0134,-3.0849,-3.0965,-3.0891,-3.0747,-3.0656,-3.0557,-3.026,-3.0233,-2.9547,-2.821,-2.7695,-2.7965,-2.9034,-2.8097,-2.6995,-2.6618,-2.5209,-2.4215,-2.3387,-2.2727,-2.2508,-2.2647,-2.2581,-2.2325,-2.2399,-2.2628,-2.2746,-2.2656,-2.279,-2.3084,-2.3449,-2.3242,-2.3032,-2.2903,-2.2886,-2.319,-2.394,-2.4333,-2.448,-2.6979,-2.6833,-2.6667,-2.6612,-2.6667,-2.7343,-2.7516,-2.73,-2.7457,-2.7086,-2.6275,-2.5015,-2.4382,-2.4271,-2.3512,-2.3124,-2.3052,-2.2924,-2.2658,-2.2258,-2.2081,-2.175,-2.1306,-2.1081,-2.0868,-2.0753,-2.0634,-2.057,-2.0593,-2.0593,-2.0535,-2.0477,-1.9803,-1.9132,-1.8547,0.0,0.0,0.0,-1.9462,-1.9221,-1.8874,-1.7726,-1.6183,-1.4242,-1.1978,0.0,-0.7405,-0.5741,-0.4381,-0.3282,-0.3018,0.0,0.0,0.0,0.0,0.0,0.0,0.0,0.0,0.0,0.0,0.0,-1.8201,-2.0359,-2.345,-2.5163,-2.6265,-2.6807,-2.7068,-2.7213,-2.7338,-2.8097,-2.8737,-2.8981,-2.9667,-3.0231,-3.0475,-3.0001,-2.9448,-2.89,-2.827,-2.7615,-2.709,-2.6746,-2.6544,-2.6171,-2.5747,-2.5576,-2.5687,-2.5442,-2.5084,-2.4738,-2.3951,-2.3296,-2.2896,-2.2315,-2.1849,-2.1909,-2.1628,-2.1465,-2.1369,-2.1249,-2.1154,-2.1069,-2.0881,-2.0712,-2.0507,-2.0238,-2.0348,-2.0444,-2.0514,-2.0975,-2.2649,-2.3217,-2.3334,-2.5786,0.0,-2.5419,-2.5419,0.0,-2.5459,-2.5259,-2.4984,-2.5931,-2.5785,-2.4718,-2.3465,-2.2877,-2.2834,-2.232,-2.2043,-2.1964,-2.1885,-2.1598,-2.1178,-2.0988,-2.0409,-1.947,-1.9279,-1.8869,-1.8298,-1.8194,-1.8108,-1.807,-1.8061,-1.8017,-1.7939,-1.7383,-1.692,-1.6524,-1.6008,-1.6394,-1.7625,-1.7851,-1.7666,-1.7028,-1.5934,-1.4339,-1.2184,0.0,0.0,0.0,0.0,0.0,0.0,0.0,0.0,0.0,0.0,0.0,-0.6529,-0.8025,-0.9592,-1.1107,-1.2502,-1.4148,-1.608,-1.7862,-1.9977,-2.2555,-2.4058,-2.4935,-2.5145,-2.5462,-2.589,-2.6358,-2.6992,-2.7528,-2.7952,-2.8146,-2.8268,-2.824,-2.7723,-2.7189,-2.6872,-2.6464,-2.6047,-2.5649,-2.55,-2.5162,-2.4694,-2.4402,-2.396,-2.3401,-2.359,-2.3586,-2.2814,-2.2262,-2.1787,-2.1466,-2.1066,-2.0692,-2.0448,-2.0177,-1.9966,-1.9886,-1.9902,-1.9894,-1.974,-1.969,-1.9619,-1.9338,-1.9158,-1.9081,-1.9157,-1.9201,-1.9486,-2.0622,-2.1485,-2.218,-2.4795,-2.419,-2.4005,-2.395,-2.395,-2.3841,-2.34,-2.2905,0.0,0.0,0.0,-2.2279,-2.1842,-2.1835,-2.1628,-2.1459,-2.1357,-2.1215,-2.0743,-2.0034,-1.9736,-1.8822,-1.738,-1.7188,-1.6636,-1.5772,-1.5639,-1.5561,-1.5522,-1.5439,-1.5358,-1.5259,-1.5075,-1.4838,-1.4539,-1.4215,-1.434,-1.4959,-1.5778,-1.5745,-1.4853,-1.3727,-1.2068,-0.982,-0.8618,-0.6543,-0.359,-0.2425,-0.167,-0.134,-0.1398,-0.19,-0.2794,-0.3956,-0.5164,-0.648,-0.7919,-0.9332,-1.0813,-1.211,-1.3676,-1.5542,-1.7705,-1.9763,-2.1624,-2.2802,-2.3438,-2.3481,-2.3885,-2.4493,-2.524,-2.5595,-2.5959,-2.6607,-2.6216,-2.5974,-2.5969,-2.5564,-2.5282,-2.51,-2.5083,-2.4968,-2.4766,-2.4639,-2.4333,-2.3579,-2.3243,-2.2748,-2.1983,-2.2219,-2.2227,-2.1279,-2.0852,-2.035,-1.997,-1.9677,-1.931,-1.9165,-1.8879,-1.8577,-1.8467,-1.8616,-1.8727,-1.8559,-1.8762,-1.8729,-1.8616,-1.8442,-1.8422,-1.8388,-1.8413,-1.8485,-1.8791,-1.9798,-2.0756,-2.4205,-2.4058,-2.3306,-2.3032,-2.3033,-2.2337,-2.2007,-2.1986,-2.2308,-2.2354,-2.216,-2.1291,-2.0886,-2.0834,-2.0043,-1.9669,-1.9599,-1.8864,-1.8422,0.0,-1.7415,-1.6808,-1.6395,-1.6148,-1.5854,-1.5536,-1.5358,-1.5234,-1.5171,-1.5091,-1.4984,-1.4776,-1.4574,-1.3884,-1.279,-1.2003,-1.1485,-1.1299,-1.3191,-1.3839,-1.3067,-1.1252,-0.9323,-0.7361,-0.5368,-0.3469,-0.1486,-0.0828,-0.0378,-0.0224,-0.0729,-0.1456,-0.2464,-0.3624,-0.4835,-0.6204,-0.7587,-0.9006,-1.0407,-1.1607,-1.3236,-1.5256,-1.6806,-1.8591,-2.0651,-2.157,-2.2263,-2.2925,-2.3367,-2.3869,-2.4247,-2.4582,-2.4819,-2.4968,-2.4992,-2.5013,-2.5067,-2.4942,-2.4672,-2.4157,-2.4088,-2.3757,-2.3155,-2.2963,-2.2835,-2.236,-2.2178,-2.1763,-2.1199,-2.107,-2.1021,-2.0646,-2.0273,-1.994,-1.953,-1.9147,-1.886,-1.863,-1.8305,-1.8068,-1.7922,-1.7814,-1.7757,-1.7468,-1.7457,-1.7355,-1.7153,-1.7033,-1.72,-1.7478,-1.7579,-1.7738,-1.8198,-1.8657,-1.8986,-2.2776,-2.2702,-2.23,-2.2154,-2.2118,-2.1333,-2.0986,-2.0931,-2.0561,-2.0698,-2.1021,-1.9844,-1.9291,-1.9203,-1.8342,-1.7914,-1.7851,-1.74,-1.7142,-1.7062,-1.6526,-1.5955,-1.5401,-1.5138,-1.4677,-1.406,-1.3835,-1.3674,-1.3567,-1.3389,-1.3202,-1.3012,-1.2598,-1.1841,-1.0861,-1.0234,-0.9639,-0.9132,-1.0935,-1.1374,-1.0279,-0.8763,-0.6939,-0.4764,-0.2773,-0.1101,0.029,0.0907,0.1039,0.0636,-0.0108,-0.1035,-0.2179,-0.3314,-0.4618,-0.5982,-0.7272,-0.8593,-1.0012,-1.1765,-1.3369,-1.4789,-1.5903,-1.7155,-1.8685,-1.9938,-2.0902,-2.1377,-2.1949,-2.2622,-2.337,-2.3687,-2.4005,-2.4503,-2.4245,-2.4066,-2.4028,-2.3727,-2.3386,-2.3095,-2.3027,-2.2835,-2.2293,-2.2175,-2.2032,-2.1781,-2.1432,-2.0958,-2.0478,-2.0224,-2.0104,-2.005,-1.9767,-1.9406,-1.9035,-1.8707,-1.8397,-1.8108,-1.7841,-1.7585,-1.7352,-1.7186,-1.7073,-1.682,-1.6693,-1.662,-1.6461,-1.6417,-1.6542,-1.6635,-1.6759,-1.694,-1.716,-1.721,-1.7592,-2.1644,-2.1571,-2.1352,-2.1189,-2.0989,-2.0368,-2.0043,-1.9919,-1.9175,-1.9206,-1.9634,-1.8538,-1.7969,-1.7716,-1.7042,-1.6693,-1.6601,-1.6299,-1.6116,-1.6018,-1.5643,-1.5072,-1.4401,-1.4119,-1.3526,-1.2716,-1.2439,-1.2225,-1.2056,-1.1788,-1.1483,-1.1113,-1.0518,-0.9836,-0.9118,-0.8642,-0.8084,-0.7578,-0.8503,-0.8596,-0.7667,-0.6435,-0.4702,-0.2592,-0.0837,0.0618,0.1633,0.2173,0.2078,0.1311,0.0466,-0.0578,-0.1947,-0.3011,-0.4244,-0.5579,-0.6739,-0.8074,-0.9694,-1.163,-1.3182,-1.4168,-1.505,-1.6008,-1.7031,-1.8453,-1.9604,-2.0076,-2.0777,-2.1583,-2.245,-2.2842,-2.3287,-2.3883,-2.3494,-2.3173,-2.3088,-2.2677,-2.2338,-2.2265,-2.2209,-2.2123,-2.1899,-2.1751,-2.157,-2.1309,-2.0811,-2.0326,-1.9945,-1.9515,-1.9295,-1.9221,-1.9109,-1.8793,-1.8436,-1.8121,-1.7801,-1.7516,-1.7256,-1.7018,-1.6778,-1.6693,-1.6565,-1.6349,-1.6275,-1.6231,-1.6156,-1.6113,-1.6113,-1.6162,-1.6174,-1.6149,-1.6198,-1.6186,-1.6478,-2.1553,-2.1388,-2.0644,-1.9939,-1.9412,-1.9246,-1.9176,-1.9001,-1.8262,-1.7872,-1.7858,-1.788,-1.7454,-1.6845,-1.6589,-1.6404,-1.6272,-1.5528,-1.5066,-1.4846,-1.3973,-1.3497,-1.3421,-1.2962,-1.2558,-1.2174,-1.1946,-1.163,-1.1281,-1.1024,-1.0524,-0.9793,-0.9071,-0.8451,-0.7929,-0.7252,-0.6623,-0.6083,-0.549,-0.5466,-0.5894,-0.4393,-0.2808,-0.1317,0.0235,0.1444,0.2186,0.2348,0.2203,0.1804,0.0857,-0.0253,-0.1621,-0.2537,-0.3497,-0.4599,-0.5696,-0.7254,-0.9483,-1.0767,-1.1997,-1.3365,-1.4275,-1.5318,-1.6519,-1.7489,-1.8528,-1.963,-2.0481,-2.1183,-2.1746,-2.2049,-2.2308,-2.262,-2.2535,-2.2412,-2.2417,-2.2321,-2.2152,-2.2027,-2.1915,-2.1738,-2.1493,-2.1308,-2.1039,-2.0563,-2.0124,-1.9717,-1.9303,-1.8869,-1.8433,-1.8145,-1.8094,-1.8042,-1.7666,-1.7338,-1.7005,-1.6667,-1.6497,-1.6324,-1.6163,-1.6032,-1.6001,-1.5812,-1.5824,-1.578,-1.5792,-1.5836,-1.5792,-1.5736,-1.5736,-1.5804,-1.5836,-1.5691,-1.59,-2.0046,-1.9939,-1.9579,-1.9255,-1.8947,-1.8478,-1.8229,-1.809,-1.7271,-1.6565,-1.6042,-1.6056,-1.5928,-1.5653,-1.5068,-1.4728,-1.4598,-1.4125,-1.3854,-1.3646,-1.3115,-1.2815,-1.2616,-1.2251,-1.1873,-1.149,-1.1153,-1.0753,-1.0381,-1.0123,-0.9409,-0.8298,-0.7695,-0.7011,-0.6226,-0.5676,-0.5129,-0.4543,-0.3941,-0.3685,-0.3635,-0.2995,-0.1902,-0.0405,0.0747,0.1659,0.2338,0.2357,0.2147,0.1708,0.087,-0.0094,-0.1178,-0.2062,-0.3011,-0.4098,-0.5668,-0.7266,-0.8831,-0.987,-1.0939,-1.2223,-1.3127,-1.4281,-1.5706,-1.673,-1.7835,-1.9119,-2.0108,-2.0878,-2.1386,-2.1721,-2.194,-2.2073,-2.2101,-2.2118,-2.2077,-2.2032,-2.1945,-2.1797,-2.1617,-2.1402,-2.1071,-2.0663,-2.0208,-1.9752,-1.9325,-1.8954,-1.8549,-1.8108,-1.7612,-1.7133,-1.6938,-1.6866,-1.6811,-1.6612,-1.6269,-1.5976,-1.58,-1.5611,-1.54,-1.5355,-1.5311,-1.5175,-1.5175,-1.5175,-1.513,-1.513,-1.513,-1.5119,-1.504,-1.5062,-1.5051,-1.4903,-1.4892,-1.9066,-1.8894,-1.868,-1.8447,-1.8196,-1.7589,-1.7306,-1.7098,-1.627,-1.5485,-1.4795,-1.4452,-1.4298,-1.4262,-1.3714,-1.336,-1.3211,-1.3072,-1.2875,-1.2671,-1.2475,-1.222,-1.19,-1.1571,-1.1088,-1.0515,-1.013,-0.9665,-0.913,-0.8895,-0.8119,-0.6862,-0.6198,-0.5508,-0.4656,-0.417,-0.3645,-0.3174,-0.2783,-0.2457,-0.2134,-0.1875,-0.1171,0.0069,0.0846,0.153,0.214,0.2109,0.1929,0.1568,0.0836,0.0043,-0.0694,-0.162,-0.2649,-0.3877,-0.5448,-0.6848,-0.7908,-0.8959,-0.9992,-1.1154,-1.2213,-1.3429,-1.4764,-1.5866,-1.706,-1.837,-1.9396,-2.0215,-2.1087,-2.1464,-2.1721,-2.1853,-2.1866,-2.1853,-2.1764,-2.1735,-2.1601,-2.1402,-2.1087,-2.0811,-2.0361,-1.9808,-1.9266,-1.8907,-1.8496,-1.8092,-1.768,-1.716,-1.6685,-1.6201,-1.5676,-1.5644,-1.5996,-1.5776,-1.5433,-1.5152,-1.4926,-1.4789,-1.4571,-1.4536,-1.4536,-1.4398,-1.4387,-1.4387,-1.4398,-1.4387,-1.4329,-1.4329,-1.4247,-1.4165,-1.4165,-1.4014,-1.3862,-1.9164,-1.8839,-1.8089,-1.734,-1.661,-1.6506,-1.6389,-1.6219,-1.5278,-1.4727,-1.4346,-1.3509,-1.2944,-1.277,-1.2929,-1.2967,-1.2729,-1.2505,-1.2289,-1.2087,-1.1888,-1.1586,-1.1139,-1.0786,-1.0078,-0.9137,-0.8957,-0.8316,-0.729,-0.7262,-0.6622,-0.5378,-0.4502,-0.3892,-0.3412,-0.2834,-0.2328,-0.2034,-0.1934,-0.1799,-0.1482,-0.1016,-0.055,-0.0031,0.0524,0.1037,0.1411,0.1493,0.1488,0.1404,0.0748,0.0198,-0.0278,-0.1202,-0.2378,-0.3744,-0.4648,-0.5655,-0.6879,-0.7959,-0.9133,-1.0427,-1.1578,-1.2782,-1.3893,-1.4839,-1.6011,-1.7395,-1.8193,-1.9167,-2.0445,-2.1023,-2.1355,-2.1493,-2.1524,-2.1446,-2.1401,-2.1261,-2.1087,-2.0764,-2.0398,-1.9949,-1.9295,-1.8741,-1.8394,-1.8054,-1.7639,-1.7175,-1.6701,-1.6232,-1.5752,-1.5231,-1.4744,-1.456,-1.496,-1.4824,-1.4468,-1.4133,-1.3899,-1.3815,-1.3742,-1.3658,-1.361,-1.36,-1.3542,-1.3542,-1.36,-1.36,-1.3494,-1.3447,-1.3341,-1.3304,-1.315,-1.3102,-1.2899,-1.8174,-1.7431,-1.7082,-1.6713,-1.638,-1.5788,-1.5412,-1.5226,-1.4263,-1.3666,-1.3347,-1.2754,-1.2293,-1.1942,-1.177,-1.1818,-1.1974,-1.1785,-1.1549,-1.1246,-1.0978,-1.061,-1.0182,-0.9703,-0.9019,-0.8246,-0.7738,-0.6884,-0.5762,-0.592,-0.5217,-0.3561,-0.233,-0.1801,-0.1865,-0.1655,-0.1348,-0.111,-0.0999,-0.0836,-0.0615,-0.023,0.0055,0.0231,0.0585,0.0882,0.107,0.1106,0.1117,0.1069,0.0514,0.0075,-0.0263,-0.1214,-0.2221,-0.3198,-0.4115,-0.5047,-0.6109,-0.7166,-0.8284,-0.9433,-1.0481,-1.1688,-1.2996,-1.3974,-1.5011,-1.62,-1.6944,-1.7704,-1.8534,-1.9838,-2.0861,-2.0991,-2.0942,-2.0814,-2.0731,-2.0599,-2.0413,-2.0004,-1.9528,-1.8954,-1.8296,-1.7867,-1.7489,-1.7063,-1.6642,-1.6157,-1.572,-1.5174,-1.4675,-1.4111,-1.3558,-1.313,-1.2822,-1.3358,-1.3426,-1.3092,-1.2851,-1.2706,-1.2628,-1.2521,-1.2463,-1.2521,-1.2521,-1.2521,-1.2521,-1.2511,-1.2463,-1.2414,-1.2316,-1.2209,-1.2061,-1.1963,-1.1774,-1.7337,-1.6428,-1.6258,-1.5968,-1.5513,-1.4834,-1.438,-1.411,-1.3358,-1.2801,-1.2372,-1.1943,-1.1461,-1.0962,-1.0461,-1.0267,-1.0461,-1.0637,-1.062,-1.0268,-0.9894,-0.9445,-0.8947,-0.8382,-0.7701,-0.6904,-0.6005,-0.4971,-0.4008,-0.4028,-0.3269,-0.1824,-0.0609,-0.0207,-0.0492,-0.0459,-0.0299,-0.0093,0.0024,0.0169,0.0366,0.069,0.0903,0.0954,0.0992,0.0982,0.0973,0.0908,0.0841,0.0744,0.0349,-0.0,-0.0402,-0.1239,-0.208,-0.2772,-0.3644,-0.4543,-0.5475,-0.6536,-0.7621,-0.8723,-0.9688,-1.0838,-1.2157,-1.3007,-1.3962,-1.499,-1.5667,-1.6167,-1.6872,-1.8195,-1.9314,-1.9628,-1.9646,-1.9513,-1.9363,-1.9212,-1.8872,-1.8353,-1.7814,-1.7356,-1.6903,-1.6504,-1.6131,-1.5862,-1.5393,-1.49,-1.4596,-1.4029,-1.3464,-1.2938,-1.2346,-1.1805,-1.1449,-1.1589,-1.1944,-1.1697,-1.1706,-1.1575,-1.1525,-1.1366,-1.1366,-1.1434,-1.1434,-1.1434,-1.1425,-1.1375,-1.1316,-1.1266,-1.1166,-1.1065,-1.0922,-1.0771,-1.0618,-1.6649,-1.5863,-1.5685,-1.4966,-1.4034,-1.3636,-1.3244,-1.2799,-1.2395,-1.1877,-1.13,-1.0874,-1.0147,-0.9592,-0.9028,-0.8552,-0.8209,-0.8817,-0.9203,-0.9038,-0.8623,-0.8116,-0.7559,-0.6931,-0.6111,-0.5195,-0.3753,-0.2758,-0.2202,-0.1617,-0.0962,-0.0302,0.0572,0.0945,0.0648,0.0771,0.0896,0.1035,0.111,0.1204,0.1361,0.1789,0.2023,0.1974,0.1662,0.1365,0.1176,0.0942,0.074,0.0538,0.0337,-0.0069,-0.0611,-0.1198,-0.1778,-0.2452,-0.3184,-0.4052,-0.5024,-0.5991,-0.7062,-0.8206,-0.9275,-1.0254,-1.1195,-1.1952,-1.283,-1.3813,-1.4385,-1.4968,-1.5681,-1.6143,-1.676,-1.7434,-1.7696,-1.7596,-1.7403,-1.7112,-1.6656,-1.6155,-1.5779,-1.531,-1.489,-1.4649,-1.4451,-1.4309,-1.3894,-1.3446,-1.3242,-1.2773,-1.2209,-1.1657,-1.1099,-1.0551,-1.0151,-0.9843,-1.01,-1.0254,-1.0407,-1.0407,-1.0415,-1.0305,-1.0305,-1.0364,-1.0415,-1.0356,-1.0364,-1.0312,-1.0254,-1.0202,-1.0064,-0.9961,-0.9858,-0.9755,-0.9547,-1.5451,-1.482,-1.4774,-1.412,-1.3079,-1.2683,-1.197,-1.0923,-1.0418,-0.9962,-0.9454,-0.8849,-0.8166,-0.7605,-0.7489,-0.6777,-0.5606,-0.5709,-0.6248,-0.7004,-0.6705,-0.6529,-0.6403,-0.5829,-0.4664,-0.3179,-0.2008,-0.1222,-0.0628,0.0033,0.0614,0.1132,0.1914,0.2233,0.2041,0.2137,0.2239,0.2355,0.2373,0.2426,0.2468,0.2581,0.2642,0.2573,0.2389,0.2175,0.194,0.1377,0.0942,0.0673,0.0471,0.0135,-0.0412,-0.0862,-0.1353,-0.1941,-0.2694,-0.3589,-0.4616,-0.5573,-0.6607,-0.7825,-0.8827,-0.9718,-1.0562,-1.1234,-1.1904,-1.2625,-1.2986,-1.3405,-1.3753,-1.3919,-1.4721,-1.648,-1.6613,-1.639,-1.6088,-1.5684,-1.532,-1.4917,-1.4569,-1.4205,-1.3731,-1.3356,-1.3032,-1.2776,-1.2406,-1.203,-1.1695,-1.1265,-1.0797,-1.0195,-0.9688,-0.9266,-0.8797,-0.8429,-0.8423,-0.8797,-0.9006,-0.9273,-0.928,-0.9235,-0.9235,-0.9287,-0.928,-0.928,-0.9287,-0.9235,-0.9183,-0.9079,-0.8974,-0.8876,-0.883,-0.8666,-0.8448,-1.2666,-1.1906,-1.1197,-1.0163,-0.8951,-0.83,-0.7522,-0.677,-0.6671,-0.6536,-0.6278,-0.5815,-0.5183,-0.4577,-0.4448,-0.3741,-0.2613,-0.2221,-0.2524,-0.3508,-0.4202,-0.4264,-0.4251,-0.3497,-0.2463,-0.1155,-0.0331,0.0265,0.0795,0.1427,0.1988,0.2489,0.3047,0.3341,0.3353,0.3417,0.3473,0.36,0.3679,0.3664,0.3579,0.3514,0.3428,0.3322,0.3175,0.2933,0.2669,0.2139,0.1575,0.1107,0.0807,0.0403,-0.0067,-0.0505,-0.0941,-0.1424,-0.2146,-0.3027,-0.3982,-0.4887,-0.596,-0.7169,-0.8105,-0.8996,-0.9806,-1.0466,-1.0998,-1.1505,-1.1811,-1.2066,-1.2318,-1.2378,-1.3046,-1.4217,-1.4631,-1.4683,-1.4308,-1.3865,-1.3388,-1.3008,-1.2709,-1.2399,-1.1999,-1.1624,-1.1344,-1.107,-1.0685,-1.0346,-0.996,-0.9627,-0.9112,-0.8624,-0.8214,-0.7811,-0.7433,-0.7117,-0.6902,-0.7219,-0.7652,-0.7972,-0.8137,-0.8137,-0.8137,-0.8137,-0.8131,-0.8131,-0.8137,-0.8137,-0.809,-0.7984,-0.7877,-0.7765,-0.7658,-0.7379,-0.716,-0.8579,-0.751,-0.571,-0.4282,-0.2845,-0.1798,-0.1328,-0.1007,-0.1622,-0.2067,-0.2131,-0.1903,-0.145,-0.0813,-0.0272,0.0335,0.0831,0.1445,0.1605,0.1085,-0.0094,-0.1015,-0.1003,-0.0295,0.0396,0.0926,0.126,0.1656,0.2186,0.2744,0.3269,0.3743,0.4,0.4223,0.4533,0.462,0.4649,0.474,0.4887,0.4872,0.4702,0.4619,0.4471,0.4279,0.3995,0.3681,0.3421,0.3061,0.2468,0.1707,0.1209,0.084,0.0403,-0.0101,-0.0471,-0.0809,-0.155,-0.2331,-0.3177,-0.3962,-0.5009,-0.6229,-0.7148,-0.8064,-0.8827,-0.9424,-0.9982,-1.0466,-1.0733,-1.1008,-1.1234,-1.1249,-1.1319,-1.1308,-1.2144,-1.2363,-1.1884,-1.1549,-1.1276,-1.0833,-1.0456,-1.0128,-0.983,-0.9502,-0.9269,-0.9047,-0.8676,-0.8386,-0.8068,-0.7753,-0.7342,-0.7002,-0.6629,-0.6385,-0.6028,-0.5806,-0.5588,-0.5647,-0.6027,-0.6406,-0.6848,-0.6907,-0.6853,-0.6912,-0.6907,-0.6907,-0.6912,-0.6858,-0.6858,-0.6804,-0.6642,-0.6534,-0.6367,-0.614,-0.5973,-0.4927,-0.4274,-0.3338,-0.1928,-0.0312,0.072,0.1775,0.2554,0.2536,0.2334,0.2237,0.2364,0.2649,0.311,0.357,0.4032,0.4527,0.5509,0.5561,0.4894,0.4424,0.2994,0.198,0.2341,0.2754,0.2885,0.2809,0.3037,0.3501,0.3975,0.4512,0.5004,0.5297,0.5529,0.5733,0.589,0.5973,0.5981,0.5998,0.596,0.5836,0.5681,0.5494,0.5251,0.4954,0.4636,0.4322,0.3844,0.3057,0.2068,0.1709,0.1375,0.1039,0.0769,0.0436,-0.0102,-0.0564,-0.1258,-0.2135,-0.2881,-0.3799,-0.4995,-0.5913,-0.68,-0.7549,-0.8204,-0.8778,-0.9226,-0.9503,-0.97,-0.9895,-0.9886,-0.973,-0.9612,-1.0243,-1.0682,-1.0329,-1.005,-0.9661,-0.9178,-0.889,-0.8529,-0.8123,-0.7844,-0.7536,-0.7193,-0.6912,-0.6648,-0.6418,-0.5959,-0.5588,-0.5312,-0.503,-0.486,-0.4676,-0.445,-0.4278,-0.4116,-0.4388,-0.4659,-0.521,-0.5655,-0.5546,-0.5496,-0.537,-0.537,-0.5437,-0.5441,-0.5445,-0.5378,-0.5269,-0.5046,-0.4995,-0.4827,-0.4718,-0.0455,0.0375,0.1669,0.3187,0.4792,0.5929,0.6826,0.732,0.7122,0.6773,0.6531,0.6449,0.6607,0.6856,0.7163,0.7419,0.7736,0.8466,0.8288,0.7661,0.7252,0.5903,0.4448,0.43,0.436,0.436,0.421,0.4422,0.4834,0.5235,0.57,0.6196,0.6485,0.6704,0.6904,0.702,0.705,0.7041,0.699,0.6931,0.6832,0.6743,0.6554,0.6281,0.5998,0.566,0.5199,0.4732,0.3894,0.2856,0.2405,0.2106,0.1769,0.1603,0.1315,0.0896,0.058,0.0038,-0.0717,-0.1416,-0.2409,-0.351,-0.444,-0.5172,-0.5939,-0.6655,-0.719,-0.774,-0.7952,-0.8164,-0.8367,-0.8318,-0.8026,-0.7717,-0.8028,-0.8431,-0.8648,-0.8432,-0.8034,-0.7583,-0.721,-0.6871,-0.6409,-0.6295,-0.6052,-0.575,-0.5585,-0.5336,-0.5033,-0.4385,-0.3849,-0.3544,-0.3374,-0.3192,-0.3054,-0.2801,-0.2591,-0.2491,-0.222,-0.2607,-0.3382,-0.399,-0.3996,-0.3831,-0.3776,-0.3776,-0.3776,-0.3779,-0.3718,-0.366,-0.3558,-0.3448,-0.3335,-0.3109,-0.3056,0.4302,0.5538,0.7678,0.9442,1.0666,1.211,1.2127,1.2377,1.1476,1.0811,1.033,1.0137,0.9999,1.0263,1.0192,1.0456,1.0441,1.0398,1.008,0.9615,0.9056,0.7845,0.6449,0.5755,0.5607,0.5552,0.5514,0.5784,0.6142,0.6444,0.6899,0.7357,0.7598,0.779,0.7944,0.8021,0.7993,0.7915,0.7887,0.781,0.7714,0.7656,0.754,0.7297,0.7023,0.6627,0.6174,0.5722,0.5029,0.3732,0.329,0.2962,0.2688,0.2435,0.2301,0.2198,0.1928,0.1592,0.1033,0.03,-0.0661,-0.1762,-0.2464,-0.3296,-0.4121,-0.4809,-0.5466,-0.597,-0.6247,-0.65,-0.6807,-0.6765,-0.6367,-0.5843,-0.5413,-0.5752,-0.6469,-0.6697,-0.6416,-0.5854,-0.5481,-0.5053,-0.4712,-0.4639,-0.4657,-0.3564,-0.348,-0.322,-0.2884,-0.2388,-0.196,-0.1693,-0.1602,-0.1511,-0.1341,-0.1162,-0.092,-0.0661,-0.0166,-0.0332,-0.1329,-0.1882,-0.2052,-0.2055,-0.1997,-0.1941,-0.1943,-0.1943,-0.1886,-0.1777,-0.1666,-0.1557,-0.1447,-0.1111,-0.0944,0.7691,0.8696,0.9983,1.1177,1.2311,1.3272,1.3825,1.398,1.3752,1.3289,1.3099,1.2837,1.2658,1.2605,1.2537,1.2623,1.24,1.2138,1.1729,1.092,1.0398,0.978,0.8756,0.7709,0.6998,0.6899,0.6848,0.7075,0.7406,0.7731,0.8129,0.8524,0.8722,0.8858,0.8896,0.8919,0.8849,0.8755,0.8712,0.8612,0.8529,0.8473,0.8417,0.8199,0.7923,0.7598,0.724,0.6904,0.6455,0.5776,0.4846,0.4146,0.3756,0.3716,0.3647,0.354,0.3432,0.3195,0.2747,0.2193,0.1454,0.0572,-0.0264,-0.1056,-0.1894,-0.2991,-0.3648,-0.3995,-0.431,-0.4665,-0.5062,-0.5491,-0.4856,-0.3959,-0.3343,-0.2994,-0.3206,-0.444,-0.4756,-0.4002,-0.3437,-0.3046,-0.2512,-0.2161,-0.1945,-0.1417,-0.1062,-0.0842,-0.0489,-0.0134,0.009,0.0455,0.0326,0.0436,0.071,0.0939,0.1292,0.1587,0.1981,0.2265,0.1267,0.0606,0.0606,0.0221,-0.0167,-0.0111,0.0055,0.0055,0.0166,0.0222,0.0278,0.0444,0.0611,0.0945,0.1112,0.9678,1.0446,1.1285,1.2113,1.2975,1.3716,1.4256,1.4545,1.4671,1.4632,1.4521,1.4356,1.4231,1.4105,1.4002,1.3882,1.3645,1.3159,1.2504,1.1782,1.1306,1.0898,1.043,0.9538,0.8805,0.8314,0.8185,0.837,0.8618,0.8916,0.9221,0.9597,0.9753,0.9843,0.9856,0.9817,0.974,0.9662,0.9571,0.9478,0.9425,0.9384,0.9266,0.9093,0.8799,0.8502,0.8297,0.8009,0.7675,0.7191,0.643,0.5552,0.4934,0.4879,0.4923,0.4853,0.4929,0.4913,0.4628,0.4193,0.3597,0.2985,0.2107,0.145,0.0659,-0.0439,-0.1232,-0.1538,-0.1934,-0.2378,-0.2644,-0.2778,-0.2383,-0.1809,-0.1192,-0.0708,-0.0619,-0.1941,-0.2871,-0.1899,-0.1413,-0.0972,-0.0486,-0.0,0.0486,0.0838,0.2163,0.2431,0.2561,0.2843,0.2662,0.2729,0.2395,0.2432,0.2726,0.3159,0.3666,0.4037,0.4436,0.4671,0.4334,0.3842,0.3408,0.2813,0.2211,0.2106,0.2213,0.2218,0.2273,0.2327,0.2437,0.2496,0.2607,0.2828,0.2938,1.0855,1.1453,1.203,1.2641,1.3278,1.3832,1.4302,1.468,1.4922,1.4981,1.5098,1.5115,1.4937,1.4922,1.4752,1.4607,1.4211,1.3636,1.2899,1.2372,1.2014,1.1623,1.1213,1.0847,1.0401,0.9639,0.9417,0.9508,0.9715,0.997,1.0195,1.053,1.0712,1.0733,1.0746,1.0722,1.0613,1.054,1.0407,1.0322,1.0272,1.021,1.0097,0.9906,0.9623,0.9427,0.9257,0.8989,0.8689,0.834,0.7998,0.7211,0.6454,0.6062,0.6138,0.6222,0.6465,0.6586,0.6489,0.609,0.5631,0.538,0.4427,0.3734,0.3206,0.2325,0.1492,0.0966,0.057,0.0308,0.0308,0.0571,0.0748,0.1103,0.1282,0.1504,0.1504,0.0663,0.0397,0.0221,0.0883,0.1457,0.172,0.2071,0.2605,0.3274,0.4583,0.5494,0.543,0.5323,0.4894,0.4665,0.4343,0.4599,0.4926,0.5535,0.5996,0.6443,0.6812,0.7025,0.7147,0.6919,0.6313,0.5233,0.4696,0.4529,0.4412,0.4412,0.447,0.4484,0.4535,0.4634,0.4696,0.4765,0.4761,1.1296,1.1833,1.2376,1.2909,1.3395,1.3818,1.4259,1.4631,1.4904,1.5072,1.5192,1.5234,1.5243,1.5183,1.508,1.478,1.4289,1.3731,1.3278,1.2855,1.2526,1.2185,1.1924,1.1738,1.149,1.1244,1.079,1.054,1.0688,1.0879,1.1038,1.1296,1.149,1.1579,1.1549,1.152,1.1432,1.1312,1.119,1.1052,1.0936,1.0845,1.0763,1.0605,1.036,1.0222,1.0122,0.9868,0.9583,0.936,0.9,0.8541,0.8065,0.7748,0.7629,0.7643,0.7992,0.8214,0.8165,0.7863,0.7486,0.7024,0.6379,0.5747,0.5194,0.4547,0.3846,0.333,0.2939,0.2723,0.277,0.3386,0.4069,0.4212,0.4109,0.4148,0.3919,0.3731,0.3283,0.2852,0.3396,0.3763,0.3789,0.3991,0.447,0.49,0.5743,0.6465,0.6573,0.6518,0.6367,0.6229,0.6193,0.6647,0.7211,0.7824,0.8437,0.8806,0.9204,0.9402,0.9533,0.9724,0.9158,0.813,0.7153,0.6625,0.6577,0.664,0.6635,0.662,0.6694,0.6763,0.6758,0.6694,0.6656,1.1615,1.2159,1.2689,1.3176,1.3632,1.4002,1.4343,1.4662,1.492,1.513,1.5237,1.5321,1.5325,1.5271,1.5154,1.4795,1.4313,1.3924,1.354,1.3174,1.2869,1.2642,1.2435,1.2352,1.2276,1.2118,1.1815,1.1527,1.1497,1.1542,1.1738,1.193,1.2133,1.2235,1.224,1.2189,1.2148,1.204,1.19,1.1773,1.16,1.1453,1.131,1.1187,1.1038,1.0907,1.0835,1.0581,1.031,1.0122,0.9855,0.9532,0.9278,0.919,0.9094,0.8941,0.9242,0.9649,0.9751,0.9515,0.9191,0.8833,0.8254,0.7684,0.7134,0.6581,0.5995,0.5487,0.5189,0.5019,0.5099,0.5743,0.5925,0.5998,0.6083,0.6083,0.6029,0.6235,0.5916,0.5349,0.537,0.5466,0.5519,0.5812,0.6283,0.6752,0.7127,0.7452,0.774,0.7888,0.7914,0.8059,0.8171,0.876,0.9335,0.9952,1.0673,1.1137,1.1434,1.1639,1.1795,1.1853,1.1657,1.0963,1.007,0.9102,0.8743,0.884,0.8795,0.8743,0.8743,0.875,0.8665,0.8619,0.8567,1.1942,1.245,1.2986,1.3457,1.3892,1.4217,1.4521,1.4764,1.5011,1.5182,1.5299,1.5359,1.5344,1.5271,1.5083,1.4762,1.4314,1.4038,1.3711,1.3412,1.3192,1.2982,1.2873,1.2818,1.2799,1.2762,1.2635,1.2494,1.2133,1.2138,1.2336,1.2478,1.2652,1.2764,1.2801,1.2806,1.2804,1.2729,1.26,1.2466,1.2285,1.2035,1.1803,1.1717,1.1564,1.1429,1.1384,1.1164,1.0954,1.075,1.0543,1.0335,1.0148,1.0323,1.0298,1.0123,1.0365,1.0751,1.0923,1.102,1.0709,1.0416,0.9876,0.9397,0.8944,0.8351,0.7873,0.7464,0.7258,0.7217,0.7285,0.7375,0.7423,0.7498,0.7621,0.7751,0.7921,0.8125,0.8359,0.7891,0.7423,0.7224,0.73,0.7445,0.7911,0.8262,0.8673,0.8984,0.9309,0.9614,0.9731,0.9943,1.0263,1.0812,1.1402,1.1999,1.2683,1.3336,1.359,1.3786,1.3854,1.3921,1.3611,1.3336,1.2865,1.2013,1.1559,1.0973,1.0847,1.0781,1.0755,1.0705,1.0638,1.0545,1.0444,1.2313,1.2793,1.331,1.3786,1.4156,1.4452,1.4728,1.4957,1.5113,1.5221,1.528,1.5273,1.5229,1.5051,1.4889,1.4626,1.4341,1.4131,1.387,1.3634,1.3491,1.3394,1.3312,1.3312,1.3312,1.3261,1.3176,1.2947,1.2727,1.2708,1.2783,1.2929,1.3107,1.3244,1.3312,1.3377,1.3444,1.3311,1.3194,1.302,1.2764,1.2537,1.2364,1.2256,1.2071,1.1882,1.1811,1.1623,1.146,1.1316,1.1178,1.0991,1.0815,1.0732,1.1009,1.129,1.1583,1.1709,1.1797,1.2001,1.201,1.1732,1.1328,1.0956,1.0434,0.9964,0.9527,0.9428,0.927,0.9182,0.9213,0.9301,0.934,0.94,0.9499,0.9625,0.9799,0.9887,1.0089,1.0213,0.9666,0.9343,0.9204,0.9288,0.9451,0.9836,1.0176,1.0522,1.0853,1.1121,1.1395,1.1575,1.1844,1.2397,1.315,1.3778,1.4488,1.5282,1.5545,1.57,1.5688,1.5632,1.5668,1.5401,1.4991,1.4485,1.3683,1.3152,1.2916,1.2734,1.2695,1.2657,1.259,1.2445,1.2377,1.2757,1.3143,1.3646,1.41,1.4437,1.47,1.4927,1.5089,1.5198,1.5262,1.5192,1.4738,1.4292,1.3927,1.3937,1.399,1.3868,1.4047,1.4083,1.3934,1.383,1.3768,1.3739,1.3741,1.3743,1.3711,1.3665,1.357,1.3361,1.321,1.321,1.3328,1.3507,1.3632,1.3724,1.3827,1.3856,1.3766,1.3646,1.3459,1.321,1.302,1.2857,1.2741,1.2517,1.238,1.226,1.2149,1.2003,1.1854,1.171,1.1593,1.1505,1.1437,1.156,1.166,1.2118,1.2407,1.2688,1.3024,1.2981,1.2867,1.2483,1.2105,1.1696,1.1318,1.1047,1.0935,1.087,1.0822,1.0897,1.0972,1.1047,1.1121,1.12,1.1311,1.1469,1.1626,1.1735,1.1866,1.1902,1.1458,1.1057,1.0978,1.0999,1.1084,1.1454,1.183,1.2224,1.26,1.2864,1.3091,1.3382,1.3778,1.4601,1.5371,1.61,1.677,1.7139,1.7247,1.7315,1.7315,1.7192,1.7122,1.678,1.6236,1.5632,1.5147,1.4711,1.4631,1.4654,1.4506,1.4347,1.4449,1.4325,1.3143,1.348,1.3997,1.4375,1.4689,1.4952,1.512,1.5197,1.5013,1.4978,1.4742,1.406,1.3198,1.2832,1.3297,1.3588,1.3411,1.4027,1.4228,1.4198,1.4145,1.4096,1.4078,1.4096,1.4114,1.4101,1.3997,1.3955,1.3902,1.3771,1.3648,1.3691,1.3813,1.3959,1.4069,1.4144,1.4183,1.417,1.4006,1.3821,1.3644,1.3474,1.3328,1.3176,1.3001,1.2857,1.2746,1.2614,1.2478,1.2316,1.224,1.2138,1.2071,1.2071,1.203,1.2173,1.253,1.2902,1.3136,1.3377,1.361,1.3414,1.3323,1.2885,1.281,1.2566,1.246,1.233,1.2271,1.2271,1.2307,1.2378,1.2448,1.2577,1.2716,1.2832,1.2936,1.3014,1.3103,1.3205,1.3285,1.3331,1.2976,1.2714,1.26,1.2472,1.274,1.3132,1.3491,1.3887,1.4119,1.4328,1.4924,1.5328,1.6103,1.6894,1.767,1.817,1.8541,1.8674,1.8569,1.8468,1.8274,1.8302,1.8224,1.8039,1.7424,1.6959,1.6494,1.6298,1.6157,1.6182,1.6182,1.6182,1.6083,1.334,1.3894,1.4306,1.4616,1.4892,1.5099,1.5216,1.522,1.4531,1.4173,1.3926,1.3175,1.2602,1.2642,1.3059,1.3429,1.3426,1.4084,1.4319,1.4375,1.4356,1.435,1.4362,1.4392,1.4404,1.435,1.4271,1.4252,1.4245,1.4123,1.4028,1.4005,1.4083,1.4237,1.4362,1.4421,1.4448,1.4437,1.4295,1.4203,1.4042,1.391,1.3768,1.3634,1.3475,1.3295,1.3175,1.3037,1.2895,1.2727,1.2711,1.2689,1.2594,1.2594,1.2575,1.2621,1.29,1.3149,1.3217,1.331,1.3149,1.3052,1.3177,1.3543,1.3795,1.3749,1.367,1.3604,1.3457,1.3457,1.3537,1.3617,1.3657,1.3756,1.3874,1.4004,1.41,1.4228,1.4355,1.4509,1.4641,1.4707,1.4784,1.4497,1.3835,1.3657,1.3847,1.4196,1.4575,1.4957,1.5212,1.5566,1.6293,1.6925,1.7653,1.8368,1.8994,1.9402,1.9712,1.9728,1.9636,1.9507,1.9229,1.9207,1.9118,1.9184,1.9147,1.8454,1.7944,1.776,1.7612,1.7504,1.7423,1.7341,1.73,1.3407,1.3926,1.4375,1.4727,1.5031,1.5209,1.5316,1.5212,1.447,1.3432,1.2497,1.2068,1.1798,1.1946,1.2471,1.3056,1.3457,1.4183,1.4405,1.4497,1.4519,1.4574,1.4614,1.4606,1.4587,1.4563,1.4478,1.4428,1.4411,1.4508,1.4374,1.4301,1.4458,1.4392,1.4526,1.4637,1.4698,1.466,1.459,1.4475,1.4356,1.4203,1.4078,1.3941,1.3848,1.3693,1.3586,1.3442,1.3328,1.3244,1.3176,1.3125,1.3073,1.3089,1.3071,1.2982,1.3216,1.3145,1.3125,1.3367,1.3653,1.3823,1.3956,1.4182,1.464,1.4631,1.4568,1.4537,1.4505,1.4491,1.4505,1.4585,1.4696,1.4772,1.4909,1.5091,1.5181,1.5256,1.5345,1.5374,1.5847,1.6188,1.6233,1.6264,1.5485,1.4842,1.5045,1.5256,1.555,1.5909,1.6136,1.6616,1.7342,1.8123,1.885,1.9549,2.0297,2.059,2.083,2.0684,2.0501,2.0258,2.005,1.9995,1.9925,1.9874,1.9788,1.9615,1.9273,1.8826,1.865,1.8612,1.8549,1.8447,1.8355,1.3375,1.3902,1.4341,1.4746,1.5063,1.5218,1.5316,1.5173,1.4178,1.2728,1.1173,1.1277,1.1335,1.1509,1.2357,1.294,1.3589,1.4208,1.45,1.4603,1.4645,1.4717,1.4747,1.4738,1.4738,1.4754,1.4932,1.4947,1.497,1.5068,1.5263,1.5331,1.516,1.5145,1.4637,1.4823,1.4914,1.4867,1.4794,1.4699,1.4595,1.4456,1.4326,1.4201,1.4101,1.4019,1.3917,1.378,1.3724,1.368,1.3619,1.3555,1.3539,1.3507,1.3493,1.3428,1.3312,1.3159,1.3188,1.3231,1.3848,1.4171,1.4251,1.4663,1.5183,1.5389,1.5359,1.533,1.5345,1.5374,1.5389,1.5506,1.5579,1.5636,1.5779,1.5935,1.5991,1.6074,1.6157,1.6212,1.6763,1.727,1.7311,1.7246,1.6666,1.5989,1.5866,1.6031,1.6223,1.657,1.6959,1.7536,1.828,1.9078,1.9917,2.0738,2.1434,2.1494,2.1648,2.1458,2.1259,2.0975,2.0663,2.0514,2.0481,2.0512,2.0413,2.028,2.0054,1.9782,1.9551,1.9317,1.9258,1.9109,1.9109,1.3327,1.3821,1.4229,1.4644,1.499,1.5164,1.5242,1.51,1.3709,1.2144,1.0846,1.1221,1.1555,1.1815,1.3002,1.3522,1.3784,1.4379,1.4683,1.4693,1.4717,1.4785,1.485,1.4877,1.4935,1.501,1.5322,1.5625,1.5784,1.6164,1.6505,1.6573,1.6367,1.6096,1.4885,1.4914,1.4998,1.5006,1.4995,1.4841,1.4747,1.4635,1.4497,1.4392,1.4301,1.4224,1.4154,1.4083,1.4033,1.398,1.398,1.3902,1.3827,1.3827,1.3801,1.3713,1.365,1.354,1.3446,1.2936,1.3542,1.4546,1.477,1.5047,1.5841,1.6108,1.6052,1.5994,1.612,1.6188,1.6285,1.6367,1.6405,1.647,1.6602,1.668,1.6732,1.6809,1.6869,1.7113,1.7649,1.8097,1.8182,1.8101,1.7646,1.7167,1.6833,1.6815,1.691,1.7141,1.751,1.8309,1.9074,2.0016,2.0874,2.1918,2.2531,2.2574,2.2459,2.2186,2.1874,2.1488,2.1259,2.1055,2.0975,2.0958,2.0975,2.0959,2.0714,2.0481,2.015,1.9904,1.9833,1.9741,1.969,1.3361,1.3824,1.419,1.4526,1.483,1.5044,1.5173,1.504,1.4085,1.2988,1.214,1.2265,1.2641,1.3132,1.3443,1.3986,1.4372,1.4485,1.4765,1.4717,1.4776,1.485,1.4931,1.5089,1.5251,1.5602,1.5964,1.6388,1.6676,1.7062,1.6954,1.6917,1.7211,1.6846,1.6388,1.613,1.5814,1.5717,1.5333,1.4867,1.4841,1.478,1.4714,1.4655,1.4587,1.4544,1.4538,1.4505,1.4472,1.4432,1.4432,1.4352,1.4257,1.4257,1.4127,1.404,1.3998,1.4159,1.4317,1.435,1.4634,1.526,1.5563,1.5775,1.6537,1.6591,1.6607,1.6659,1.6738,1.6799,1.6876,1.7002,1.7076,1.7175,1.7248,1.732,1.7368,1.7446,1.7566,1.7973,1.8473,1.9387,1.979,1.9101,1.8574,1.8124,1.7759,1.7441,1.7462,1.7662,1.7991,1.8904,1.9774,2.0796,2.1756,2.2647,2.3124,2.3141,2.3014,2.2815,2.2459,2.2046,2.1803,2.1612,2.1507,2.1417,2.1462,2.1477,2.1385,2.115,2.0795,2.0444,2.0239,2.015,2.0096,1.3394,1.3798,1.4136,1.4409,1.4678,1.4938,1.4947,1.4697,1.4245,1.3578,1.2968,1.3059,1.3408,1.3868,1.4236,1.4391,1.4871,1.4876,1.4841,1.4794,1.4895,1.5155,1.535,1.5443,1.5976,1.6413,1.6851,1.7221,1.756,1.7747,1.7895,1.7951,1.7834,1.8093,1.7813,1.7298,1.664,1.6516,1.6186,1.5913,1.5787,1.5666,1.5595,1.5538,1.5466,1.5398,1.5331,1.5269,1.5213,1.5169,1.5143,1.5111,1.5049,1.4854,1.472,1.4639,1.4653,1.5085,1.5742,1.5965,1.6358,1.7035,1.6701,1.665,1.6995,1.7085,1.7101,1.715,1.7264,1.7368,1.7446,1.7602,1.7693,1.7783,1.7849,1.7893,1.7932,1.798,1.8065,1.8517,1.909,2.0148,2.0932,2.0287,1.9502,1.9074,1.868,1.8345,1.8082,1.8314,1.875,1.9717,2.0644,2.1649,2.2478,2.3199,2.3552,2.3671,2.3495,2.3289,2.3,2.2582,2.2358,2.2153,2.201,2.1924,2.2015,2.1986,2.1911,2.1718,2.1399,2.1055,2.0697,2.0579,2.0527,1.3378,1.3806,1.4091,1.435,1.4611,1.4804,1.4558,1.4017,1.405,1.3661,1.2996,1.3808,1.4128,1.4234,1.4835,1.5069,1.5002,1.5,1.4952,1.4936,1.4979,1.5448,1.5825,1.6108,1.6616,1.7435,1.7979,1.8132,1.8491,1.8726,1.9044,1.9181,1.905,1.9159,1.8833,1.8347,1.765,1.7424,1.7055,1.6824,1.6694,1.6809,1.6633,1.654,1.6494,1.6487,1.6492,1.6515,1.6543,1.657,1.6583,1.6609,1.6413,1.5996,1.571,1.5551,1.5533,1.632,1.7158,1.7313,1.7732,1.807,1.7539,1.742,1.7434,1.7602,1.7602,1.7647,1.7738,1.7893,1.8005,1.8128,1.8252,1.833,1.8391,1.841,1.8428,1.845,1.8492,1.8849,1.9361,2.0159,2.0778,2.0501,1.9899,1.9731,1.9304,1.9014,1.8865,1.9129,1.9703,2.0795,2.169,2.2557,2.3262,2.3728,2.3883,2.3939,2.3816,2.3624,2.3335,2.3116,2.2875,2.2625,2.2466,2.2429,2.25,2.2517,2.2463,2.2209,2.1965,2.1582,2.1229,2.1023,2.0893,1.341,1.383,1.4087,1.4295,1.4474,1.4678,1.4715,1.4697,1.4761,1.4623,1.4547,1.479,1.4842,1.4968,1.5157,1.5196,1.5155,1.5095,1.5066,1.5071,1.5064,1.5236,1.5605,1.6178,1.7011,1.7909,1.8552,1.8964,1.927,1.9569,1.9475,1.9446,1.9536,1.9638,1.955,1.9307,1.8776,1.8262,1.7815,1.7611,1.7449,1.7386,1.7281,1.7222,1.7174,1.716,1.7128,1.7096,1.705,1.6968,1.6824,1.6744,1.6639,1.649,1.6363,1.6442,1.6561,1.6939,1.7748,1.7936,1.8234,1.8818,1.852,1.8338,1.8241,1.8107,1.8086,1.8128,1.8208,1.8293,1.8413,1.8547,1.8642,1.8698,1.8734,1.877,1.8789,1.8825,1.8877,1.9108,1.9632,2.0029,2.0661,2.048,1.9975,2.0008,1.9914,1.9646,1.9668,1.9935,2.0521,2.1583,2.2386,2.3143,2.3573,2.4039,2.4135,2.4191,2.4057,2.3937,2.3732,2.3518,2.3289,2.3122,2.2933,2.295,2.3052,2.3003,2.2884,2.273,2.25,2.2096,2.1748,2.1538,2.1354,1.3428,1.3771,1.405,1.4263,1.4458,1.4603,1.4747,1.4892,1.4999,1.5108,1.5154,1.5214,1.528,1.5253,1.5263,1.5279,1.5244,1.5201,1.5176,1.5133,1.5153,1.5453,1.5765,1.644,1.7527,1.8401,1.9049,1.9498,1.9743,1.9662,1.9541,1.955,1.9592,1.9679,1.9688,1.9669,1.9578,1.913,1.8712,1.8343,1.8172,1.8087,1.8048,1.7895,1.7845,1.7817,1.777,1.7756,1.7782,1.7775,1.7666,1.7623,1.7532,1.7387,1.7212,1.7257,1.7355,1.7786,1.8426,1.8605,1.8846,1.9081,1.9227,1.9079,1.8877,1.8698,1.8605,1.8585,1.8604,1.8678,1.8789,1.8896,1.8948,1.8999,1.9034,1.9086,1.9134,1.918,1.9295,1.9427,1.9724,2.0097,2.0246,2.0083,1.9955,1.9871,2.0034,2.0239,2.0416,2.0843,2.1387,2.2238,2.2914,2.3576,2.3949,2.4229,2.4303,2.4339,2.4284,2.4153,2.4056,2.3855,2.3584,2.3473,2.3405,2.3417,2.3389,2.3342,2.3253,2.3109,2.2977,2.2686,2.2347,2.2022,2.1878,1.3379,1.37,1.3984,1.4255,1.4476,1.4556,1.4569,1.4624,1.4705,1.4961,1.5069,1.5173,1.5221,1.5266,1.5292,1.5304,1.5309,1.528,1.5235,1.5207,1.5201,1.5455,1.6105,1.7144,1.773,1.8718,1.9411,1.9601,1.9771,1.9738,1.9643,1.9609,1.9649,1.9713,1.9813,1.9866,1.9828,1.9747,1.9601,1.942,1.9457,1.9537,1.9555,1.9327,1.9251,1.9258,1.9213,1.9222,1.9266,1.9132,1.8995,1.8854,1.8551,1.8279,1.8071,1.8076,1.8155,1.8492,1.8926,1.9121,1.9243,1.9383,1.946,1.9456,1.9305,1.9132,1.8998,1.8964,1.8999,1.8999,1.9066,1.9099,1.9148,1.9198,1.9232,1.9282,1.9326,1.9413,1.9527,1.962,1.9699,2.0006,1.9981,1.9855,1.9845,1.9699,2.0047,2.053,2.1137,2.1618,2.2246,2.2867,2.3361,2.3858,2.41,2.4339,2.4445,2.4445,2.4411,2.4358,2.4229,2.4057,2.3858,2.3774,2.3707,2.3685,2.3642,2.3598,2.3531,2.3458,2.3301,2.3199,2.2935,2.2599,2.2375,1.3244,1.3588,1.3945,1.4211,1.4356,1.4422,1.4136,1.3668,1.3794,1.429,1.4916,1.5044,1.5154,1.5241,1.5188,1.5212,1.5271,1.5147,1.5274,1.5232,1.521,1.5351,1.5729,1.6557,1.7465,1.8398,1.906,1.9497,1.9741,1.9794,1.9788,1.9751,1.9788,1.9873,1.9881,1.9947,2.0,2.0078,2.0039,1.9947,1.9866,1.9738,1.9636,1.9555,1.9518,1.9479,1.9435,1.9357,1.9295,1.9214,1.9086,1.8984,1.8878,1.8768,1.8762,1.8843,1.8867,1.906,1.9213,1.9387,1.945,1.9522,1.9574,1.966,1.9614,1.9471,1.9383,1.935,1.9335,1.932,1.932,1.932,1.9353,1.9387,1.9438,1.9483,1.9526,1.9628,1.9738,1.9763,1.9763,1.9745,1.9725,1.9699,1.9686,1.9985,2.0484,2.1064,2.1782,2.2362,2.2956,2.3529,2.3768,2.4155,2.4339,2.4429,2.4498,2.4513,2.4498,2.4446,2.4393,2.4229,2.4057,2.4036,2.3994,2.3935,2.3876,2.3834,2.3771,2.3685,2.362,2.3531,2.3458,2.3218,2.2968,1.3123,1.3444,1.3848,1.4105,1.4206,1.4277,1.3913,1.3343,1.3372,1.3541,1.3882,1.4294,1.4762,1.4975,1.4895,1.4756,1.4816,1.4784,1.4696,1.4759,1.5132,1.53,1.5645,1.6096,1.6753,1.769,1.8601,1.9171,1.9544,1.9901,1.9941,1.99,1.9952,2.0004,2.0009,2.004,2.0088,2.0144,2.0144,2.0117,2.0007,1.9881,1.9763,1.9675,1.9614,1.9597,1.9508,1.9416,1.9338,1.923,1.9067,1.8984,1.8931,1.8912,1.8981,1.9081,1.9143,1.9295,1.9323,1.9402,1.9512,1.9564,1.9649,1.9745,1.9818,1.9701,1.9688,1.9662,1.9601,1.9587,1.9546,1.9546,1.9518,1.9536,1.9578,1.962,1.9699,1.9782,1.9858,1.9896,1.9892,1.9873,1.9844,1.977,1.9763,1.992,2.0495,2.1371,2.2145,2.2963,2.3605,2.4024,2.4192,2.4284,2.4358,2.4465,2.4515,2.4532,2.453,2.4481,2.4411,2.4339,2.4266,2.4228,2.4171,2.4152,2.4095,2.4036,2.4016,2.3935,2.3876,2.3855,2.3792,2.3707,2.3491,1.3016,1.3379,1.3735,1.397,1.4047,1.4036,1.363,1.3066,1.2968,1.2632,1.2354,1.3066,1.399,1.4332,1.4212,1.4014,1.3887,1.3916,1.3925,1.4354,1.4835,1.5112,1.5518,1.6009,1.643,1.7084,1.8009,1.8581,1.902,1.9449,1.9762,1.9933,2.0067,2.0116,2.0127,2.0164,2.019,2.0216,2.0216,2.0227,2.0126,2.002,1.9904,1.9818,1.9751,1.9705,1.9606,1.9518,1.9427,1.9259,1.9115,1.9017,1.8984,1.9001,1.9051,1.9134,1.9216,1.928,1.9323,1.942,1.9512,1.9592,1.9713,1.9811,1.99,1.9952,1.993,1.9889,1.9849,1.9788,1.9751,1.9707,1.9681,1.9668,1.9707,1.9751,1.983,1.9911,1.9958,2.002,2.0017,2.0001,1.9994,1.991,2.0019,2.0126,2.069,2.1486,2.2337,2.3218,2.4004,2.4222,2.4301,2.4375,2.443,2.4447,2.45,2.4532,2.4513,2.4481,2.4446,2.441,2.4393,2.4358,2.4321,2.4284,2.4247,2.419,2.4171,2.4152,2.4135,2.4079,2.4018,2.3958,2.3878,1.3016,1.3479,1.3669,1.3833,1.3902,1.3464,1.2823,1.211,1.1617,1.1295,1.1341,1.1483,1.2133,1.3017,1.2973,1.2892,1.296,1.3019,1.359,1.4132,1.4375,1.4802,1.5277,1.5688,1.6002,1.6632,1.7426,1.8168,1.8608,1.8954,1.944,1.9972,2.0068,2.0127,2.0174,2.0209,2.0216,2.0241,2.0273,2.0273,2.0233,2.0135,2.0039,1.9955,1.9896,1.9818,1.9757,1.9681,1.9587,1.9423,1.9209,1.9101,1.9069,1.9087,1.9119,1.9184,1.9266,1.9261,1.9323,1.942,1.9512,1.9583,1.9694,1.9837,1.993,2.0047,2.0028,2.002,1.9969,1.9945,1.9892,1.987,1.9847,1.9811,1.9823,1.9847,1.9911,1.9985,2.0038,2.0125,2.0183,2.0237,2.0329,2.0391,2.0577,2.0895,2.1658,2.242,2.297,2.3694,2.4367,2.44,2.4428,2.4446,2.4465,2.4412,2.4429,2.4462,2.4513,2.4498,2.4498,2.453,2.4513,2.4481,2.4429,2.4393,2.4358,2.4303,2.4339,2.4321,2.4338,2.4301,2.4248,2.4173,2.4097]},{"header":{"parameterUnit":"m.s-1","parameterCategory":1,"la1":31.0,"la2":29.5877,"lo1":-88.7671,"lo2":-86.6584,"dy":0.0162,"dx":0.0185,"nx":115,"ny":88,"refTime":"2023-07-25T18:00:00:Z","depth":0,"parameterNumber":3,"parameterNumberName":"V-component_of_WINDS"},"data":[0.0,0.0,0.0,0.0,0.0,0.0,0.0,0.0,0.0,0.0,0.0,0.0,0.0,0.0,0.0,0.0,0.0,0.0,0.0,0.0,0.0,0.0,0.0,0.0,0.0,0.0,0.0,0.0,0.0,0.0,0.0,0.0,0.0,0.0,0.0,0.0,0.0,0.0,0.0,0.0,0.0,0.0,0.0,0.0,0.0,0.0,0.0,0.0,0.0,0.0,0.0,0.0,0.0,0.0,0.0,0.0,0.0,0.0,0.0,0.0,0.0,0.0,0.0,0.0,0.0,0.0,0.0,0.0,0.0,0.0,0.0,0.0,0.0,0.0,0.0,0.0,0.0,0.0,0.0,0.0,0.0,0.0,0.0,0.0,0.0,0.0,0.0,0.0,0.0,0.0,0.0,0.0,0.0,0.0,0.0,0.0,0.0,0.0,0.0,0.0,0.0,0.0,0.0,0.0,0.0,0.0,0.0,0.0,0.0,0.0,0.0,0.0,0.0,0.0,0.0,0.0,0.0,0.0,0.0,0.0,0.0,0.0,0.0,0.0,0.0,0.0,0.0,0.0,0.0,0.0,0.0,0.0,0.0,0.0,0.0,0.0,0.0,0.0,0.0,0.0,0.0,0.0,0.0,0.0,0.0,0.0,0.0,0.0,0.0,0.0,0.0,0.0,0.0,0.0,0.0,0.0,0.0,0.0,0.0,0.0,0.0,0.0,0.0,0.0,0.0,0.0,0.0,0.0,0.0,0.0,0.0,0.0,0.0,0.0,0.0,0.0,0.0,0.0,0.0,0.0,0.0,0.0,0.0,0.0,0.0,0.0,0.0,0.0,0.0,0.0,0.0,0.0,0.0,0.0,0.0,0.0,0.0,0.0,0.0,0.0,0.0,0.0,0.0,0.0,0.0,0.0,0.0,0.0,0.0,0.0,0.0,0.0,0.0,0.0,0.0,0.0,0.0,0.0,0.0,0.0,0.0,0.0,0.0,0.0,0.0,0.0,0.0,0.0,0.0,0.0,0.0,0.0,0.0,0.0,0.0,0.0,0.0,0.0,0.0,0.0,0.0,0.0,0.0,0.0,0.0,0.0,0.0,0.0,0.0,0.0,0.0,0.0,0.0,0.0,0.0,0.0,0.0,0.0,0.0,0.0,0.0,0.0,0.0,0.0,0.0,0.0,0.0,0.0,0.0,0.0,0.0,0.0,0.0,0.0,0.0,0.0,0.0,0.0,0.0,0.0,0.0,0.0,0.0,0.0,0.0,0.0,0.0,0.0,0.0,0.0,0.0,0.0,0.0,0.0,0.0,0.0,0.0,0.0,0.0,0.0,0.0,0.0,0.0,0.0,0.0,0.0,0.0,0.0,0.0,0.0,0.0,0.0,0.0,0.0,0.0,0.0,0.0,0.0,0.0,0.0,0.0,0.0,0.0,0.0,0.0,0.0,0.0,0.0,0.0,0.0,0.0,0.0,0.0,0.0,0.0,0.0,0.0,0.0,0.0,0.0,0.0,0.0,0.0,0.0,0.0,0.0,0.0,0.0,0.0,0.0,0.0,0.0,0.0,0.0,0.0,0.0,0.0,0.0,0.0,0.0,0.0,0.0,0.0,0.0,0.0,0.0,0.0,0.0,0.0,0.0,0.0,0.0,0.0,0.0,0.0,0.0,0.0,0.0,0.0,0.0,0.0,0.0,0.0,0.0,0.0,0.0,0.0,0.0,0.0,0.0,0.0,0.0,0.0,0.0,0.0,0.0,0.0,0.0,0.0,0.0,0.0,0.0,0.0,0.0,0.0,0.0,0.0,0.0,0.0,0.0,0.0,0.0,0.0,0.0,0.0,0.0,0.0,0.0,0.0,0.0,0.0,0.0,0.0,0.0,0.0,0.0,0.0,0.0,0.0,0.0,0.0,0.0,0.0,0.0,0.0,0.0,0.0,0.0,0.0,0.0,0.0,0.0,0.0,0.0,0.0,0.0,0.0,0.0,0.0,0.0,0.0,0.0,0.0,0.0,0.0,0.0,0.0,0.0,0.0,0.0,0.0,0.0,0.0,0.0,0.0,0.0,0.0,0.0,0.0,0.0,0.0,0.0,0.0,0.0,0.0,0.0,0.0,0.0,0.0,0.0,0.0,0.0,0.0,0.0,0.0,0.0,0.0,0.0,0.0,0.0,0.0,0.0,0.0,0.0,0.0,0.0,0.0,0.0,0.0,0.0,0.0,0.0,0.0,0.0,0.0,0.0,0.0,0.0,0.0,0.0,0.0,0.0,0.0,0.0,0.0,0.0,0.0,0.0,0.0,0.0,0.0,0.0,0.0,0.0,0.0,0.0,0.0,0.0,0.0,0.0,0.0,0.0,0.0,0.0,0.0,0.0,0.0,0.0,0.0,0.0,0.0,0.0,0.0,0.0,0.0,0.0,0.0,0.0,0.0,0.0,0.0,0.0,0.0,0.0,0.0,0.0,0.0,0.0,0.0,0.0,0.0,0.0,0.0,0.0,0.0,0.0,0.0,0.0,0.0,0.0,0.0,0.0,0.0,0.0,0.0,0.0,0.0,0.0,0.0,0.0,0.0,0.0,0.0,0.0,0.0,0.0,0.0,0.0,0.0,0.0,0.0,0.0,0.0,0.0,0.0,0.0,0.0,0.0,0.0,0.0,0.0,0.0,0.0,0.0,0.0,0.0,0.0,0.0,0.0,0.0,0.0,0.0,0.0,0.0,0.0,0.0,0.0,0.0,0.0,0.0,0.0,0.0,0.0,0.0,0.0,0.0,0.0,0.0,0.0,0.0,0.0,0.0,0.0,0.0,0.0,0.0,0.0,0.0,0.0,0.0,0.0,0.0,0.0,0.0,0.0,0.0,0.0,0.0,0.0,0.0,0.0,0.0,0.0,0.0,0.0,0.0,0.0,0.0,0.0,0.0,0.0,0.0,0.0,0.0,0.0,0.0,0.0,0.0,0.0,0.0,0.0,0.0,0.0,0.0,0.0,0.0,0.0,0.0,0.0,0.0,0.0,0.0,0.0,0.0,0.0,0.0,0.0,0.0,0.0,0.0,0.0,0.0,0.0,0.0,0.0,0.0,0.0,0.0,0.0,0.0,0.0,0.0,0.0,0.0,0.0,0.0,0.0,0.0,0.0,0.0,0.0,0.0,0.0,0.0,0.0,0.0,0.0,0.0,0.0,0.0,0.0,0.0,0.0,0.0,0.0,0.0,0.0,0.0,0.0,0.0,0.0,0.0,0.0,0.0,0.0,0.0,0.0,0.0,0.0,0.0,0.0,0.0,0.0,0.0,0.0,0.0,0.0,0.0,0.0,0.0,0.0,0.0,0.0,0.0,0.0,0.0,0.0,0.0,0.0,0.0,0.0,0.0,0.0,0.0,0.0,0.0,0.0,0.0,0.0,0.0,0.0,0.0,0.0,0.0,0.0,0.0,0.0,0.0,0.0,0.0,0.0,0.0,0.0,0.0,0.0,0.0,0.0,0.0,0.0,0.0,0.0,0.0,0.0,0.0,0.0,0.0,0.0,0.0,0.0,0.0,0.0,0.0,0.0,0.0,0.0,0.0,0.0,0.0,0.0,0.0,0.0,0.0,0.0,0.0,0.0,0.0,0.0,0.0,0.0,0.0,0.0,0.0,0.0,0.0,0.0,0.0,0.0,0.0,0.0,0.0,0.0,0.0,0.0,0.0,0.0,0.0,0.0,0.0,0.0,0.0,0.0,0.0,0.0,0.0,0.0,0.0,0.0,0.0,0.0,0.0,0.0,0.0,0.0,0.0,0.0,0.0,0.0,0.0,0.0,0.0,0.0,0.0,0.0,0.0,0.0,0.0,0.0,0.0,0.0,0.0,0.0,0.0,0.0,0.0,0.0,0.0,0.0,0.0,0.0,0.0,0.0,0.0,0.0,0.0,0.0,0.0,0.0,0.0,0.0,0.0,0.0,0.0,0.0,0.0,0.0,0.0,0.0,0.0,0.0,0.0,0.0,0.0,0.0,0.0,0.0,0.0,0.0,0.0,0.0,0.0,0.0,0.0,0.0,0.0,0.0,0.0,0.0,0.0,0.0,0.0,0.0,0.0,0.0,0.0,0.0,0.0,0.0,0.0,0.0,0.0,0.0,0.0,0.0,0.0,0.0,0.0,0.0,0.0,0.0,0.0,0.0,0.0,0.0,0.0,0.0,0.0,0.0,0.0,0.0,0.0,0.0,0.0,0.0,0.0,0.0,0.0,0.0,0.0,0.0,0.0,0.0,0.0,0.0,0.0,0.0,0.0,2.4632,0.0,0.0,0.0,0.0,0.0,0.0,0.0,0.0,0.0,0.0,0.0,0.0,0.0,0.0,0.0,0.0,0.0,0.0,0.0,0.0,0.0,0.0,0.0,0.0,0.0,0.0,0.0,0.0,0.0,0.0,0.0,0.0,0.0,0.0,0.0,0.0,0.0,0.0,0.0,0.0,0.0,0.0,0.0,0.0,0.0,0.0,0.0,0.0,0.0,0.0,0.0,0.0,0.0,0.0,0.0,0.0,0.0,0.0,0.0,0.0,0.0,0.0,0.0,0.0,0.0,0.0,0.0,0.0,0.0,0.0,0.0,0.0,0.0,0.0,0.0,0.0,0.0,0.0,0.0,0.0,0.0,0.0,0.0,0.0,0.0,0.0,0.0,0.0,0.0,0.0,0.0,0.0,0.0,0.0,0.0,0.0,0.0,0.0,0.0,0.0,0.0,0.0,0.0,0.0,0.0,0.0,0.0,0.0,0.0,0.0,2.2511,2.2505,2.2664,2.2885,2.3142,0.0,0.0,0.0,0.0,0.0,0.0,0.0,0.0,0.0,0.0,0.0,0.0,0.0,0.0,0.0,0.0,0.0,0.0,0.0,0.0,0.0,0.0,0.0,0.0,0.0,0.0,0.0,0.0,0.0,0.0,0.0,0.0,0.0,0.0,0.0,0.0,0.0,0.0,0.0,0.0,0.0,0.0,0.0,0.0,0.0,0.0,0.0,0.0,0.0,0.0,0.0,0.0,0.0,0.0,0.0,0.0,0.0,0.0,0.0,0.0,0.0,0.0,0.0,0.0,0.0,0.0,0.0,0.0,0.0,0.0,0.0,0.0,0.0,0.0,0.0,0.0,0.0,0.0,0.0,0.0,0.0,0.0,0.0,0.0,0.0,0.0,0.0,0.0,0.0,0.0,0.0,0.0,0.0,0.0,0.0,0.0,0.0,0.0,0.0,0.0,0.0,0.0,0.0,0.0,0.0,0.0,0.0,0.0,0.0,0.0,0.0,0.0,2.0708,2.091,2.1309,0.0,0.0,0.0,0.0,0.0,0.0,0.0,0.0,0.0,0.0,0.0,0.0,0.0,0.0,0.0,0.0,0.0,0.0,0.0,0.0,0.0,0.0,0.0,0.0,0.0,0.0,0.0,0.0,0.0,0.0,0.0,0.0,0.0,0.0,0.0,0.0,0.0,0.0,0.0,0.0,0.0,0.0,0.0,0.0,0.0,0.0,0.0,0.0,0.0,0.0,0.0,0.0,0.0,0.0,0.0,0.0,0.0,0.0,0.0,0.0,0.0,0.0,0.0,0.0,0.0,0.0,0.0,0.0,0.0,0.0,0.0,0.0,0.0,0.0,0.0,0.0,0.0,0.0,0.0,0.0,0.0,0.0,0.0,0.0,0.0,0.0,0.0,0.0,0.0,0.0,0.0,0.0,0.0,0.0,0.0,0.0,0.0,0.0,0.0,0.0,0.0,0.0,0.0,0.0,0.0,0.0,0.0,0.0,0.0,0.0,1.8812,1.8512,1.8251,0.0,1.9184,0.0,0.0,0.0,0.0,0.0,0.0,0.0,0.0,0.0,0.0,0.0,0.0,0.0,0.0,0.0,0.0,0.0,0.0,0.0,0.0,0.0,0.0,0.0,0.0,0.0,0.0,0.0,0.0,0.0,0.0,0.0,0.0,0.0,0.0,0.0,0.0,0.0,0.0,0.0,0.0,0.0,0.0,0.0,0.0,0.0,0.0,0.0,0.0,0.0,0.0,0.0,0.0,0.0,0.0,0.0,0.0,0.0,0.0,0.0,0.0,0.0,0.0,0.0,0.0,0.0,0.0,0.0,0.0,0.0,0.0,0.0,0.0,0.0,0.0,0.0,0.0,0.0,0.0,0.0,0.0,0.0,0.0,0.0,0.0,0.0,0.0,0.0,0.0,0.0,0.0,0.0,0.0,0.0,0.0,0.0,0.0,0.0,0.0,0.0,0.0,0.0,0.0,0.0,0.0,0.0,0.0,0.0,0.0,0.0,0.0,1.6818,1.6048,1.5278,1.5162,0.0,0.0,0.0,0.0,0.0,0.0,0.0,0.0,0.0,0.0,0.0,0.0,0.0,0.0,0.0,0.0,0.0,0.0,0.0,0.0,0.0,0.0,0.0,0.0,0.0,0.0,0.0,0.0,0.0,0.0,0.0,0.0,0.0,0.0,0.0,0.0,0.0,0.0,0.0,0.0,0.0,0.0,0.0,0.0,0.0,0.0,0.0,0.0,0.0,0.0,0.0,0.0,0.0,0.0,0.0,0.0,0.0,0.0,0.0,0.0,0.0,0.0,0.0,0.0,0.0,0.0,0.0,0.0,0.0,0.0,0.0,0.0,0.0,0.0,0.0,0.0,0.0,0.0,0.0,0.0,0.0,0.0,0.0,0.0,0.0,0.0,0.0,0.0,0.0,0.0,0.0,0.0,0.0,0.0,0.0,0.0,0.0,0.0,0.0,0.0,0.0,0.0,0.0,0.0,0.0,0.0,0.0,0.0,0.0,0.0,1.6083,1.4665,1.3077,1.2063,1.1743,1.2105,0.0,0.0,0.0,0.0,0.0,0.0,0.0,0.0,0.0,0.0,0.0,0.0,0.0,0.0,0.0,0.0,0.0,0.0,0.0,0.0,0.0,0.0,0.0,0.0,0.0,0.0,0.0,0.0,0.0,0.0,0.0,0.0,0.0,0.0,0.0,0.0,0.0,0.0,0.0,0.0,0.0,0.0,0.0,0.0,0.0,0.0,0.0,0.0,0.0,0.0,0.0,0.0,0.0,0.0,0.0,0.0,0.0,0.0,0.0,0.0,0.0,0.0,0.0,0.0,0.0,0.0,0.0,0.0,0.0,0.0,0.0,0.0,0.0,0.0,0.0,0.0,0.0,0.0,0.0,0.0,0.0,0.0,0.0,0.0,0.0,0.0,0.0,0.0,0.0,0.0,0.0,0.0,0.0,0.0,0.0,0.0,0.0,0.0,0.0,0.0,0.0,0.0,0.0,0.0,0.0,0.0,0.0,0.0,1.6469,1.4688,1.233,0.9453,0.8611,0.8274,0.0,0.0,0.0,0.0,0.0,0.0,0.0,0.0,0.0,0.0,0.0,0.0,0.0,0.0,0.0,0.0,0.0,0.0,0.0,0.0,0.0,0.0,0.0,0.0,0.0,0.0,0.0,0.0,0.0,0.0,0.0,0.0,0.0,0.0,0.0,0.0,0.0,0.0,0.0,0.0,0.0,0.0,0.0,0.0,0.0,0.0,0.0,0.0,0.0,0.0,0.0,0.0,0.0,0.0,0.0,0.0,0.0,0.0,0.0,0.0,0.0,0.0,0.0,0.0,0.0,0.0,0.0,0.0,0.0,0.0,0.0,0.0,0.0,0.0,0.0,0.0,0.0,0.0,0.0,0.0,0.0,0.0,0.0,0.0,0.0,0.0,0.0,0.0,0.0,0.0,0.0,0.0,0.0,0.0,0.0,0.0,0.0,0.0,0.0,0.0,0.0,0.0,0.0,0.0,0.0,0.0,0.0,0.0,0.0,1.5743,1.2206,0.9096,0.6632,0.5511,0.4915,0.0,0.0,0.0,0.0,0.0,0.0,0.0,0.0,0.0,0.0,0.0,0.0,0.0,0.0,0.0,0.0,0.0,0.0,0.0,0.0,0.0,0.0,0.0,0.0,0.0,0.0,0.0,0.0,0.0,0.0,0.0,0.0,0.0,0.0,0.0,0.0,0.0,0.0,0.0,0.0,0.0,0.0,0.0,0.0,0.0,0.0,0.0,0.0,0.0,0.0,0.0,0.0,0.0,0.0,0.0,0.0,0.0,0.0,0.0,0.0,0.0,0.0,0.0,0.0,0.0,0.0,0.0,0.0,0.0,0.0,0.0,0.0,0.0,0.0,0.0,0.0,0.0,0.0,0.0,0.0,0.0,0.0,0.0,0.0,0.0,0.0,0.0,0.0,0.0,0.0,0.0,0.0,0.0,0.0,0.0,0.0,0.0,0.0,0.0,0.0,0.0,0.0,0.0,0.0,0.0,0.0,0.0,0.0,0.0,1.369,0.0,0.64,0.4111,0.2756,0.1989,0.0,0.0,0.0,0.0,0.0,0.0,0.0,0.0,0.0,0.0,0.0,0.0,0.0,0.0,0.0,0.0,0.0,0.0,0.0,0.0,0.0,0.0,0.0,0.0,0.0,0.0,0.0,0.0,0.0,0.0,0.0,0.0,0.0,0.0,0.0,0.0,0.0,0.0,0.0,0.0,0.0,0.0,0.0,0.0,0.0,0.0,0.0,0.0,0.0,0.0,0.0,0.0,0.0,0.0,0.0,0.0,0.0,0.0,0.0,0.0,0.0,0.0,0.0,0.0,0.0,0.0,0.0,0.0,0.0,0.0,0.0,0.0,0.0,0.0,0.0,0.0,0.0,0.0,0.0,0.0,0.0,0.0,0.0,0.0,0.0,0.0,0.0,0.0,0.0,0.0,0.0,0.0,0.0,0.0,0.0,0.0,0.0,0.0,0.0,0.0,0.0,0.0,0.0,0.0,0.0,0.0,0.0,0.0,1.4741,1.0153,0.7194,0.4412,0.1873,0.0332,-0.061,0.0,0.0,0.0,0.0,0.0,0.0,0.0,0.0,0.0,0.0,0.0,0.0,0.0,0.0,0.0,0.0,0.0,0.0,0.0,0.0,0.0,0.0,0.0,0.0,0.0,0.0,0.0,0.0,0.0,0.0,0.0,0.0,0.0,0.0,0.0,0.0,0.0,0.0,0.0,0.0,0.0,0.0,0.0,0.0,0.0,0.0,0.0,0.0,0.0,0.0,0.0,0.0,0.0,0.0,0.0,0.0,0.0,0.0,0.0,0.0,0.0,0.0,0.0,0.0,0.0,0.0,0.0,0.0,0.0,0.0,0.0,0.0,0.0,0.0,0.0,0.0,0.0,0.0,0.0,0.0,0.0,0.0,0.0,0.0,0.0,0.0,0.0,0.0,0.0,0.0,0.0,0.0,0.0,0.0,0.0,0.0,0.0,0.0,0.0,0.0,0.0,0.0,0.0,0.0,0.0,0.0,0.0,0.0,0.0,0.8678,0.5136,0.2017,-0.0794,-0.245,-0.3388,0.0,0.0,0.0,0.0,0.0,0.0,0.0,0.0,0.0,0.0,0.0,0.0,0.0,0.0,0.0,0.0,0.0,0.0,0.0,0.0,0.0,0.0,0.0,0.0,0.0,0.0,0.0,0.0,0.0,0.0,0.0,0.0,0.0,0.0,0.0,0.0,0.0,0.0,0.0,0.0,0.0,0.0,0.0,0.0,0.0,0.0,0.0,0.0,0.0,0.0,0.0,0.0,0.0,0.0,0.0,0.0,0.0,0.0,0.0,0.0,0.0,0.0,0.0,0.0,0.0,0.0,0.0,0.0,0.0,0.0,0.0,0.0,0.0,0.0,0.0,0.0,0.0,0.0,0.0,0.0,0.0,0.0,0.0,0.0,0.0,0.0,0.0,0.0,0.0,0.0,0.0,0.0,0.0,0.0,0.0,0.0,0.0,0.0,0.0,0.0,0.0,0.0,0.0,0.0,0.0,0.0,0.0,0.0,0.0,0.6258,0.2912,-0.0399,-0.351,-0.5098,-0.5944,-0.6156,0.0,0.0,0.0,0.0,0.0,0.0,0.0,0.0,0.0,0.0,0.0,0.0,0.0,0.0,0.0,0.0,0.0,0.0,0.0,0.0,0.0,0.0,0.0,0.0,0.0,0.0,0.0,0.0,0.0,0.0,0.0,0.0,0.0,0.0,0.0,0.0,0.0,0.0,0.0,0.0,0.0,0.0,0.0,0.0,0.0,0.0,0.0,0.0,0.0,0.0,0.0,0.0,0.0,0.0,0.0,0.0,0.0,0.0,0.0,0.0,0.0,0.0,0.0,0.0,0.0,0.0,0.0,0.0,0.0,0.0,0.0,0.0,0.0,0.0,0.0,0.0,0.0,0.0,0.0,0.0,0.0,0.0,0.0,0.0,0.0,0.0,0.0,0.0,0.0,0.0,0.0,0.0,0.0,0.0,0.0,0.0,0.0,0.0,0.0,0.0,0.0,0.0,0.0,0.0,0.0,0.0,0.0,0.0,0.3244,0.0337,-0.2756,-0.6036,-0.7467,-0.8263,0.0,0.0,0.0,0.0,0.0,0.0,0.0,0.0,0.0,0.0,0.0,0.0,0.0,0.0,0.0,0.0,0.0,0.0,0.0,0.0,0.0,0.0,0.0,0.0,0.0,0.0,0.0,0.0,0.0,0.0,0.0,0.0,0.0,0.0,0.0,0.0,0.0,0.0,0.0,0.0,0.0,0.0,0.0,0.0,0.0,0.0,0.0,0.0,0.0,0.0,0.0,0.0,0.0,0.0,0.0,0.0,0.0,0.0,0.0,0.0,0.0,0.0,0.0,0.0,0.0,0.0,0.0,0.0,0.0,0.0,0.0,0.0,0.0,0.0,0.0,0.0,0.0,0.0,0.0,0.0,0.0,0.0,0.0,0.0,0.0,0.0,0.0,0.0,0.0,0.0,0.0,0.0,0.0,0.0,0.0,0.0,0.0,0.0,0.0,0.0,0.0,0.0,0.0,0.0,0.0,0.0,0.0,0.0,0.0,0.1512,-0.2308,-0.5253,-0.7249,-0.9253,-1.0163,0.0,0.0,0.0,0.0,0.0,0.0,0.0,0.0,0.0,0.0,0.0,0.0,0.0,0.0,0.0,0.0,0.0,0.0,0.0,0.0,0.0,0.0,0.0,0.0,0.0,0.0,0.0,0.0,0.0,0.0,0.0,0.0,0.0,0.0,0.0,0.0,0.0,0.0,0.0,0.0,0.0,0.0,0.0,0.0,0.0,0.0,0.0,0.0,0.0,0.0,0.0,0.0,0.0,0.0,0.0,0.0,0.0,0.0,0.0,0.0,0.0,0.0,0.0,0.0,0.0,0.0,0.0,0.0,0.0,0.0,0.0,0.0,0.0,0.0,0.0,0.0,0.0,0.0,0.0,0.0,0.0,0.0,0.0,0.0,0.0,0.0,0.0,0.0,0.0,0.0,0.0,0.0,0.0,0.0,0.0,0.0,0.0,0.0,0.0,0.0,0.0,0.0,0.0,0.0,0.0,0.0,0.0,0.0,0.468,0.0609,-0.3596,-0.6683,-0.8575,-1.057,-1.1581,0.0,0.0,0.0,0.0,0.0,0.0,0.0,0.0,0.0,0.0,0.0,0.0,0.0,0.0,0.0,0.0,0.0,0.0,0.0,0.0,0.0,0.0,0.0,0.0,0.0,0.0,0.0,0.0,0.0,0.0,0.0,0.0,0.0,0.0,0.0,0.0,0.0,0.0,0.0,0.0,0.0,0.0,0.0,0.0,0.0,0.0,0.0,0.0,0.0,0.0,0.0,0.0,0.0,0.0,0.0,0.0,0.0,0.0,0.0,0.0,0.0,0.0,0.0,0.0,0.0,0.0,0.0,0.0,0.0,0.0,0.0,0.0,0.0,0.0,0.0,0.0,0.0,0.0,0.0,0.0,0.0,0.0,0.0,0.0,0.0,0.0,0.0,0.0,0.0,0.0,0.0,0.0,0.0,0.0,0.0,0.0,0.0,0.0,0.0,0.0,0.0,0.0,0.0,0.0,0.0,0.0,0.0,0.0,0.4015,0.0161,-0.4055,-0.7367,-0.9739,-1.1567,-1.2522,0.0,0.0,0.0,0.0,0.0,0.0,0.0,0.0,0.0,0.0,0.0,0.0,0.0,0.0,0.0,0.0,0.0,0.0,0.0,0.0,0.0,0.0,0.0,0.0,0.0,0.0,0.0,0.0,0.0,0.0,0.0,0.0,0.0,0.0,0.0,0.0,0.0,0.0,0.0,0.0,0.0,0.0,0.0,0.0,0.0,0.0,0.0,0.0,0.0,0.0,0.0,0.0,0.0,0.0,0.0,0.0,0.0,0.0,0.0,0.0,0.0,0.0,0.0,0.0,0.0,0.0,0.0,0.0,0.0,0.0,0.0,0.0,0.0,0.0,0.0,0.0,0.0,0.0,0.0,0.0,0.0,0.0,0.0,0.0,0.0,0.0,0.0,0.0,0.0,0.0,0.0,0.0,0.0,0.0,0.0,0.0,0.0,0.0,0.0,0.0,0.0,0.0,0.0,0.0,0.0,0.0,0.0,0.0,0.3184,-0.0469,-0.441,-0.7559,-0.9888,-1.1837,-1.2957,0.0,0.0,0.0,0.0,0.0,0.0,0.0,0.0,0.0,0.0,0.0,0.0,0.0,0.0,0.0,0.0,0.0,0.0,0.0,0.0,0.0,0.0,0.0,0.0,0.0,0.0,0.0,0.0,0.0,0.0,0.0,0.0,0.0,0.0,0.0,0.0,0.0,0.0,0.0,0.0,0.0,0.0,0.0,0.0,0.0,0.0,0.0,0.0,0.0908,0.0,0.0,0.0,0.0,0.0,0.0,0.0,0.0,0.0,0.0,0.0,0.0,0.0,0.0,0.0,0.0,0.0,0.0,0.0,0.0,0.0,0.0,0.0,0.0,0.0,0.0,0.0,0.0,0.0,0.0,0.0,0.0,0.0,0.0,0.0,0.0,0.0,0.0,0.0,0.0,0.0,0.0,0.0,0.0,0.0,0.0,0.0,0.0,0.0,0.0,0.0,0.0,0.0,0.0,0.0,0.0,0.0,0.0,0.0,0.2789,-0.0806,-0.4397,-0.748,-1.0011,-1.1868,-1.3035,0.0,0.0,0.0,0.0,0.0,0.0,0.0,0.0,0.0,0.0,0.0,0.0,0.0,0.0,0.0,0.0,0.0,0.0,0.0,0.0,0.0,0.0,0.0,0.0,0.0,0.0,0.0,0.0,0.0,0.0,0.0,0.0,0.0,0.0,0.0,0.0,0.0,0.0,0.0,0.0,0.0,0.0,0.0,0.0,0.0,0.0,0.0,0.0,0.0,0.0,0.0,0.0,0.0,0.0,0.0,0.0,0.0,0.0,0.0,0.0,0.0,0.0,0.0,0.0,0.0,0.0,0.0,0.0,0.0,0.0,0.0,0.0,0.0,0.0,0.0,0.0,0.0,0.0,0.0,0.0,0.0,0.0,0.0,0.0,0.0,0.0,0.0,0.0,0.0,0.0,0.0,0.0,0.0,0.0,0.0,0.0,0.0,0.0,0.0,0.0,0.0,0.0,0.0,0.0,0.0,0.0,0.0,0.6002,0.2557,-0.1068,-0.4374,-0.7367,-1.0105,-1.1778,-1.3032,-1.3836,0.0,0.0,0.0,0.0,0.0,0.0,0.0,0.0,0.0,0.0,0.0,0.0,0.0,0.0,0.0,0.0,0.0,0.0,0.0,0.0,0.0,0.0,0.0,0.0,0.0,0.0,0.0,0.0,0.0,0.0,0.0,0.0,0.0,0.0,0.0,0.0,0.0,0.0,1.25,0.8291,0.0,0.0,0.0,0.0,0.0,0.0,0.0,0.0,-0.4067,0.0,0.0,0.0,0.0,0.0,0.0,0.0,0.0,0.0,0.0,0.0,0.0,0.0,0.0,0.0,0.0,0.0,0.0,0.0,0.0,0.0,0.0,0.0,0.0,0.0,0.0,0.0,0.0,0.0,0.0,0.0,0.0,0.0,0.0,0.0,0.0,0.0,0.0,0.0,0.0,0.0,0.0,0.0,0.0,0.0,0.0,0.0,0.0,0.0,0.0,0.0,0.0,0.0,0.0,0.0,0.0,0.9093,0.5649,0.2234,-0.1217,-0.4605,-0.7568,-1.0118,-1.1863,-1.3271,-1.4247,0.0,0.0,0.0,0.0,0.0,0.0,0.0,0.0,0.0,0.0,0.0,0.0,0.0,0.0,0.0,0.0,0.0,0.0,0.0,0.0,0.0,0.0,0.0,0.0,0.0,0.0,0.0,0.0,0.0,0.0,0.0,0.0,0.0,0.0,0.0,0.0,0.0,0.0,0.0,0.7631,0.4095,0.0,0.0,0.0,0.0,0.0,0.0,0.0,0.0,-0.5701,0.0,0.0,0.0,0.0,0.0,0.0,0.0,0.0,0.0,0.0,0.0,0.0,0.0,0.0,0.0,0.0,0.0,0.0,0.0,0.0,0.0,0.0,0.0,0.0,0.0,0.0,0.0,0.0,0.0,0.0,0.0,0.0,0.0,0.0,0.0,0.0,0.0,0.0,0.0,0.0,0.0,0.0,0.0,0.0,0.0,0.0,0.0,0.0,0.0,0.0,0.0,0.0,0.0,0.0,0.0,0.8808,0.5552,0.2165,-0.1308,-0.4378,-0.7212,-0.981,-1.1388,-1.2796,0.0,0.0,0.0,0.0,0.0,0.0,0.0,0.0,0.0,0.0,0.0,0.0,0.0,0.0,0.0,0.0,0.0,0.0,0.0,0.0,0.0,0.0,0.0,0.0,0.0,0.0,0.0,0.0,0.0,0.0,0.0,0.0,0.0,0.0,0.0,0.0,0.0,0.0,0.0,0.0,0.7442,0.4284,0.0363,0.0,0.0,0.0,0.0,0.0,0.0,-0.8259,-0.8362,0.0,0.0,0.0,0.0,0.0,0.0,0.0,0.0,0.0,0.0,0.0,0.0,0.0,0.0,0.0,0.0,0.0,0.0,0.0,0.0,0.0,0.0,0.0,0.0,0.0,0.0,0.0,0.0,0.0,0.0,0.0,0.0,0.0,0.0,0.0,0.0,0.0,0.0,0.0,0.0,0.0,0.0,0.0,0.0,0.0,0.0,0.0,0.0,0.0,0.0,0.0,0.0,0.0,0.0,0.0,0.8533,0.5415,0.2112,-0.1361,-0.4054,-0.6731,-0.9332,-1.0704,-1.2024,0.0,0.0,0.0,0.0,0.0,0.0,0.0,0.0,0.0,0.0,0.0,0.0,0.0,0.0,0.0,0.0,0.0,0.0,0.0,0.0,0.0,0.0,0.0,0.0,0.0,0.0,0.0,0.0,0.0,0.0,0.0,0.0,0.0,0.0,0.0,0.0,0.0,0.0,0.0,0.0,0.0,0.428,0.0603,-0.2439,0.0,0.0,0.0,0.0,-0.9207,-0.9701,0.0,0.0,0.0,0.0,0.0,0.0,0.0,0.0,0.0,0.0,0.0,0.0,0.0,0.0,0.0,0.0,0.0,0.0,0.0,0.0,0.0,0.0,0.0,0.0,0.0,0.0,0.0,0.0,0.0,0.0,0.0,0.0,0.0,0.0,0.0,0.0,0.0,0.0,0.0,0.0,0.0,0.0,0.0,0.0,0.0,0.0,0.0,0.0,0.0,0.0,0.0,0.0,0.0,0.0,0.0,0.0,0.8219,0.5135,0.1881,-0.1454,-0.3806,-0.6167,-0.8621,-0.9798,-1.104,0.0,0.0,0.0,0.0,0.0,0.0,0.0,0.0,0.0,0.0,0.0,0.0,0.0,0.0,0.0,0.0,0.0,0.0,0.0,0.0,0.0,0.0,0.0,0.0,0.0,0.0,0.0,0.0,0.0,0.0,0.0,0.0,0.0,0.0,0.0,0.0,0.0,0.0,0.0,0.0,0.0,0.3834,0.0553,-0.2598,-0.5366,0.0,0.0,-0.9252,-1.0139,-1.0723,0.0,0.0,0.0,0.0,0.0,0.0,0.0,0.0,0.0,0.0,0.0,0.0,0.0,0.0,0.0,0.0,0.0,0.0,0.0,0.0,0.0,0.0,0.0,0.0,0.0,0.0,0.0,0.0,0.0,0.0,0.0,0.0,0.0,0.0,0.0,0.0,0.0,0.0,0.0,0.0,0.0,0.0,0.0,0.0,0.0,0.0,0.0,0.0,0.0,0.0,0.0,0.0,0.0,0.0,0.0,1.0591,0.7663,0.4675,0.1712,-0.1238,-0.3212,-0.5286,-0.7459,-0.8543,-0.9802,0.0,0.0,0.0,0.0,0.0,0.0,0.0,0.0,0.0,0.0,0.0,0.0,0.0,0.0,0.0,0.0,0.0,0.0,0.0,0.0,0.0,0.0,0.0,0.0,0.0,0.0,0.0,0.0,0.0,0.0,0.0,0.0,0.0,0.0,0.0,0.0,0.0,0.0,0.0,0.0,0.0,0.0,-0.0244,-0.3096,0.0,0.0,0.0,-1.0156,-1.1139,0.0,0.0,0.0,0.0,0.0,0.0,0.0,0.0,0.0,0.0,0.0,0.0,0.0,0.0,0.0,0.0,0.0,0.0,0.0,0.0,0.0,0.0,0.0,0.0,0.0,0.0,0.0,0.0,0.0,0.0,0.0,0.0,0.0,0.0,0.0,0.0,0.0,0.0,0.0,0.0,0.0,0.0,0.0,0.0,0.0,0.0,0.0,0.0,0.0,0.0,0.0,0.0,0.0,0.0,0.0,0.0,0.0,0.7113,0.4291,0.1602,-0.0933,-0.2591,-0.431,-0.6122,-0.7248,0.0,0.0,0.0,0.0,0.0,0.0,0.0,0.0,0.0,0.0,0.0,0.0,0.0,0.0,0.0,0.0,0.0,0.0,0.0,0.0,0.0,0.0,0.0,0.0,0.0,0.0,0.0,0.5445,0.0,0.0,0.0,0.0,0.0,0.0,0.0,0.0,0.0,0.0,0.0,0.0,0.0,0.0,0.1671,-0.1253,-0.3856,-0.6168,0.0,0.0,-1.1047,-1.2218,-1.3254,-1.4287,0.0,0.0,0.0,0.0,0.0,0.0,0.0,0.0,0.0,0.0,0.0,0.0,0.0,0.0,0.0,0.0,0.0,0.0,0.0,0.0,0.0,0.0,0.0,0.0,0.0,0.0,0.0,0.0,0.0,0.0,0.0,0.0,0.0,0.0,0.0,0.0,0.0,0.0,0.0,0.0,0.0,0.0,0.0,0.0,0.0,0.0,0.0,0.0,0.0,0.0,0.0,0.0,0.0,0.0,0.0,0.6558,0.3976,0.1515,-0.0669,-0.1987,-0.3357,-0.482,-0.6002,-0.744,0.0,0.0,0.0,0.0,0.0,0.0,0.0,0.0,0.0,0.0,0.0,0.0,0.0,0.0,0.0,0.0,0.0,0.0,0.0,0.0,0.0,0.0,0.0,0.0,0.0,0.0,0.0,0.0,0.0,0.0,0.0,0.0,0.0,0.0,0.0,0.0,0.0,0.0,0.0,0.0,0.0,0.0245,-0.2225,-0.4734,-0.7014,0.0,0.0,-1.1809,-1.3334,-1.4275,-1.5296,-1.6707,0.0,0.0,0.0,0.0,0.0,0.0,0.0,0.0,0.0,0.0,0.0,0.0,0.0,0.0,0.0,0.0,0.0,0.0,0.0,0.0,0.0,0.0,0.0,0.0,0.0,0.0,0.0,0.0,0.0,0.0,0.0,0.0,0.0,0.0,0.0,0.0,0.0,0.0,0.0,0.0,0.0,0.0,0.0,0.0,0.0,0.0,0.0,0.0,0.0,0.0,0.0,0.0,0.0,0.7798,0.5755,0.3529,0.1524,-0.0224,-0.1209,-0.2267,-0.355,-0.4942,-0.6539,0.0,0.0,0.0,0.0,0.0,0.0,0.0,0.0,0.0,0.0,0.0,0.0,0.0,0.0,0.0,0.0,0.0,0.0,0.0,0.0,0.0,0.0,0.0,0.0,0.0,0.0,0.0,0.0,0.1782,0.0669,-0.0783,0.0,0.0,0.0,0.0,0.0,0.0,0.0,0.0,0.0,0.0,-0.1386,-0.3705,-0.5921,0.0,0.0,-1.1391,-1.293,-1.4531,-1.5382,-1.6329,-1.7757,-1.819,0.0,0.0,0.0,0.0,0.0,0.0,0.0,0.0,0.0,0.0,0.0,0.0,0.0,0.0,0.0,0.0,0.0,0.0,0.0,0.0,0.0,0.0,0.0,0.0,0.0,0.0,0.0,0.0,0.0,0.0,0.0,0.0,0.0,0.0,0.0,0.0,0.0,0.0,0.0,0.0,0.0,0.0,0.0,0.0,0.0,0.0,0.0,0.0,0.0,0.0,0.0,0.0,0.664,0.4999,0.3024,0.144,0.0179,-0.0559,-0.1445,-0.2567,-0.411,-0.5922,0.0,0.0,0.0,0.0,0.0,0.0,0.0,0.0,0.0,0.0,0.0,0.0,0.0,0.0,0.0,0.0,0.0,0.0,0.0,0.0,0.0,0.0,0.0,0.0,0.0,0.0,0.0,0.0,0.0338,-0.0794,-0.1989,0.0,0.0,0.0,0.0,0.0,0.0,0.0,0.0,0.0,0.0,-0.3011,-0.5082,-0.698,-0.8806,-1.0615,-1.2202,-1.3776,-1.5448,-1.642,-1.7476,-1.8853,0.0,0.0,0.0,0.0,0.0,0.0,0.0,0.0,0.0,0.0,0.0,0.0,0.0,0.0,0.0,0.0,0.0,0.0,0.0,0.0,0.0,0.0,0.0,0.0,0.0,0.0,0.0,0.0,0.0,0.0,0.0,0.0,0.0,0.0,0.0,0.0,0.0,0.0,0.0,0.0,0.0,0.0,0.0,0.0,0.0,0.0,0.0,0.0,0.0,0.0,0.0,0.0,0.0,0.5356,0.4239,0.256,0.1303,0.0494,-0.0233,-0.0998,-0.1856,-0.3714,-0.5745,-0.7939,0.0,0.0,0.0,0.0,0.0,0.0,0.0,0.0,0.0,0.0,0.0,0.0,0.0,0.0,0.0,0.0,0.0,0.0,0.0,0.0,0.0,0.0,0.0,0.0,0.0,0.0,0.0056,-0.1208,-0.2113,0.0,0.0,0.0,0.0,0.0,0.0,0.0,0.0,0.0,0.0,-0.2867,-0.448,-0.6239,-0.7907,-0.9634,-1.1388,-1.2847,-1.428,-1.6124,-1.7426,-1.8727,0.0,0.0,0.0,0.0,0.0,0.0,0.0,0.0,0.0,0.0,0.0,0.0,0.0,0.0,0.0,0.0,0.0,0.0,0.0,0.0,0.0,0.0,0.0,0.0,0.0,0.0,0.0,0.0643,0.0693,0.0,0.0,0.0,0.0,0.0,0.0,0.0,0.0,0.0,0.0,0.0,-0.5859,-0.707,0.0,0.0,0.0,0.0,0.0,0.0,0.0,0.0,0.0,0.0,0.0,0.0,0.4184,0.3263,0.213,0.1245,0.0495,-0.0047,-0.0807,-0.1851,-0.3976,-0.7003,-1.0985,0.0,0.0,0.0,0.0,0.0,0.0,0.0,0.0,0.0,0.0,0.0,0.0,0.0,0.0,0.0,0.0,0.0,0.0,0.0,0.0,0.0,0.0,0.0,0.0,0.0,-0.09,0.0,0.0,0.0,0.0,0.0,0.0,0.0,0.0,0.0,0.0,0.0,-0.2489,-0.3421,-0.4799,-0.6247,-0.758,-0.895,-1.0449,0.0,0.0,0.0,0.0,0.0,0.0,0.0,0.0,0.0,0.0,0.0,0.0,0.0,0.0,-2.0297,-1.9126,-1.9053,-1.9501,-2.0215,0.0,0.0,0.0,0.0,0.0,0.0,0.0,0.0,0.0,0.0,0.0,0.0,0.0,0.0,0.0,0.0,-0.0586,0.0,0.0,0.0,0.0,0.0,0.0,0.0,0.0,-0.4528,-0.6343,-0.7857,-0.8954,-0.9615,0.0,-0.9199,-0.7902,0.0,0.0,0.0,0.0,0.0,0.0,0.0,0.0,0.2686,0.2114,0.1507,0.0923,0.0406,-0.0046,-0.0883,-0.2085,-0.5181,-0.8791,-1.2876,-1.5174,-1.7,0.0,0.0,0.0,0.0,0.0,0.0,0.0,0.0,0.0,0.0,0.0,0.0,0.0,0.0,0.0,0.0,0.0,0.0,0.0,0.0,0.0,0.0,0.0,-0.2742,0.0,0.0,0.0,0.0,0.0,0.0,0.0,0.0,0.0,-0.3272,-0.3696,-0.4367,-0.5236,-0.6451,-0.7672,-0.8673,0.0,0.0,0.0,0.0,0.0,0.0,0.0,-1.9551,-2.0665,-2.2072,-2.3254,-2.4085,-2.4174,-2.402,-2.3875,0.0,0.0,-2.1597,-2.1583,-2.2013,-2.2797,-2.3225,-2.3501,-2.3569,-2.3363,-2.2995,0.0,0.0,0.0,0.0,0.0,0.0,0.0,0.0,-0.3772,-0.3481,0.0,-0.2467,0.0,0.0,0.0,0.0,0.0,0.0,0.0,0.0,-0.6473,-0.8174,-0.9533,-1.053,-1.0996,-1.0954,-1.0292,-0.9648,-0.8856,-0.6117,0.0,0.0,0.0,0.0,0.0,0.0,0.0915,0.0755,0.0604,0.0438,0.0135,-0.0269,-0.1203,-0.2739,-0.7324,-1.1023,-1.3581,-1.6127,-1.8162,-1.9681,-2.0771,0.0,0.0,0.0,0.0,0.0,0.0,0.0,0.0,0.0,0.0,0.0,0.0,0.0,0.0,0.0,0.0,0.0,0.0,0.0,0.0,-0.3846,0.0,0.0,0.0,0.0,0.0,0.0,0.0,0.0,0.0,0.0,-0.491,-0.5495,-0.6218,-0.678,0.0,0.0,0.0,0.0,-1.18,-1.3265,-1.4369,-1.5573,-1.7186,-1.8433,-1.9653,-2.0983,0.0,0.0,-2.5308,-2.5252,-2.4921,-2.4957,-2.4909,-2.4672,-2.3643,-2.38,-2.4327,-2.5097,-2.5505,-2.5869,-2.6008,-2.564,-2.5119,-1.0836,0.0,0.0,0.0,0.0,-0.6477,-0.6012,-0.5574,-0.5135,-0.4792,-0.4421,-0.3747,0.0,0.0,0.0,0.0,0.0,0.0,-0.4429,-0.5647,-0.7394,-0.8833,-1.0017,-1.0664,-1.1048,-1.1099,-1.0505,-0.9847,-0.9191,-0.7714,-0.6049,-0.4264,0.0,0.0,0.0,0.0,-0.0862,-0.0656,-0.0552,-0.0436,-0.0449,-0.0851,-0.2592,-0.5694,-0.9083,-1.2041,-1.4525,-1.7452,-1.9521,-2.0582,-2.2145,0.0,0.0,0.0,0.0,0.0,0.0,0.0,0.0,0.0,0.0,0.0,0.0,0.0,0.0,0.0,0.0,0.0,0.0,0.0,-0.5265,-0.5901,-0.6369,0.0,0.0,0.0,0.0,0.0,0.0,0.0,0.0,0.0,-0.7943,-0.7616,-0.7648,0.0,0.0,-1.0169,-1.0761,-1.1621,-1.2716,-1.4276,0.0,0.0,0.0,-1.8846,-2.0144,-2.0978,-2.2648,-2.4092,-2.4505,-2.4518,-2.4439,-2.4439,-2.4451,-2.4371,-2.4487,-2.5071,-2.5607,-2.592,-2.6422,-2.6752,-2.6526,-2.6171,-2.5569,-1.1531,-1.0431,-1.0014,-0.9458,-0.8762,-0.8222,-0.7711,-0.7122,-0.6533,-0.5858,-0.5359,-0.4804,-0.429,-0.3876,-0.3636,0.0,0.0,0.0,-0.5956,-0.6848,-0.8296,-0.9471,-1.0394,-1.097,-1.1285,-1.1285,-1.0815,-1.0293,-0.9666,-0.8734,-0.7681,-0.6546,0.0,0.0,-0.3274,-0.2998,-0.2527,-0.1962,-0.1555,-0.121,-0.0987,-0.2043,-0.4213,-0.7488,-1.0276,-1.2864,-1.5265,-1.8367,-2.0436,-2.1218,-2.3031,-2.4137,0.0,0.0,0.0,0.0,0.0,0.0,0.0,0.0,0.0,0.0,0.0,-1.3661,0.0,0.0,0.0,0.0,-0.6511,-0.6431,-0.7135,-0.7532,0.0,0.0,0.0,0.0,0.0,0.0,0.0,-0.8644,-0.8915,-0.9199,-0.9797,-0.9576,-0.9441,-0.9698,-1.0417,-1.1177,-1.1819,0.0,-1.3266,-1.4689,-1.5392,-1.6139,-1.7182,-1.8474,-1.9815,-2.1289,-2.2603,-2.3658,-2.4048,-2.4137,-2.4149,-2.4201,-2.4201,-2.4277,-2.4608,-2.5393,-2.6031,-2.6052,-2.6492,-2.6713,-2.6514,-2.6091,-2.5537,-1.1759,-1.1572,-1.1236,-1.0891,-1.0456,-0.9863,-0.9214,-0.8432,-0.7625,-0.6868,-0.6047,-0.5554,-0.5205,-0.5033,-0.5113,0.0,0.0,-0.6481,-0.7286,-0.7901,-0.9169,-1.005,-1.055,-1.1248,-1.1575,-1.1456,-1.112,-1.0726,-1.0258,-0.9319,-0.8854,-0.8799,-0.7012,-0.5737,-0.516,-0.4758,-0.4121,-0.3307,-0.2494,-0.1929,-0.157,-0.3608,-0.5901,-0.8324,-1.1069,-1.3548,-1.5802,-1.8931,-2.0968,-2.1674,-2.3561,-2.4682,-2.4814,0.0,0.0,0.0,0.0,0.0,0.0,0.0,0.0,0.0,0.0,0.0,0.0,0.0,0.0,0.0,-0.8487,0.0,-0.8563,-0.8944,0.0,0.0,0.0,-0.9209,-0.9435,-0.927,-0.9348,-0.9938,0.0,0.0,-1.0754,0.0,-1.121,-1.0682,-1.1278,-1.1967,-1.2572,-1.292,-1.3569,-1.4747,-1.5204,-1.5771,-1.689,-1.7823,-1.9254,-2.1495,-2.2469,-2.2946,-2.3553,-2.374,-2.3827,-2.39,-2.4012,-2.406,-2.4182,-2.4861,-2.555,-2.5533,-2.588,-2.6136,-2.5977,-2.5641,-2.5123,-1.1461,-1.1467,-1.1394,-1.1071,-1.0713,-1.016,-0.9624,-0.9064,-0.8079,-0.7185,-0.6471,-0.5963,-0.548,-0.5258,-0.5337,-0.5628,-0.6051,-0.6904,-0.7547,-0.8147,-0.8895,-0.9561,-1.0144,-1.0562,-1.0858,-1.1014,-1.0858,-1.0648,-1.0446,-0.9873,-0.9566,-0.9499,-0.8676,-0.786,-0.7047,-0.6355,-0.5626,-0.4837,-0.3691,-0.2952,-0.2682,-0.4552,-0.6752,-0.9106,-1.1892,-1.4354,-1.6417,-1.9419,-2.1351,-2.1994,-2.3844,-2.4949,-2.5103,-2.5049,0.0,0.0,0.0,0.0,0.0,0.0,0.0,0.0,0.0,-1.644,-1.5029,0.0,-1.1986,0.0,-1.037,-1.0132,-1.0279,-1.0816,0.0,0.0,-1.107,-1.1141,-1.0922,-1.0647,-1.0599,-1.0948,-1.0783,-1.0719,-1.1,-1.149,-1.172,-1.1576,-1.206,-1.2536,-1.2866,-1.3572,-1.4313,-1.509,-1.5698,-1.6383,-1.7193,-1.8473,-1.9713,-2.0969,-2.1412,-2.1691,-2.2058,-2.2198,-2.2242,-2.2299,-2.2483,-2.2652,-2.2972,-2.3218,-2.3533,-2.3874,-2.5101,-2.5954,-2.5175,-2.461,-2.3968,-1.0962,-1.0828,-1.0701,-1.052,-1.0296,-1.0263,-0.9982,-0.9422,-0.8273,-0.7366,-0.6674,-0.624,-0.6009,-0.6009,-0.6173,-0.6529,-0.7002,-0.7601,-0.8015,-0.8259,-0.877,-0.915,-0.9504,-0.9891,-1.0246,-1.0432,-1.0424,-1.0384,-1.0238,-0.9921,-0.9774,-0.9807,-0.9572,-0.9178,-0.8699,-0.7617,-0.6623,-0.5813,-0.4403,-0.3729,-0.3894,-0.5671,-0.7833,-1.024,-1.2916,-1.5391,-1.7659,-2.0173,-2.1924,-2.2842,-2.4304,-2.5186,-2.5284,-2.5182,-2.5005,0.0,0.0,0.0,0.0,0.0,0.0,0.0,0.0,0.0,0.0,0.0,-1.3593,0.0,-1.1895,0.0,-1.1858,-1.2026,-1.2123,-1.2021,-1.1949,-1.1868,-1.1866,-1.1523,-1.1447,-1.1593,-1.1516,-1.1485,-1.1621,-1.2098,-1.226,-1.2051,-1.2555,-1.306,-1.3396,-1.3851,-1.4388,-1.5148,-1.5451,-1.5898,-1.6878,-1.8001,-1.9036,-1.9738,-2.0122,-2.0376,-2.0441,-2.0843,-2.1168,-2.1221,-2.1627,-2.218,-2.2658,-2.2937,-2.3148,-2.3482,-2.4409,-2.4842,-2.4091,-2.354,-2.2955,-1.0301,-1.004,-0.9793,-0.9686,-0.9708,-1.0257,-1.0126,-0.9491,-0.834,-0.7399,-0.6662,-0.6393,-0.6434,-0.6733,-0.6983,-0.737,-0.778,-0.8132,-0.8281,-0.8266,-0.8671,-0.8855,-0.8857,-0.9368,-0.9744,-0.9956,-1.0137,-1.0137,-1.0001,-0.9947,-0.9939,-0.9939,-1.0024,-1.0026,-0.993,-0.8587,-0.7406,-0.6355,-0.5081,-0.4674,-0.5242,-0.7024,-0.9158,-1.1629,-1.4153,-1.6645,-1.9054,-2.1087,-2.2665,-2.3793,-2.4801,-2.5354,-2.5404,-2.5225,-2.5041,0.0,-2.4335,0.0,0.0,0.0,0.0,0.0,0.0,0.0,0.0,-1.6511,-1.4934,-1.3571,-1.3356,-1.3252,-1.3183,-1.2944,-1.2859,-1.31,-1.2577,-1.2328,-1.2542,-1.2198,-1.2013,-1.2112,-1.2076,-1.2114,-1.2226,-1.26,-1.2618,-1.2266,-1.2841,-1.3414,-1.3849,-1.3856,-1.4128,-1.4907,-1.4849,-1.5353,-1.6452,-1.7126,-1.7824,-1.8586,-1.9032,-1.9152,-1.9215,-1.9757,-2.0302,-2.0489,-2.1067,-2.181,-2.2644,-2.294,-2.3234,-2.3306,-2.3596,-2.3599,-2.3119,-2.2791,-2.2432,-0.982,-0.9766,-0.9706,-0.9686,-0.9706,-0.9616,-0.9475,-0.9201,-0.846,-0.7575,-0.6673,-0.6237,-0.6192,-0.639,-0.6576,-0.6795,-0.7103,-0.7504,-0.7746,-0.7827,-0.8311,-0.8732,-0.8989,-0.9552,-1.001,-1.029,-1.057,-1.0651,-1.0606,-1.0606,-1.0633,-1.066,-1.0474,-1.028,-0.9966,0.0,0.0,0.0,-0.6277,-0.6385,-0.6963,-0.8789,-1.0865,-1.3165,-1.5968,0.0,-1.9939,-2.2199,-2.364,-2.4114,-2.5033,0.0,0.0,0.0,0.0,0.0,0.0,0.0,0.0,0.0,0.0,0.0,-2.0038,-1.932,-1.9331,-1.7456,-1.5938,-1.5089,-1.4697,-1.4469,-1.4231,-1.4162,-1.4016,-1.3823,-1.3834,-1.3777,-1.3568,-1.3045,-1.2652,-1.2193,-1.1927,-1.1722,-1.1709,-1.1908,-1.2167,-1.2273,-1.2837,-1.3385,-1.3802,-1.3886,-1.4048,-1.4572,-1.5112,-1.5862,-1.6635,-1.7278,-1.7772,-1.8221,-1.8554,-1.8742,-1.8823,-1.9133,-1.9469,-1.9647,-1.9989,-2.0443,-2.0868,-2.1048,-2.1536,-2.2116,-2.229,-2.2395,-2.2649,-2.2519,-2.2143,-0.9385,0.0,-0.9252,-0.9252,0.0,-0.9141,-0.9007,-0.8786,-0.8363,-0.7577,-0.6681,-0.6452,-0.6452,-0.6602,-0.6824,-0.7056,-0.7296,-0.7589,-0.7701,-0.7656,-0.8109,-0.8349,-0.8415,-0.8939,-0.9254,-0.9475,-0.9674,-0.9832,-0.9862,-0.996,-1.0039,-1.0098,-1.0087,-1.0066,-0.9929,-0.9762,-0.8855,-0.7211,-0.7531,-0.8098,-0.8911,-1.0849,-1.2855,-1.4913,0.0,0.0,0.0,0.0,0.0,0.0,0.0,0.0,0.0,0.0,0.0,-2.4799,-2.4336,-2.3741,-2.3028,-2.2324,-2.1786,-2.1436,-2.0548,-1.9631,-1.8758,-1.756,-1.6504,-1.556,-1.4998,-1.4648,-1.4611,-1.4427,-1.433,-1.4319,-1.411,-1.3864,-1.3697,-1.3149,-1.2679,-1.2388,-1.22,-1.2077,-1.196,-1.2231,-1.2477,-1.2582,-1.2975,-1.3418,-1.3647,-1.3827,-1.4102,-1.4534,-1.5229,-1.5902,-1.6397,-1.6907,-1.7363,-1.7619,-1.793,-1.8135,-1.8222,-1.8722,-1.9212,-1.9398,-1.9863,-2.0316,-2.0557,-2.0724,-2.1007,-2.1464,-2.1608,-2.1641,-2.1922,-2.2152,-2.218,-0.9025,-0.8804,-0.8797,-0.8776,-0.8776,-0.8677,-0.8517,-0.828,0.0,0.0,0.0,-0.6758,-0.6782,-0.6937,-0.7132,-0.7389,-0.7563,-0.7669,-0.7652,-0.754,-0.7824,-0.7893,-0.7829,-0.8244,-0.8522,-0.8608,-0.8848,-0.8984,-0.9052,-0.9231,-0.9365,-0.9489,-0.9743,-0.9961,-1.0086,-1.014,-0.9581,-0.8464,-0.8881,-0.9743,-1.0891,-1.2801,-1.4705,-1.6588,-1.8802,-2.0751,-2.235,-2.3567,-2.465,-2.557,-2.5606,-2.5574,-2.5511,-2.5337,-2.5099,-2.4832,-2.4371,-2.3844,-2.3189,-2.2538,-2.1993,-2.1589,-2.0914,-1.9763,-1.7984,-1.7575,-1.6951,-1.5763,-1.507,-1.4717,-1.472,-1.4334,-1.4242,-1.4522,-1.4013,-1.3593,-1.3519,-1.3026,-1.2674,-1.2514,-1.2506,-1.2517,-1.2483,-1.269,-1.2938,-1.2936,-1.3217,-1.3601,-1.3803,-1.4087,-1.4365,-1.4831,-1.5359,-1.5828,-1.6244,-1.6658,-1.6934,-1.7332,-1.7528,-1.7707,-1.799,-1.8535,-1.9057,-1.9302,-1.9945,-2.0349,-2.0585,-2.0662,-2.0914,-2.1152,-2.1182,-2.1171,-2.124,-2.1701,-2.2064,-0.899,-0.8935,-0.8772,-0.8669,-0.8612,-0.8352,-0.8119,-0.7948,-0.7681,-0.7425,-0.72,-0.6969,-0.6887,-0.692,-0.6999,-0.7062,-0.7085,-0.71,-0.7164,0.0,-0.7258,-0.7483,-0.782,-0.8317,-0.8743,-0.9106,-0.9365,-0.9566,-0.9665,-0.9754,-0.9918,-1.0155,-1.0444,-1.0653,-1.0828,-1.0573,-1.0478,-1.0536,-1.0587,-1.1307,-1.2785,-1.4209,-1.5907,-1.788,-1.9691,-2.1301,-2.2666,-2.3716,-2.4724,-2.5624,-2.5693,-2.5642,-2.5585,-2.5387,-2.5165,-2.4883,-2.4435,-2.3928,-2.3374,-2.278,-2.1919,-2.0807,-2.057,-2.0024,-1.9006,-1.8261,-1.7472,-1.6428,-1.5687,-1.5206,-1.4859,-1.4336,-1.4042,-1.4055,-1.3853,-1.3652,-1.3469,-1.3332,-1.3049,-1.2643,-1.2606,-1.2565,-1.2572,-1.2598,-1.2788,-1.3106,-1.3524,-1.3931,-1.4638,-1.4822,-1.4925,-1.5277,-1.5768,-1.6219,-1.668,-1.7089,-1.7434,-1.7679,-1.7988,-1.8226,-1.8397,-1.8691,-1.8959,-1.9147,-1.9473,-1.9616,-1.9819,-1.9768,-2.0139,-2.0646,-2.0765,-2.0861,-2.1213,-2.1462,-2.1459,-0.8572,-0.8658,-0.856,-0.8504,-0.849,-0.8082,-0.7951,-0.793,-0.7636,-0.7432,-0.7341,-0.6978,-0.6784,-0.68,-0.6767,-0.6742,-0.6852,-0.6986,-0.7101,-0.7242,-0.7444,-0.7653,-0.7847,-0.8262,-0.8602,-0.8828,-0.907,-0.931,-0.95,-0.9683,-0.9903,-1.012,-1.0571,-1.0755,-1.0627,-1.0644,-1.0848,-1.1278,-1.1675,-1.2413,-1.3579,-1.4877,-1.6448,-1.8256,-1.9728,-2.1006,-2.2166,-2.3088,-2.3805,-2.4269,-2.4746,-2.4959,-2.4905,-2.5173,-2.5225,-2.4917,-2.4551,-2.41,-2.3588,-2.2721,-2.1816,-2.0926,-2.0539,-1.9997,-1.9181,-1.8512,-1.7539,-1.6255,-1.544,-1.4832,-1.4532,-1.4162,-1.3929,-1.4005,-1.3787,-1.3547,-1.3456,-1.3152,-1.2963,-1.2802,-1.2764,-1.2788,-1.2871,-1.2997,-1.3238,-1.361,-1.4118,-1.4812,-1.5501,-1.58,-1.592,-1.602,-1.6367,-1.6795,-1.7214,-1.7598,-1.7922,-1.8187,-1.8475,-1.8693,-1.8936,-1.9087,-1.9213,-1.9435,-1.9545,-1.9632,-1.9792,-1.9827,-1.9978,-2.018,-2.033,-2.0459,-2.0633,-2.0693,-2.078,-0.8254,-0.8443,-0.8357,-0.8293,-0.8215,-0.787,-0.7845,-0.7947,-0.765,-0.7517,-0.7439,-0.7024,-0.6763,-0.6712,-0.667,-0.6702,-0.6876,-0.7087,-0.726,-0.7427,-0.7714,-0.7888,-0.7941,-0.8317,-0.8576,-0.8739,-0.8996,-0.9254,-0.9504,-0.9804,-1.007,-1.0363,-1.075,-1.0829,-1.0629,-1.072,-1.1026,-1.145,-1.2143,-1.3048,-1.4195,-1.5346,-1.6674,-1.8156,-1.9161,-2.0225,-2.1344,-2.2061,-2.262,-2.3088,-2.3745,-2.4095,-2.4062,-2.4523,-2.4697,-2.4409,-2.4095,-2.3784,-2.3404,-2.2461,-2.1723,-2.1305,-2.0715,-2.0035,-1.925,-1.8615,-1.7574,-1.6113,-1.5165,-1.449,-1.4234,-1.3861,-1.3649,-1.3789,-1.3564,-1.3379,-1.333,-1.3027,-1.2832,-1.292,-1.3017,-1.3162,-1.342,-1.3658,-1.3941,-1.4373,-1.5051,-1.5668,-1.6151,-1.6667,-1.6921,-1.7005,-1.7131,-1.7449,-1.7882,-1.8201,-1.8514,-1.8784,-1.8997,-1.9236,-1.9472,-1.9545,-1.9654,-1.9833,-1.9919,-1.9955,-2.0041,-2.0076,-2.0076,-2.0137,-2.0152,-2.0122,-2.0183,-2.0167,-2.0258,-0.8381,-0.8533,-0.8446,-0.8157,-0.7794,-0.763,-0.7699,-0.787,-0.7611,-0.7632,-0.7765,-0.7361,-0.7008,-0.6848,-0.6956,-0.709,-0.7245,-0.7323,-0.7471,-0.7646,-0.7706,-0.7911,-0.8265,-0.862,-0.8999,-0.9384,-0.9673,-1.0021,-1.0383,-1.0599,-1.1042,-1.1568,-1.1302,-1.1215,-1.1377,-1.1009,-1.0968,-1.1321,-1.1706,-1.2957,-1.5059,-1.5706,-1.656,-1.7725,-1.7987,-1.8871,-2.0371,-2.0609,-2.141,-2.2917,-2.3109,-2.3202,-2.3186,-2.3162,-2.3057,-2.2862,-2.2634,-2.2492,-2.2476,-2.1955,-2.1643,-2.1703,-2.1163,-2.042,-1.9513,-1.8755,-1.7814,-1.6471,-1.5433,-1.4627,-1.3921,-1.3511,-1.3272,-1.3126,-1.3077,-1.2939,-1.3008,-1.3017,-1.3113,-1.317,-1.343,-1.3716,-1.4025,-1.4305,-1.4731,-1.5355,-1.5864,-1.6398,-1.6854,-1.7366,-1.7801,-1.8066,-1.8173,-1.8279,-1.8616,-1.8921,-1.9221,-1.9515,-1.966,-1.9803,-1.996,-2.0065,-2.0115,-2.0239,-2.0254,-2.0289,-2.0304,-2.027,-2.0304,-2.0323,-2.0323,-2.032,-2.027,-2.0357,-2.0443,-0.7997,-0.8208,-0.821,-0.8074,-0.7848,-0.7654,-0.7691,-0.7866,-0.7644,-0.7593,-0.7652,-0.753,-0.7343,-0.7051,-0.7107,-0.7183,-0.7358,-0.759,-0.7838,-0.8119,-0.8275,-0.8523,-0.8916,-0.9316,-0.9701,-1.0121,-1.0492,-1.0847,-1.123,-1.1645,-1.1882,-1.1905,-1.1793,-1.1441,-1.0839,-1.0675,-1.0753,-1.1035,-1.1285,-1.2149,-1.3564,-1.4399,-1.5489,-1.687,-1.7113,-1.7637,-1.8702,-1.8857,-1.9216,-2.0025,-2.0978,-2.1562,-2.1569,-2.2444,-2.2869,-2.266,-2.2319,-2.2036,-2.1858,-2.1409,-2.1014,-2.075,-2.0213,-1.9657,-1.9224,-1.8419,-1.7603,-1.6915,-1.5852,-1.4892,-1.4222,-1.3705,-1.3314,-1.3132,-1.3084,-1.3094,-1.32,-1.3238,-1.3382,-1.3621,-1.3905,-1.4233,-1.4686,-1.522,-1.5788,-1.6355,-1.6799,-1.7216,-1.768,-1.8187,-1.864,-1.9029,-1.9229,-1.9317,-1.9339,-1.9536,-1.9823,-2.0085,-2.0224,-2.0345,-2.053,-2.0563,-2.0597,-2.0697,-2.0697,-2.0697,-2.073,-2.073,-2.073,-2.0714,-2.0795,-2.0827,-2.0811,-2.0893,-2.0878,-0.7607,-0.7923,-0.7929,-0.7878,-0.7818,-0.7648,-0.766,-0.7837,-0.7673,-0.7636,-0.7743,-0.7765,-0.7763,-0.7623,-0.7446,-0.7482,-0.7743,-0.805,-0.8361,-0.8668,-0.8981,-0.9292,-0.9636,-1.0059,-1.0476,-1.0888,-1.13,-1.1725,-1.2171,-1.2703,-1.2683,-1.2252,-1.2164,-1.1547,-1.0519,-1.0386,-1.0437,-1.063,-1.0759,-1.1318,-1.2257,-1.2931,-1.4092,-1.5742,-1.615,-1.6649,-1.7428,-1.749,-1.761,-1.792,-1.9142,-1.9805,-1.9871,-2.1169,-2.197,-2.1985,-2.1649,-2.1392,-2.1294,-2.0852,-2.0486,-2.0123,-1.9545,-1.909,-1.8728,-1.8012,-1.7437,-1.713,-1.6203,-1.5233,-1.4628,-1.414,-1.3705,-1.3457,-1.3399,-1.3457,-1.36,-1.3647,-1.3894,-1.4233,-1.4628,-1.5051,-1.5623,-1.6256,-1.6896,-1.7325,-1.7706,-1.8092,-1.8549,-1.9058,-1.9449,-1.9829,-2.0246,-2.0296,-2.0019,-2.0193,-2.0481,-2.0665,-2.0829,-2.0926,-2.1103,-2.115,-2.115,-2.1245,-2.1229,-2.1229,-2.1245,-2.1229,-2.1244,-2.1244,-2.1323,-2.1401,-2.1401,-2.1477,-2.1552,-0.7356,-0.7852,-0.7772,-0.7584,-0.7352,-0.7392,-0.7555,-0.778,-0.7659,-0.7831,-0.8199,-0.8157,-0.8326,-0.8695,-0.8277,-0.8181,-0.8546,-0.8838,-0.9135,-0.9401,-0.9713,-1.0072,-1.0478,-1.0786,-1.1242,-1.1748,-1.2105,-1.2624,-1.3288,-1.3658,-1.3503,-1.2824,-1.2287,-1.1632,-1.0822,-1.022,-0.9986,-1.011,-1.0189,-1.061,-1.1447,-1.1616,-1.2586,-1.416,-1.501,-1.5825,-1.6541,-1.6652,-1.7005,-1.7835,-1.8031,-1.8143,-1.8201,-1.8966,-1.972,-2.0203,-2.0134,-2.022,-2.0559,-2.0334,-2.0156,-2.0246,-1.9656,-1.913,-1.8437,-1.7685,-1.717,-1.7019,-1.631,-1.559,-1.4991,-1.4584,-1.4269,-1.4025,-1.3978,-1.4061,-1.4165,-1.4408,-1.4628,-1.5017,-1.5511,-1.6083,-1.6921,-1.7476,-1.7841,-1.8212,-1.8588,-1.8991,-1.9383,-1.9778,-2.0162,-2.0583,-2.0959,-2.1086,-2.0781,-2.0878,-2.115,-2.1352,-2.1505,-2.1582,-2.1675,-2.1751,-2.1781,-2.1764,-2.1777,-2.1777,-2.1764,-2.1764,-2.1807,-2.1836,-2.1878,-2.1924,-2.1994,-2.2022,-2.2119,-0.666,-0.722,-0.7295,-0.7311,-0.7293,-0.732,-0.7475,-0.7675,-0.7704,-0.797,-0.8421,-0.8684,-0.9097,-0.9584,-0.9703,-0.9613,-0.9482,-0.9715,-0.9995,-1.0305,-1.0647,-1.0987,-1.1358,-1.1719,-1.2132,-1.2577,-1.2941,-1.3437,-1.3997,-1.4291,-1.3771,-1.2734,-1.242,-1.1698,-1.0579,-1.0159,-1.0066,-1.0135,-1.0146,-1.0337,-1.0822,-1.1736,-1.2676,-1.326,-1.4109,-1.4954,-1.5804,-1.5821,-1.5977,-1.6313,-1.6828,-1.7168,-1.7244,-1.7928,-1.8421,-1.8614,-1.8953,-1.9171,-1.9229,-1.9423,-1.9399,-1.9129,-1.862,-1.8259,-1.7887,-1.7334,-1.6892,-1.6775,-1.6362,-1.5802,-1.5346,-1.5085,-1.4949,-1.4766,-1.4801,-1.4846,-1.5062,-1.5242,-1.5522,-1.5983,-1.6532,-1.7216,-1.7746,-1.8341,-1.8755,-1.9118,-1.9485,-1.9864,-2.0212,-2.0601,-2.0959,-2.1319,-2.1698,-2.196,-2.2096,-2.1799,-2.1803,-2.2005,-2.2147,-2.2231,-2.232,-2.2358,-2.2368,-2.2358,-2.2358,-2.2358,-2.2358,-2.2341,-2.2368,-2.2395,-2.2449,-2.2485,-2.2565,-2.2617,-2.2738,-0.5675,-0.6142,-0.6527,-0.6819,-0.7029,-0.7235,-0.7526,-0.7862,-0.8106,-0.8473,-0.8989,-0.9458,-1.0007,-1.0494,-1.0832,-1.0962,-1.0832,-1.0824,-1.095,-1.1254,-1.1584,-1.1928,-1.2258,-1.2604,-1.3009,-1.3405,-1.381,-1.4235,-1.4576,-1.4773,-1.4159,-1.2978,-1.2681,-1.1873,-1.0731,-1.0517,-1.0543,-1.0605,-1.0859,-1.1034,-1.1166,-1.2148,-1.2918,-1.3227,-1.3753,-1.4498,-1.536,-1.5403,-1.5407,-1.549,-1.5973,-1.6406,-1.6733,-1.7182,-1.7573,-1.7754,-1.8114,-1.8392,-1.8483,-1.8716,-1.8744,-1.8495,-1.8031,-1.7686,-1.7524,-1.6952,-1.6713,-1.6648,-1.6366,-1.5956,-1.5872,-1.5747,-1.5501,-1.5198,-1.5143,-1.5314,-1.5471,-1.5627,-1.5976,-1.6453,-1.6979,-1.7584,-1.8127,-1.8491,-1.8971,-1.95,-1.9971,-2.0414,-2.0943,-2.1397,-2.1757,-2.2074,-2.2388,-2.2678,-2.2838,-2.2745,-2.2583,-2.2712,-2.2729,-2.284,-2.2865,-2.2923,-2.2923,-2.2933,-2.2933,-2.2933,-2.2915,-2.294,-2.2947,-2.2972,-2.3021,-2.3069,-2.3159,-2.323,-2.33,-0.4345,-0.4624,-0.5439,-0.5971,-0.6507,-0.7136,-0.7763,-0.8512,-0.8923,-0.9447,-1.0042,-1.0501,-1.1074,-1.1533,-1.166,-1.1989,-1.2461,-1.2135,-1.1993,-1.2215,-1.2488,-1.28,-1.3159,-1.3457,-1.3806,-1.4176,-1.4644,-1.4883,-1.4956,-1.507,-1.4676,-1.3844,-1.3093,-1.2347,-1.1407,-1.138,-1.1391,-1.1536,-1.2078,-1.2501,-1.2681,-1.2726,-1.3146,-1.3825,-1.4043,-1.4506,-1.5365,-1.5401,-1.5412,-1.542,-1.5446,-1.582,-1.6473,-1.6617,-1.6918,-1.7446,-1.7605,-1.7907,-1.8429,-1.8302,-1.8398,-1.8539,-1.8203,-1.776,-1.7322,-1.6833,-1.657,-1.6608,-1.6402,-1.6192,-1.638,-1.6284,-1.5905,-1.5222,-1.5248,-1.5364,-1.5465,-1.5612,-1.6014,-1.6656,-1.7145,-1.7305,-1.7667,-1.817,-1.8749,-1.9515,-2.0122,-2.0705,-2.1504,-2.2012,-2.2485,-2.2754,-2.301,-2.3287,-2.3486,-2.3617,-2.3508,-2.3441,-2.3374,-2.3374,-2.3392,-2.3419,-2.3419,-2.3414,-2.3392,-2.3397,-2.3414,-2.3437,-2.3441,-2.3464,-2.3566,-2.361,-2.3653,-2.3696,-2.378,-0.0742,-0.1362,-0.2705,-0.425,-0.5823,-0.7212,-0.8578,-0.9965,-1.0464,-1.0872,-1.1317,-1.1796,-1.2279,-1.2657,-1.2906,-1.3228,-1.3618,-1.3532,-1.34,-1.3242,-1.3374,-1.3613,-1.3888,-1.416,-1.4462,-1.4799,-1.5003,-1.5107,-1.5143,-1.5215,-1.4811,-1.3997,-1.3616,-1.2993,-1.2194,-1.2118,-1.2079,-1.2117,-1.2352,-1.2481,-1.2553,-1.3127,-1.3593,-1.3885,-1.4472,-1.4999,-1.5248,-1.5349,-1.5401,-1.5415,-1.5403,-1.5527,-1.5737,-1.5797,-1.586,-1.6094,-1.654,-1.7068,-1.7689,-1.8087,-1.8401,-1.866,-1.8403,-1.7992,-1.7579,-1.7134,-1.6843,-1.6678,-1.6399,-1.6261,-1.6174,-1.6083,-1.5995,-1.5915,-1.5973,-1.6036,-1.6229,-1.6673,-1.7165,-1.7543,-1.7832,-1.8099,-1.8388,-1.8638,-1.8961,-1.9579,-2.0344,-2.1155,-2.1653,-2.2471,-2.3153,-2.3446,-2.3681,-2.3828,-2.4005,-2.4137,-2.4118,-2.4005,-2.3928,-2.3846,-2.3864,-2.3903,-2.3903,-2.3883,-2.3864,-2.3864,-2.3883,-2.3903,-2.3923,-2.3963,-2.4002,-2.4059,-2.4097,-2.4136,-2.4192,0.2692,0.1436,0.0562,-0.1861,-0.4962,-0.6283,-0.8101,-1.0228,-1.1213,-1.1852,-1.2321,-1.2761,-1.3157,-1.3483,-1.3793,-1.3961,-1.4096,-1.4222,-1.4132,-1.394,-1.4073,-1.4279,-1.4466,-1.4707,-1.4915,-1.5093,-1.5172,-1.5173,-1.5174,-1.5167,-1.4848,-1.4297,-1.3888,-1.3398,-1.2851,-1.2753,-1.2738,-1.2764,-1.3046,-1.3212,-1.3357,-1.3838,-1.4141,-1.4247,-1.478,-1.5089,-1.5138,-1.5221,-1.531,-1.5351,-1.5389,-1.5405,-1.541,-1.5421,-1.5381,-1.5501,-1.6029,-1.674,-1.7422,-1.8082,-1.862,-1.8922,-1.8753,-1.8342,-1.7967,-1.7591,-1.7263,-1.6977,-1.6789,-1.6607,-1.6421,-1.6351,-1.6401,-1.6573,-1.6393,-1.6451,-1.6753,-1.7121,-1.7448,-1.766,-1.79,-1.8211,-1.8477,-1.8692,-1.9068,-1.9566,-2.031,-2.1096,-2.1604,-2.2542,-2.3133,-2.3694,-2.4025,-2.4221,-2.4503,-2.4617,-2.4678,-2.4567,-2.4456,-2.4353,-2.4319,-2.4319,-2.4319,-2.4319,-2.4301,-2.4301,-2.4319,-2.4319,-2.4355,-2.4391,-2.4425,-2.4441,-2.4474,-2.4519,-2.4564,0.5896,0.3889,0.4035,0.0989,-0.3577,-0.4287,-0.6387,-0.938,-1.1014,-1.2031,-1.2733,-1.3124,-1.3516,-1.3785,-1.3864,-1.3961,-1.4097,-1.4047,-1.4089,-1.4177,-1.4336,-1.4515,-1.481,-1.4997,-1.5112,-1.5147,-1.5163,-1.5124,-1.5077,-1.4985,-1.4899,-1.4606,-1.395,-1.3495,-1.3353,-1.3323,-1.3313,-1.3385,-1.3995,-1.4352,-1.447,-1.4538,-1.4625,-1.4682,-1.4782,-1.4904,-1.4966,-1.5043,-1.5152,-1.5276,-1.5363,-1.5387,-1.5385,-1.539,-1.5403,-1.5428,-1.6097,-1.6851,-1.7567,-1.8247,-1.8858,-1.9313,-1.9118,-1.8771,-1.8403,-1.8104,-1.7825,-1.7591,-1.7429,-1.728,-1.7134,-1.7077,-1.7101,-1.7085,-1.6791,-1.6631,-1.6738,-1.7041,-1.7363,-1.7505,-1.7574,-1.781,-1.8199,-1.835,-1.8796,-1.9401,-1.9953,-2.0626,-2.1296,-2.2201,-2.2936,-2.345,-2.3902,-2.4252,-2.4403,-2.4898,-2.4948,-2.4955,-2.4866,-2.4771,-2.4693,-2.4697,-2.4712,-2.4716,-2.4697,-2.4697,-2.4716,-2.4731,-2.4731,-2.4746,-2.479,-2.4818,-2.4842,-2.4858,-2.4879,0.917,0.7791,0.6344,0.3532,-0.0011,-0.2107,-0.4945,-0.798,-0.9633,-1.0865,-1.1782,-1.2453,-1.2735,-1.2952,-1.3096,-1.3187,-1.3149,-1.3299,-1.3425,-1.3537,-1.3718,-1.4239,-1.479,-1.4994,-1.5043,-1.5018,-1.4973,-1.4929,-1.4867,-1.4707,-1.453,-1.443,-1.4075,-1.386,-1.384,-1.371,-1.3738,-1.3756,-1.3961,-1.4126,-1.4178,-1.4241,-1.4314,-1.4426,-1.4489,-1.4594,-1.471,-1.4863,-1.5024,-1.5192,-1.5295,-1.5329,-1.5336,-1.5313,-1.5365,-1.5527,-1.6162,-1.6926,-1.7704,-1.8448,-1.9098,-1.9669,-1.9494,-1.9203,-1.8921,-1.8646,-1.8404,-1.8206,-1.8063,-1.7958,-1.7851,-1.7834,-1.792,-1.7983,-1.7563,-1.7346,-1.7535,-1.7764,-1.7979,-1.8208,-1.8329,-1.85,-1.8681,-1.8821,-1.901,-1.9497,-2.0074,-2.0615,-2.1157,-2.1858,-2.2621,-2.3008,-2.3411,-2.3886,-2.434,-2.4918,-2.5226,-2.5272,-2.5207,-2.5138,-2.505,-2.4993,-2.5018,-2.5049,-2.4996,-2.4996,-2.5041,-2.5061,-2.508,-2.5034,-2.5057,-2.5083,-2.5113,-2.5126,-2.5147,1.1593,1.0736,0.9007,0.6025,0.2468,0.0324,-0.2655,-0.5981,-0.7806,-0.9323,-1.0452,-1.1003,-1.1273,-1.1466,-1.1576,-1.1646,-1.1743,-1.1978,-1.2173,-1.244,-1.2817,-1.3577,-1.4325,-1.4635,-1.4719,-1.4719,-1.4682,-1.4578,-1.4447,-1.4286,-1.4107,-1.3917,-1.3828,-1.3745,-1.3624,-1.363,-1.3615,-1.3598,-1.3646,-1.3676,-1.3704,-1.3748,-1.3818,-1.3944,-1.4046,-1.4186,-1.4382,-1.4563,-1.4789,-1.5044,-1.5182,-1.5226,-1.523,-1.5248,-1.5413,-1.5775,-1.6611,-1.748,-1.8248,-1.9049,-1.9618,-1.9908,-1.9821,-1.9643,-1.9425,-1.9191,-1.8977,-1.8801,-1.8734,-1.8664,-1.8574,-1.8574,-1.8681,-1.8747,-1.8574,-1.8394,-1.8336,-1.8501,-1.8699,-1.8886,-1.9031,-1.9136,-1.9295,-1.9374,-1.9492,-1.9726,-2.0138,-2.0448,-2.0766,-2.1551,-2.2109,-2.2377,-2.2917,-2.3456,-2.4006,-2.4587,-2.5179,-2.5288,-2.5372,-2.5335,-2.5263,-2.5194,-2.5232,-2.5258,-2.5266,-2.5266,-2.5266,-2.5286,-2.5255,-2.5244,-2.5318,-2.5333,-2.5328,-2.5318,-2.5344,1.3142,1.2586,1.1383,0.828,0.4309,0.2935,0.0185,-0.3461,-0.529,-0.7021,-0.844,-0.8969,-0.9122,-0.9528,-0.9546,-0.975,-0.9909,-1.0263,-1.0763,-1.1258,-1.1909,-1.2739,-1.3521,-1.3979,-1.4144,-1.4186,-1.418,-1.4051,-1.3877,-1.374,-1.3539,-1.334,-1.3227,-1.316,-1.3091,-1.3089,-1.3107,-1.3108,-1.3125,-1.3193,-1.3227,-1.3261,-1.3327,-1.344,-1.3563,-1.3739,-1.3949,-1.4161,-1.4401,-1.4831,-1.4995,-1.5063,-1.5055,-1.5157,-1.5632,-1.6416,-1.7256,-1.8192,-1.8917,-1.9627,-2.0184,-2.0138,-2.0064,-1.9964,-1.981,-1.9654,-1.9543,-1.9375,-1.9369,-1.9286,-1.9221,-1.9236,-1.9309,-1.9413,-1.9517,-1.942,-1.9193,-1.9177,-1.9314,-1.9451,-1.9599,-1.9714,-1.9819,-1.9896,-1.9972,-1.9958,-2.025,-2.0332,-2.0521,-2.0958,-2.1336,-2.1515,-2.2208,-2.3056,-2.3614,-2.4191,-2.4807,-2.5245,-2.537,-2.5388,-2.5356,-2.5321,-2.5366,-2.5405,-2.5371,-2.5375,-2.5394,-2.5394,-2.5379,-2.5407,-2.5414,-2.546,-2.5486,-2.5444,-2.5451,1.249,1.186,1.08,0.9132,0.7036,0.5262,0.297,0.0366,-0.1628,-0.353,-0.4897,-0.5884,-0.6519,-0.6951,-0.7348,-0.7622,-0.8053,-0.8578,-0.9288,-1.0454,-1.1054,-1.1604,-1.2275,-1.2958,-1.3444,-1.3539,-1.3587,-1.3448,-1.3224,-1.3059,-1.2884,-1.2697,-1.2514,-1.2418,-1.2415,-1.2447,-1.2521,-1.2562,-1.2617,-1.2708,-1.2764,-1.2801,-1.2838,-1.2932,-1.3057,-1.3227,-1.3404,-1.3624,-1.3842,-1.4118,-1.4484,-1.47,-1.4925,-1.5478,-1.5956,-1.6479,-1.7658,-1.8595,-1.8943,-1.9624,-2.0162,-2.0168,-2.0135,-2.0148,-2.0126,-2.0012,-1.9923,-1.9856,-1.985,-1.981,-1.9752,-1.98,-1.9844,-1.9903,-1.9976,-2.0031,-1.9959,-1.9821,-1.9808,-1.9894,-2.0,-2.0083,-2.0097,-2.0138,-2.0199,-2.0263,-2.0265,-2.0295,-2.0385,-2.0527,-2.0664,-2.0874,-2.1326,-2.2183,-2.3231,-2.3888,-2.4654,-2.5047,-2.5176,-2.525,-2.5222,-2.5266,-2.5247,-2.5351,-2.5468,-2.5468,-2.541,-2.543,-2.541,-2.5448,-2.5467,-2.5445,-2.5442,-2.5471,-2.5464,1.1689,1.1008,1.0117,0.9045,0.7796,0.6215,0.4666,0.3059,0.1026,-0.0703,-0.2073,-0.3281,-0.4081,-0.4685,-0.527,-0.5785,-0.6508,-0.7521,-0.8634,-0.9626,-1.0269,-1.0756,-1.1185,-1.1779,-1.2288,-1.2742,-1.2849,-1.2706,-1.2539,-1.2329,-1.2127,-1.1957,-1.1779,-1.1679,-1.1694,-1.1751,-1.1815,-1.1879,-1.1978,-1.2077,-1.2118,-1.2174,-1.224,-1.2345,-1.2508,-1.2665,-1.2777,-1.3005,-1.3227,-1.3453,-1.3789,-1.4186,-1.464,-1.5357,-1.5977,-1.6651,-1.7624,-1.8661,-1.9095,-1.9516,-1.9892,-1.9973,-2.0046,-2.0104,-2.0145,-2.0132,-2.0138,-2.0097,-2.0083,-2.0094,-2.0081,-2.0082,-2.0133,-2.0173,-2.0219,-2.0261,-2.0264,-2.0161,-2.0109,-2.0184,-2.0205,-2.0231,-2.0268,-2.0234,-2.0229,-2.0197,-2.0158,-2.0166,-2.0131,-2.0231,-2.0216,-2.0385,-2.0623,-2.1346,-2.261,-2.3598,-2.4532,-2.4791,-2.4841,-2.4898,-2.4899,-2.496,-2.5043,-2.5175,-2.5274,-2.5342,-2.5294,-2.5352,-2.5347,-2.5323,-2.5313,-2.5346,-2.5335,-2.5311,-2.5299,1.0855,1.0222,0.9442,0.8607,0.7666,0.6523,0.5526,0.4558,0.2766,0.108,-0.0,-0.1123,-0.2199,-0.2867,-0.3644,-0.4327,-0.5491,-0.6836,-0.8178,-0.8989,-0.9557,-1.0059,-1.0456,-1.0753,-1.1105,-1.1797,-1.2,-1.1953,-1.1785,-1.1571,-1.1373,-1.1144,-1.0996,-1.0922,-1.0936,-1.0959,-1.1038,-1.1107,-1.1259,-1.1363,-1.1408,-1.149,-1.1564,-1.1702,-1.1936,-1.2066,-1.2173,-1.2372,-1.2584,-1.2842,-1.2989,-1.342,-1.408,-1.5098,-1.5887,-1.6753,-1.7642,-1.847,-1.898,-1.9316,-1.9476,-1.9567,-1.9764,-1.9907,-1.9959,-2.0022,-2.0081,-2.0113,-2.0109,-2.0134,-2.0173,-2.0129,-2.0162,-2.0204,-2.0233,-2.0237,-2.0237,-2.0243,-2.0191,-2.0272,-2.0215,-2.0201,-2.0161,-2.0128,-2.0125,-2.0106,-2.0049,-1.9981,-1.9918,-1.9866,-1.9815,-1.981,-2.0003,-2.0746,-2.1994,-2.2835,-2.3827,-2.4257,-2.4358,-2.4298,-2.4323,-2.4328,-2.4412,-2.4885,-2.5032,-2.5043,-2.5024,-2.5024,-2.5034,-2.5111,-2.5081,-2.5004,-2.5032,-2.5098,-2.5079,1.0396,0.9841,0.9116,0.8344,0.754,0.6554,0.5581,0.4648,0.3338,0.2219,0.1129,0.0066,-0.0966,-0.1831,-0.2659,-0.3926,-0.5449,-0.6734,-0.7666,-0.8428,-0.8976,-0.9434,-0.9699,-0.9893,-1.0121,-1.0394,-1.0837,-1.1107,-1.102,-1.0831,-1.0613,-1.0396,-1.021,-1.011,-1.0084,-1.0058,-1.0158,-1.032,-1.0481,-1.0626,-1.0746,-1.0893,-1.1001,-1.1127,-1.1355,-1.1453,-1.1542,-1.176,-1.1993,-1.2143,-1.2388,-1.2662,-1.3291,-1.4727,-1.5728,-1.6391,-1.7435,-1.8235,-1.8556,-1.875,-1.8883,-1.9039,-1.9203,-1.9401,-1.9556,-1.9697,-1.9786,-1.9899,-1.9961,-2.0011,-2.0024,-1.9969,-2.0,-2.0031,-1.9972,-1.9944,-1.9931,-1.9887,-1.9887,-1.9973,-2.0027,-2.006,-1.9956,-1.9837,-1.9754,-1.9652,-1.9545,-1.9462,-1.9364,-1.9341,-1.9309,-1.9313,-1.9345,-2.0307,-2.1396,-2.2093,-2.2868,-2.3398,-2.3517,-2.3417,-2.3449,-2.3476,-2.3702,-2.3951,-2.4342,-2.4511,-2.4544,-2.4568,-2.4549,-2.4492,-2.4553,-2.4595,-2.4576,-2.4553,-2.4624,1.0008,0.9372,0.864,0.7878,0.7059,0.6198,0.5363,0.4483,0.3445,0.26,0.1702,0.0569,-0.0468,-0.137,-0.2332,-0.3792,-0.5387,-0.6419,-0.7275,-0.7994,-0.8477,-0.8811,-0.9035,-0.9182,-0.9251,-0.9425,-0.974,-1.0109,-1.0261,-1.0122,-0.9893,-0.9661,-0.9437,-0.9304,-0.9266,-0.9269,-0.9322,-0.9492,-0.9636,-0.9791,-0.9995,-1.0222,-1.0409,-1.057,-1.0753,-1.0859,-1.093,-1.115,-1.14,-1.1542,-1.1745,-1.1984,-1.2596,-1.3497,-1.4768,-1.5564,-1.6672,-1.7496,-1.7774,-1.799,-1.8136,-1.8313,-1.8539,-1.8782,-1.8956,-1.9113,-1.9306,-1.9456,-1.9537,-1.9582,-1.9541,-1.9545,-1.9531,-1.9468,-1.9442,-1.9442,-1.9417,-1.9332,-1.935,-1.9454,-1.9529,-1.9543,-1.9569,-1.9463,-1.9337,-1.9199,-1.9063,-1.8917,-1.8801,-1.8697,-1.8644,-1.8645,-1.8682,-1.9446,-2.0365,-2.0982,-2.1762,-2.2338,-2.2561,-2.2478,-2.2418,-2.241,-2.2513,-2.2729,-2.3159,-2.3557,-2.3859,-2.3802,-2.384,-2.3859,-2.3859,-2.3877,-2.397,-2.4007,-2.4026,0.9584,0.8881,0.8114,0.7306,0.6441,0.5636,0.4859,0.406,0.3122,0.2405,0.1845,0.0603,-0.0469,-0.137,-0.2524,-0.3921,-0.5494,-0.6213,-0.6948,-0.7549,-0.7927,-0.8231,-0.84,-0.8484,-0.8512,-0.8568,-0.8684,-0.8953,-0.9437,-0.9398,-0.917,-0.8942,-0.8695,-0.8529,-0.8473,-0.8396,-0.8434,-0.8546,-0.8701,-0.8892,-0.9174,-0.953,-0.9816,-0.9919,-1.0186,-1.0336,-1.0386,-1.0594,-1.0811,-1.0987,-1.1159,-1.1378,-1.1674,-1.2194,-1.3121,-1.4323,-1.5366,-1.6166,-1.666,-1.7133,-1.7306,-1.7507,-1.7817,-1.8052,-1.8237,-1.8431,-1.8661,-1.8828,-1.8909,-1.8924,-1.8856,-1.8843,-1.8845,-1.8794,-1.8744,-1.8712,-1.8662,-1.8574,-1.8449,-1.859,-1.8845,-1.8943,-1.8893,-1.8899,-1.8751,-1.8556,-1.8389,-1.8218,-1.8075,-1.7893,-1.783,-1.7847,-1.8048,-1.8633,-1.9261,-1.9677,-2.0495,-2.1238,-2.1332,-2.1229,-2.1231,-2.1234,-2.1365,-2.1446,-2.1731,-2.2125,-2.2563,-2.3005,-2.3,-2.2988,-2.3065,-2.3088,-2.3076,-2.314,-2.3186,0.907,0.8308,0.7492,0.6575,0.5683,0.4941,0.4119,0.3282,0.2461,0.1667,0.1001,0.0033,-0.0865,-0.1781,-0.3131,-0.4332,-0.5255,-0.5998,-0.6579,-0.7098,-0.7325,-0.7501,-0.7647,-0.7724,-0.7724,-0.7772,-0.7839,-0.8248,-0.8584,-0.8612,-0.8501,-0.8277,-0.7993,-0.7763,-0.7647,-0.7492,-0.7452,-0.7569,-0.7772,-0.8096,-0.8529,-0.886,-0.9066,-0.9277,-0.9516,-0.9751,-0.9867,-1.0059,-1.0273,-1.046,-1.0608,-1.0801,-1.1005,-1.1113,-1.1551,-1.2594,-1.3865,-1.5191,-1.5443,-1.5999,-1.6454,-1.6677,-1.6954,-1.7197,-1.7451,-1.7701,-1.7918,-1.8014,-1.8096,-1.8119,-1.8081,-1.8058,-1.8038,-1.7962,-1.7866,-1.782,-1.777,-1.7654,-1.7562,-1.7513,-1.771,-1.7948,-1.8064,-1.8131,-1.8156,-1.7928,-1.7715,-1.7512,-1.7285,-1.7044,-1.6815,-1.6763,-1.6837,-1.7379,-1.8016,-1.8451,-1.9139,-2.0007,-2.0076,-2.0005,-1.9989,-2.0008,-2.0054,-2.0162,-2.0445,-2.0782,-2.1272,-2.1673,-2.1928,-2.2057,-2.1989,-2.2033,-2.2139,-2.2221,-2.2214,0.8364,0.7703,0.6729,0.5768,0.4865,0.4424,0.3584,0.2491,0.1698,0.0967,0.0298,-0.0482,-0.1345,-0.2331,-0.3442,-0.4277,-0.5013,-0.564,-0.616,-0.6535,-0.6708,-0.679,-0.685,-0.6889,-0.6927,-0.6948,-0.7038,-0.7178,-0.7521,-0.782,-0.7859,-0.7579,-0.7296,-0.7059,-0.688,-0.6669,-0.6609,-0.6751,-0.699,-0.7384,-0.7782,-0.8096,-0.8389,-0.8634,-0.8887,-0.9078,-0.9239,-0.9449,-0.9633,-0.9816,-0.9957,-1.0122,-1.0223,-1.0298,-1.0454,-1.0779,-1.1856,-1.3132,-1.4279,-1.5049,-1.547,-1.5818,-1.6123,-1.6433,-1.6703,-1.6938,-1.7092,-1.7164,-1.7228,-1.7235,-1.7188,-1.714,-1.7092,-1.7044,-1.6922,-1.6848,-1.6765,-1.668,-1.6604,-1.6559,-1.6533,-1.6749,-1.6946,-1.7067,-1.71,-1.7068,-1.6822,-1.6584,-1.6296,-1.5982,-1.5745,-1.5532,-1.5668,-1.592,-1.6576,-1.7146,-1.7725,-1.8462,-1.8786,-1.874,-1.8731,-1.8731,-1.8844,-1.8933,-1.9134,-1.9521,-2.0008,-2.0377,-2.0719,-2.0799,-2.0831,-2.091,-2.0972,-2.0926,-2.094,0.7742,0.7055,0.6014,0.4985,0.4039,0.3728,0.2768,0.153,0.0885,0.0294,-0.0354,-0.1076,-0.1943,-0.2757,-0.3501,-0.4187,-0.4782,-0.5314,-0.5712,-0.599,-0.6114,-0.6129,-0.6121,-0.6129,-0.6137,-0.6168,-0.6305,-0.6397,-0.6557,-0.6829,-0.7029,-0.6901,-0.67,-0.6435,-0.6191,-0.5967,-0.5875,-0.5906,-0.6236,-0.6592,-0.6952,-0.7316,-0.7618,-0.7917,-0.8163,-0.8389,-0.8557,-0.875,-0.8942,-0.9197,-0.9266,-0.9398,-0.9516,-0.9516,-0.9569,-0.9858,-1.0561,-1.1415,-1.263,-1.3553,-1.4279,-1.4703,-1.5125,-1.5424,-1.589,-1.6083,-1.6165,-1.6215,-1.6285,-1.6285,-1.6258,-1.6204,-1.615,-1.6025,-1.5915,-1.5846,-1.5762,-1.5647,-1.5547,-1.5461,-1.5418,-1.5403,-1.5602,-1.5841,-1.5982,-1.6107,-1.5945,-1.565,-1.5316,-1.4957,-1.4685,-1.4453,-1.4602,-1.4802,-1.5348,-1.5962,-1.6477,-1.6943,-1.729,-1.749,-1.7545,-1.7679,-1.788,-1.7907,-1.7987,-1.8118,-1.8522,-1.9001,-1.9483,-1.9596,-1.9688,-1.9718,-1.9718,-1.9718,-1.9773,0.7357,0.6295,0.5349,0.4364,0.3302,0.2425,0.1532,0.0665,0.0127,-0.0433,-0.1035,-0.1822,-0.2421,-0.3064,-0.356,-0.4106,-0.4623,-0.5161,-0.5425,-0.5554,-0.5547,-0.5508,-0.5477,-0.5453,-0.5421,-0.5508,-0.5658,-0.5758,-0.5828,-0.6068,-0.6283,-0.6382,-0.616,-0.5897,-0.5585,-0.532,-0.5188,-0.5219,-0.5487,-0.5774,-0.6106,-0.6449,-0.679,-0.7098,-0.7355,-0.7637,-0.7956,-0.8107,-0.8294,-0.8584,-0.8574,-0.864,-0.8778,-0.8778,-0.8805,-0.9044,-0.9459,-1.0135,-1.0895,-1.1984,-1.2588,-1.2995,-1.3585,-1.4397,-1.4989,-1.5137,-1.5182,-1.5242,-1.5345,-1.5345,-1.5301,-1.5256,-1.5168,-1.5078,-1.4943,-1.4821,-1.4729,-1.4606,-1.4481,-1.4383,-1.4388,-1.4516,-1.4465,-1.4753,-1.5032,-1.5168,-1.4914,-1.4637,-1.426,-1.3887,-1.3637,-1.3472,-1.3611,-1.389,-1.4295,-1.4808,-1.5245,-1.5642,-1.6034,-1.6262,-1.6403,-1.6587,-1.6938,-1.6993,-1.7063,-1.7047,-1.7089,-1.7666,-1.8101,-1.8391,-1.8559,-1.8608,-1.8684,-1.876,-1.8797,0.7317,0.6273,0.5161,0.405,0.2922,0.1935,0.1037,0.0266,-0.0253,-0.0822,-0.1424,-0.1965,-0.2454,-0.2951,-0.3488,-0.3992,-0.447,-0.4884,-0.5136,-0.5169,-0.5106,-0.4947,-0.489,-0.4852,-0.4845,-0.4979,-0.5163,-0.5358,-0.546,-0.5642,-0.5662,-0.5742,-0.5768,-0.5453,-0.5144,-0.4756,-0.4564,-0.4622,-0.4776,-0.5055,-0.5439,-0.5774,-0.6121,-0.6427,-0.6717,-0.694,-0.7148,-0.7375,-0.7579,-0.7724,-0.7839,-0.7925,-0.8011,-0.8021,-0.8088,-0.8231,-0.8624,-0.8908,-0.9448,-1.068,-1.1921,-1.2611,-1.3014,-1.3458,-1.4137,-1.4315,-1.4379,-1.441,-1.4442,-1.4428,-1.4442,-1.4333,-1.4192,-1.4141,-1.4025,-1.3828,-1.3729,-1.3617,-1.3517,-1.3424,-1.3654,-1.3887,-1.3803,-1.3707,-1.4004,-1.4208,-1.3907,-1.3617,-1.3281,-1.2941,-1.272,-1.2578,-1.2715,-1.2867,-1.326,-1.3625,-1.395,-1.4351,-1.479,-1.5028,-1.5309,-1.5756,-1.602,-1.612,-1.6207,-1.6238,-1.6312,-1.6459,-1.6828,-1.7327,-1.7544,-1.7585,-1.768,-1.7814,-1.7881,0.7376,0.6372,0.5255,0.4055,0.286,0.1869,0.1037,0.0265,-0.0186,-0.0806,-0.1471,-0.1837,-0.228,-0.2763,-0.3311,-0.3833,-0.4317,-0.4685,-0.4922,-0.4922,-0.4794,-0.457,-0.4473,-0.4436,-0.4436,-0.4581,-0.4924,-0.5183,-0.5412,-0.5596,-0.5745,-0.5732,-0.5518,-0.5326,-0.4756,-0.4285,-0.4031,-0.4053,-0.4242,-0.4494,-0.4884,-0.5226,-0.5571,-0.5882,-0.6168,-0.6352,-0.6526,-0.6721,-0.688,-0.7008,-0.7127,-0.7207,-0.7237,-0.7296,-0.7403,-0.752,-0.7686,-0.7868,-0.8524,-0.9569,-1.1016,-1.1734,-1.2064,-1.2634,-1.3257,-1.3555,-1.3589,-1.3622,-1.3576,-1.3542,-1.3555,-1.3361,-1.3247,-1.3179,-1.3007,-1.2847,-1.2777,-1.2672,-1.2567,-1.2496,-1.2804,-1.3073,-1.2986,-1.2878,-1.2962,-1.3122,-1.2963,-1.2695,-1.2449,-1.215,-1.1875,-1.1828,-1.1871,-1.2038,-1.2205,-1.2584,-1.2943,-1.3107,-1.3527,-1.3935,-1.4272,-1.4755,-1.522,-1.5389,-1.5433,-1.5457,-1.5522,-1.5632,-1.5952,-1.638,-1.6625,-1.6866,-1.6964,-1.7131,-1.7131,0.754,0.6592,0.5605,0.4407,0.322,0.2266,0.1468,0.0725,0.0239,-0.0345,-0.1068,-0.1552,-0.2064,-0.2565,-0.3152,-0.3718,-0.4214,-0.4603,-0.4806,-0.4774,-0.457,-0.4344,-0.4188,-0.4091,-0.4177,-0.4411,-0.4794,-0.519,-0.5512,-0.5843,-0.6048,-0.6032,-0.5796,-0.5385,-0.4622,-0.4031,-0.3705,-0.3672,-0.3878,-0.4151,-0.4473,-0.4826,-0.5169,-0.5453,-0.5742,-0.5928,-0.6044,-0.616,-0.6321,-0.6482,-0.6482,-0.6557,-0.6669,-0.6669,-0.6768,-0.6987,-0.7068,-0.7275,-0.7608,-0.8481,-0.957,-1.0715,-1.1231,-1.1703,-1.2432,-1.2756,-1.2826,-1.2836,-1.2708,-1.2591,-1.2496,-1.2389,-1.2306,-1.2187,-1.2006,-1.1898,-1.1825,-1.1715,-1.1594,-1.1652,-1.1905,-1.2149,-1.2092,-1.2038,-1.2015,-1.202,-1.1952,-1.1774,-1.1568,-1.14,-1.1155,-1.1165,-1.118,-1.1267,-1.1452,-1.1654,-1.1917,-1.2003,-1.2258,-1.2745,-1.3273,-1.3888,-1.4272,-1.4606,-1.4755,-1.4812,-1.4755,-1.4744,-1.5119,-1.5433,-1.5957,-1.6262,-1.6349,-1.6491,-1.6522,0.7521,0.6631,0.5805,0.4966,0.4043,0.2958,0.2065,0.1316,0.0677,0.0085,-0.045,-0.0992,-0.1692,-0.2345,-0.2888,-0.3487,-0.4087,-0.4325,-0.4479,-0.457,-0.4307,-0.4118,-0.3966,-0.3902,-0.398,-0.4327,-0.4767,-0.5246,-0.562,-0.6,-0.6129,-0.6115,-0.5926,-0.5352,-0.4777,-0.4247,-0.3906,-0.381,-0.3894,-0.4053,-0.4361,-0.4696,-0.4959,-0.519,-0.549,-0.5656,-0.5727,-0.5861,-0.5994,-0.6089,-0.6089,-0.6129,-0.6199,-0.6199,-0.6253,-0.6399,-0.649,-0.6791,-0.7177,-0.7872,-0.875,-0.9816,-1.0597,-1.1046,-1.1796,-1.2054,-1.2066,-1.1993,-1.1884,-1.1763,-1.1653,-1.1468,-1.1356,-1.1207,-1.1094,-1.0981,-1.0905,-1.0743,-1.0659,-1.0853,-1.1045,-1.1534,-1.1657,-1.1251,-1.1105,-1.0944,-1.083,-1.0899,-1.0753,-1.0613,-1.044,-1.0533,-1.057,-1.0596,-1.0729,-1.0863,-1.0906,-1.0914,-1.1225,-1.1625,-1.2258,-1.2986,-1.3426,-1.3768,-1.3967,-1.4176,-1.4071,-1.4014,-1.4154,-1.4536,-1.504,-1.5546,-1.5812,-1.5957,-1.6057,0.7501,0.673,0.6037,0.5352,0.4628,0.3621,0.2737,0.1935,0.1215,0.0652,0.017,-0.0428,-0.1144,-0.1949,-0.2606,-0.3125,-0.3811,-0.4021,-0.4151,-0.4242,-0.4026,-0.3884,-0.3827,-0.3779,-0.3983,-0.4321,-0.4792,-0.5265,-0.5748,-0.6111,-0.6337,-0.6357,-0.6097,-0.5748,-0.5192,-0.4716,-0.4226,-0.4156,-0.4186,-0.4376,-0.4676,-0.4939,-0.5218,-0.5388,-0.5591,-0.5719,-0.5732,-0.5785,-0.5878,-0.5937,-0.6003,-0.6029,-0.608,-0.6039,-0.6059,-0.6101,-0.622,-0.6598,-0.7091,-0.7402,-0.8335,-0.9394,-0.9936,-1.0506,-1.1089,-1.1308,-1.1319,-1.1244,-1.1105,-1.0905,-1.0743,-1.0524,-1.037,-1.0215,-1.0099,-1.0021,-0.9991,-0.9864,-0.9707,-0.9897,-1.015,-1.0657,-1.1013,-1.0561,-1.0206,-0.9929,-0.9672,-0.9805,-0.992,-0.9944,-0.9917,-1.0046,-1.0069,-1.0095,-1.0067,-1.0027,-0.9997,-0.9865,-1.0277,-1.0736,-1.1342,-1.207,-1.2521,-1.2919,-1.316,-1.3304,-1.3228,-1.3276,-1.3362,-1.3637,-1.4097,-1.4606,-1.5175,-1.5367,-1.5468,0.7569,0.6846,0.6237,0.5617,0.496,0.421,0.3361,0.2503,0.1912,0.1376,0.0909,0.0121,-0.0586,-0.1339,-0.2217,-0.2827,-0.3257,-0.3532,-0.3728,-0.3793,-0.37,-0.3673,-0.369,-0.3682,-0.3913,-0.4347,-0.4817,-0.5285,-0.5786,-0.6266,-0.6604,-0.6745,-0.6466,-0.6133,-0.5668,-0.5174,-0.4688,-0.4547,-0.457,-0.4745,-0.4985,-0.534,-0.5565,-0.5776,-0.5963,-0.6041,-0.6084,-0.6134,-0.6226,-0.6319,-0.6449,-0.6543,-0.6507,-0.6341,-0.6268,-0.6244,-0.6236,-0.6635,-0.7063,-0.7349,-0.771,-0.8571,-0.8985,-0.9706,-1.027,-1.0524,-1.0524,-1.0447,-1.0293,-1.0021,-0.9776,-0.9588,-0.935,-0.9239,-0.9119,-0.9079,-0.9088,-0.8999,-0.882,-0.889,-0.9131,-0.9454,-0.9744,-0.9505,-0.9226,-0.8888,-0.8696,-0.8766,-0.8947,-0.9433,-0.9503,-0.9752,-0.9771,-0.9691,-0.9576,-0.9467,-0.9287,-0.9249,-0.9562,-1.0028,-1.0635,-1.115,-1.1592,-1.203,-1.2325,-1.2433,-1.2344,-1.2353,-1.2452,-1.2822,-1.3198,-1.3815,-1.4387,-1.472,-1.4903,0.7472,0.6708,0.6199,0.5703,0.5232,0.4628,0.3943,0.3191,0.2669,0.2185,0.1722,0.1002,0.0194,-0.0621,-0.1326,-0.2034,-0.257,-0.3003,-0.3237,-0.3307,-0.334,-0.3378,-0.3424,-0.3549,-0.3849,-0.4217,-0.4712,-0.5215,-0.5708,-0.6264,-0.6611,-0.6696,-0.6489,-0.6239,-0.593,-0.5582,-0.5163,-0.4893,-0.4899,-0.505,-0.5252,-0.5523,-0.5782,-0.6014,-0.6208,-0.6246,-0.6277,-0.6307,-0.6375,-0.6428,-0.6585,-0.668,-0.668,-0.6579,-0.6528,-0.6435,-0.6399,-0.6502,-0.6902,-0.7065,-0.7321,-0.7699,-0.8005,-0.86,-0.9244,-0.9628,-0.9667,-0.9588,-0.9478,-0.927,-0.903,-0.8797,-0.8594,-0.8472,-0.839,-0.8357,-0.8316,-0.8136,-0.7964,-0.7866,-0.8082,-0.8348,-0.8558,-0.8535,-0.8223,-0.7932,-0.7744,-0.7838,-0.8147,-0.8668,-0.9083,-0.9385,-0.9445,-0.9351,-0.9167,-0.8988,-0.8784,-0.8685,-0.8995,-0.9309,-0.9769,-1.0226,-1.0736,-1.1091,-1.1434,-1.1443,-1.1368,-1.1469,-1.166,-1.1959,-1.2344,-1.3016,-1.3589,-1.392,-1.4201,0.7481,0.6829,0.6329,0.5835,0.5334,0.4922,0.4403,0.3886,0.336,0.2834,0.2332,0.1733,0.1001,0.0133,-0.0566,-0.127,-0.1973,-0.2408,-0.2676,-0.2805,-0.2911,-0.3004,-0.3136,-0.3345,-0.3685,-0.4079,-0.4486,-0.4952,-0.5475,-0.5964,-0.6349,-0.6447,-0.6319,-0.611,-0.5879,-0.5594,-0.5338,-0.5126,-0.5101,-0.526,-0.5426,-0.5703,-0.5951,-0.6162,-0.6363,-0.6441,-0.6512,-0.6551,-0.6648,-0.6779,-0.7003,-0.7165,-0.7128,-0.7069,-0.6824,-0.6711,-0.6619,-0.6694,-0.6935,-0.6956,-0.7093,-0.7134,-0.7189,-0.7467,-0.7964,-0.8423,-0.8626,-0.8716,-0.8675,-0.8561,-0.8316,-0.8118,-0.7946,-0.7773,-0.7739,-0.7663,-0.7489,-0.7314,-0.7118,-0.6927,-0.7082,-0.7315,-0.7419,-0.7409,-0.7362,-0.7135,-0.7144,-0.7267,-0.7633,-0.821,-0.8641,-0.8985,-0.9084,-0.905,-0.8835,-0.858,-0.8368,-0.8262,-0.848,-0.8791,-0.9054,-0.9517,-1.0072,-1.0328,-1.0482,-1.0549,-1.0659,-1.0761,-1.0905,-1.1209,-1.1519,-1.1999,-1.2579,-1.3102,-1.3341,0.7608,0.7056,0.6521,0.5905,0.534,0.5119,0.4839,0.4541,0.3906,0.3351,0.2827,0.2335,0.1667,0.09,0.0133,-0.0501,-0.1138,-0.1673,-0.204,-0.2239,-0.2408,-0.2552,-0.2804,-0.31,-0.3366,-0.3808,-0.4215,-0.4615,-0.5067,-0.5567,-0.5959,-0.6136,-0.6007,-0.5793,-0.5588,-0.5323,-0.5082,-0.4923,-0.5024,-0.5249,-0.5625,-0.5973,-0.6307,-0.6561,-0.6723,-0.682,-0.6945,-0.7091,-0.7251,-0.744,-0.7626,-0.7713,-0.7732,-0.7571,-0.7255,-0.7029,-0.6878,-0.6868,-0.6935,-0.6912,-0.6862,-0.6816,-0.6653,-0.6605,-0.6979,-0.744,-0.7724,-0.7807,-0.7773,-0.7773,-0.7607,-0.7523,-0.7398,-0.7321,-0.7286,-0.7209,-0.7034,-0.6732,-0.6392,-0.6233,-0.6306,-0.65,-0.6637,-0.6644,-0.6736,-0.6496,-0.6562,-0.672,-0.7123,-0.7762,-0.8262,-0.8664,-0.8792,-0.8802,-0.8534,-0.8262,-0.7943,-0.7943,-0.8109,-0.8268,-0.858,-0.8995,-0.9458,-0.9666,-0.988,-0.9932,-1.0035,-1.0138,-1.0293,-1.0506,-1.0804,-1.1065,-1.156,-1.208,-1.253,0.784,0.7187,0.6466,0.5959,0.5655,0.5428,0.5075,0.464,0.425,0.3796,0.3375,0.2856,0.2332,0.1669,0.0896,0.0266,-0.0267,-0.0926,-0.1336,-0.1567,-0.1767,-0.2055,-0.2316,-0.2585,-0.2962,-0.341,-0.3791,-0.4278,-0.4785,-0.5211,-0.5534,-0.5663,-0.5534,-0.5371,-0.5188,-0.4927,-0.4709,-0.4543,-0.4626,-0.4927,-0.5323,-0.5707,-0.605,-0.6307,-0.6483,-0.666,-0.6787,-0.695,-0.7118,-0.728,-0.7663,-0.7912,-0.8111,-0.787,-0.7628,-0.7375,-0.7148,-0.7079,-0.6945,-0.6865,-0.6745,-0.6532,-0.6313,-0.6105,-0.6184,-0.6562,-0.6816,-0.6852,-0.6894,-0.6937,-0.6937,-0.6937,-0.6901,-0.6865,-0.6836,-0.6708,-0.6581,-0.6142,-0.5707,-0.562,-0.562,-0.5755,-0.589,-0.5976,-0.6019,-0.611,-0.6214,-0.639,-0.6712,-0.7212,-0.796,-0.8332,-0.8592,-0.8554,-0.8262,-0.8055,-0.7842,-0.7729,-0.7842,-0.8002,-0.8162,-0.858,-0.8995,-0.9106,-0.9271,-0.9368,-0.9465,-0.9569,-0.9725,-0.9932,-1.0087,-1.0293,-1.0506,-1.0889,-1.1451,0.8042,0.7452,0.6717,0.6206,0.5921,0.5696,0.5341,0.4856,0.4539,0.414,0.3655,0.3202,0.2769,0.2338,0.1598,0.0935,0.0485,-0.0161,-0.0577,-0.087,-0.1158,-0.1473,-0.1748,-0.2083,-0.2466,-0.2921,-0.349,-0.4031,-0.4512,-0.487,-0.5111,-0.5193,-0.5067,-0.4941,-0.4757,-0.4535,-0.4316,-0.4144,-0.4144,-0.4368,-0.4849,-0.5188,-0.562,-0.5922,-0.6184,-0.6367,-0.6575,-0.6781,-0.6943,-0.7238,-0.7655,-0.7912,-0.8036,-0.7931,-0.7765,-0.7516,-0.7301,-0.7118,-0.6985,-0.6823,-0.6623,-0.6404,-0.6007,-0.5755,-0.5496,-0.5836,-0.5879,-0.5964,-0.6227,-0.627,-0.6398,-0.6398,-0.6483,-0.6489,-0.6361,-0.6233,-0.5976,-0.5626,-0.5275,-0.5053,-0.5145,-0.5371,-0.555,-0.5669,-0.5761,-0.5853,-0.5974,-0.6178,-0.6455,-0.6856,-0.7556,-0.8097,-0.833,-0.8421,-0.8268,-0.8008,-0.7788,-0.7735,-0.7676,-0.7895,-0.8109,-0.8262,-0.8474,-0.8639,-0.8798,-0.885,-0.8949,-0.9106,-0.9159,-0.9368,-0.9465,-0.9517,-0.9673,-0.988,-1.0336,0.8213,0.7686,0.7074,0.6551,0.6144,0.5922,0.5472,0.4983,0.4688,0.4288,0.3748,0.3379,0.3038,0.2624,0.2156,0.1566,0.1032,0.0516,0.0152,-0.0188,-0.0518,-0.0858,-0.1221,-0.1647,-0.209,-0.2629,-0.3256,-0.3696,-0.4173,-0.449,-0.4699,-0.4739,-0.4679,-0.4552,-0.4416,-0.424,-0.4016,-0.3884,-0.3884,-0.3932,-0.4232,-0.4622,-0.5101,-0.5496,-0.5804,-0.6024,-0.6276,-0.6483,-0.6689,-0.7105,-0.7482,-0.778,-0.7912,-0.787,-0.7697,-0.7489,-0.7328,-0.716,-0.6985,-0.6829,-0.6623,-0.6319,-0.5793,-0.5448,-0.5193,-0.5067,-0.5154,-0.5236,-0.5458,-0.5674,-0.5804,-0.5884,-0.597,-0.6013,-0.5884,-0.5804,-0.5453,-0.5149,-0.4884,-0.4622,-0.4806,-0.5033,-0.5217,-0.5382,-0.5505,-0.5629,-0.5787,-0.606,-0.6352,-0.6822,-0.7396,-0.787,-0.819,-0.8215,-0.8115,-0.8062,-0.7901,-0.7735,-0.7729,-0.7895,-0.8002,-0.8049,-0.8103,-0.8268,-0.8374,-0.848,-0.8586,-0.8745,-0.8798,-0.885,-0.8784,-0.8823,-0.9099,-0.9256,-0.9406,0.8213,0.751,0.7116,0.6747,0.6372,0.5819,0.5279,0.4801,0.4343,0.3972,0.3712,0.3456,0.3166,0.2826,0.2346,0.1869,0.1505,0.111,0.0801,0.0493,0.0031,-0.0291,-0.07,-0.1304,-0.1894,-0.2486,-0.3073,-0.3573,-0.3955,-0.4202,-0.4443,-0.4657,-0.4587,-0.4416,-0.4196,-0.402,-0.3884,-0.3751,-0.3575,-0.3575,-0.3796,-0.4188,-0.4626,-0.4975,-0.5285,-0.5496,-0.5712,-0.597,-0.627,-0.6641,-0.7182,-0.7572,-0.7704,-0.7712,-0.7579,-0.7412,-0.7251,-0.7154,-0.6985,-0.6829,-0.6623,-0.641,-0.5927,-0.5501,-0.5154,-0.4767,-0.4762,-0.4622,-0.484,-0.5019,-0.5145,-0.5231,-0.5318,-0.5448,-0.5404,-0.5318,-0.5149,-0.4937,-0.4718,-0.46,-0.4613,-0.4812,-0.4928,-0.5084,-0.5226,-0.5404,-0.5651,-0.5903,-0.6262,-0.6794,-0.7276,-0.7635,-0.7996,-0.8002,-0.8008,-0.8168,-0.8055,-0.7889,-0.7729,-0.7842,-0.7842,-0.7676,-0.7729,-0.7895,-0.8055,-0.8162,-0.8268,-0.8368,-0.8321,-0.8315,-0.8143,-0.819,-0.8408,-0.8679,-0.883]}]]